[[{"header":{"parameterUnit":"m.s-1","parameterCategory":1,"la1":30.6,"la2":28.766,"lo1":-90.7593,"lo2":-88.6598,"dy":0.0162,"dx":0.0183,"nx":116,"ny":114,"refTime":"2023-04-30T00:00:00:Z","depth":0,"parameterNumber":2,"parameterNumberName":"U-component_of_WINDS"},"data":[0.0,0.0,0.0,0.0,0.0,0.0,0.0,0.0,0.0,0.0,0.0,0.0,0.0,0.0,0.0,0.0,0.0,0.0,0.0,0.0,0.0,0.0,0.0,0.0,0.0,0.0,0.0,0.0,0.0,0.0,0.0,0.0,0.0,0.0,0.0,0.0,0.0,0.0,0.0,0.0,0.0,0.0,0.0,0.0,0.0,0.0,0.0,0.0,0.0,0.0,0.0,0.0,0.0,0.0,0.0,0.0,0.0,0.0,0.0,0.0,0.0,0.0,0.0,0.0,0.0,0.0,0.0,0.0,0.0,0.0,0.0,0.0,0.0,0.0,0.0,0.0,0.0,0.0,0.0,0.0,0.0,0.0,0.0,0.0,0.0,0.0,0.0,0.0,0.0,0.0,0.0,0.0,0.0,0.0,0.0,0.0,0.0,0.0,0.0,0.0,0.0,0.0,0.0,0.0,0.0,0.0,0.0,0.0,0.0,0.0,0.0,0.0,0.0,0.0,0.0,0.0,0.0,0.0,0.0,0.0,0.0,0.0,0.0,0.0,0.0,0.0,0.0,0.0,0.0,0.0,0.0,0.0,0.0,0.0,0.0,0.0,0.0,0.0,0.0,0.0,0.0,0.0,0.0,0.0,0.0,0.0,0.0,0.0,0.0,0.0,0.0,0.0,0.0,0.0,0.0,0.0,0.0,0.0,0.0,0.0,0.0,0.0,0.0,0.0,0.0,0.0,0.0,0.0,0.0,0.0,0.0,0.0,0.0,0.0,0.0,0.0,0.0,0.0,0.0,0.0,0.0,0.0,0.0,0.0,0.0,0.0,0.0,0.0,0.0,0.0,0.0,0.0,0.0,0.0,0.0,0.0,0.0,0.0,0.0,0.0,0.0,0.0,0.0,0.0,0.0,0.0,0.0,0.0,0.0,0.0,0.0,0.0,0.0,0.0,0.0,0.0,0.0,0.0,0.0,0.0,0.0,0.0,0.0,0.0,0.0,0.0,0.0,0.0,0.0,0.0,0.0,0.0,0.0,0.0,0.0,0.0,0.0,0.0,0.0,0.0,0.0,0.0,0.0,0.0,0.0,0.0,0.0,0.0,0.0,0.0,0.0,0.0,0.0,0.0,0.0,0.0,0.0,0.0,0.0,0.0,0.0,0.0,0.0,0.0,0.0,0.0,0.0,0.0,0.0,0.0,0.0,0.0,0.0,0.0,0.0,0.0,0.0,0.0,0.0,0.0,0.0,0.0,0.0,0.0,0.0,0.0,0.0,0.0,0.0,0.0,0.0,0.0,0.0,0.0,0.0,0.0,0.0,0.0,0.0,0.0,0.0,0.0,0.0,0.0,0.0,0.0,0.0,0.0,0.0,0.0,0.0,0.0,0.0,0.0,0.0,0.0,0.0,0.0,0.0,0.0,0.0,0.0,0.0,0.0,0.0,0.0,0.0,0.0,0.0,0.0,0.0,0.0,0.0,0.0,0.0,0.0,0.0,0.0,0.0,0.0,0.0,0.0,0.0,0.0,0.0,0.0,0.0,0.0,0.0,0.0,0.0,0.0,0.0,0.0,0.0,0.0,0.0,0.0,0.0,0.0,0.0,0.0,0.0,0.0,0.0,0.0,0.0,0.0,0.0,0.0,0.0,0.0,0.0,0.0,0.0,0.0,0.0,0.0,0.0,0.0,0.0,0.0,0.0,0.0,0.0,0.0,0.0,0.0,0.0,0.0,0.0,0.0,0.0,0.0,0.0,0.0,0.0,0.0,0.0,0.0,0.0,0.0,0.0,0.0,0.0,0.0,0.0,0.0,0.0,0.0,0.0,0.0,0.0,0.0,0.0,0.0,0.0,0.0,0.0,0.0,0.0,0.0,0.0,0.0,0.0,0.0,0.0,0.0,0.0,0.0,0.0,0.0,0.0,0.0,0.0,0.0,0.0,0.0,0.0,0.0,0.0,0.0,0.0,0.0,0.0,0.0,0.0,0.0,0.0,0.0,0.0,0.0,0.0,0.0,0.0,0.0,0.0,0.0,0.0,0.0,0.0,0.0,0.0,0.0,0.0,0.0,0.0,0.0,0.0,0.0,0.0,0.0,0.0,0.0,0.0,0.0,0.0,0.0,0.0,0.0,0.0,0.0,0.0,0.0,0.0,0.0,0.0,0.0,0.0,0.0,0.0,0.0,0.0,0.0,0.0,0.0,0.0,0.0,0.0,0.0,0.0,0.0,0.0,0.0,0.0,0.0,0.0,0.0,0.0,0.0,0.0,0.0,0.0,0.0,0.0,0.0,0.0,0.0,0.0,0.0,0.0,0.0,0.0,0.0,0.0,0.0,0.0,0.0,0.0,0.0,0.0,0.0,0.0,0.0,0.0,0.0,0.0,0.0,0.0,0.0,0.0,0.0,0.0,0.0,0.0,0.0,0.0,0.0,0.0,0.0,0.0,0.0,0.0,0.0,0.0,0.0,0.0,0.0,0.0,0.0,0.0,0.0,0.0,0.0,0.0,0.0,0.0,0.0,0.0,0.0,0.0,0.0,0.0,0.0,0.0,0.0,0.0,0.0,0.0,0.0,0.0,0.0,0.0,0.0,0.0,0.0,0.0,0.0,0.0,0.0,0.0,0.0,0.0,0.0,0.0,0.0,0.0,0.0,0.0,0.0,0.0,0.0,0.0,0.0,0.0,0.0,0.0,0.0,0.0,0.0,0.0,0.0,0.0,0.0,0.0,0.0,0.0,0.0,0.0,0.0,0.0,0.0,0.0,0.0,0.0,0.0,0.0,0.0,0.0,0.0,0.0,0.0,0.0,0.0,0.0,0.0,0.0,0.0,0.0,0.0,0.0,0.0,0.0,0.0,0.0,0.0,0.0,0.0,0.0,0.0,0.0,0.0,0.0,0.0,0.0,0.0,0.0,0.0,0.0,0.0,0.0,0.0,0.0,0.0,0.0,0.0,0.0,0.0,0.0,0.0,0.0,0.0,0.0,0.0,0.0,0.0,0.0,0.0,0.0,0.0,0.0,0.0,0.0,0.0,0.0,0.0,0.0,0.0,0.0,0.0,0.0,0.0,0.0,0.0,0.0,0.0,0.0,0.0,0.0,0.0,0.0,0.0,0.0,0.0,0.0,0.0,0.0,0.0,0.0,0.0,0.0,0.0,0.0,0.0,0.0,0.0,0.0,0.0,0.0,0.0,0.0,0.0,0.0,0.0,0.0,0.0,0.0,0.0,0.0,0.0,0.0,0.0,0.0,0.0,0.0,0.0,0.0,0.0,0.0,0.0,0.0,0.0,0.0,0.0,0.0,0.0,0.0,0.0,0.0,0.0,0.0,0.0,0.0,0.0,0.0,0.0,0.0,0.0,0.0,0.0,0.0,0.0,0.0,0.0,0.0,0.0,0.0,0.0,0.0,0.0,0.0,0.0,0.0,0.0,0.0,0.0,0.0,0.0,0.0,0.0,0.0,0.0,0.0,0.0,0.0,0.0,0.0,0.0,0.0,0.0,0.0,0.0,0.0,0.0,0.0,0.0,0.0,0.0,0.0,0.0,0.0,0.0,0.0,0.0,0.0,0.0,0.0,0.0,0.0,0.0,0.0,0.0,0.0,0.0,0.0,0.0,0.0,0.0,0.0,0.0,0.0,0.0,0.0,0.0,0.0,0.0,0.0,0.0,0.0,0.0,0.0,0.0,0.0,0.0,0.0,0.0,0.0,0.0,0.0,0.0,0.0,0.0,0.0,0.0,0.0,0.0,0.0,0.0,0.0,0.0,0.0,0.0,0.0,0.0,0.0,0.0,0.0,0.0,0.0,0.0,0.0,0.0,0.0,0.0,0.0,0.0,0.0,0.0,0.0,0.0,0.0,0.0,0.0,0.0,0.0,0.0,0.0,0.0,0.0,0.0,0.0,0.0,0.0,0.0,0.0,0.0,0.0,0.0,0.0,0.0,0.0,0.0,0.0,0.0,0.0,0.0,0.0,0.0,0.0,0.0,0.0,0.0,0.0,0.0,0.0,0.0,0.0,0.0,0.0,0.0,0.0,0.0,0.0,0.0,0.0,0.0,0.0,0.0,0.0,0.0,0.0,0.0,0.0,0.0,0.0,0.0,0.0,0.0,0.0,0.0,0.0,0.0,0.0,0.0,0.0,0.0,0.0,0.0,0.0,0.0,0.0,0.0,0.0,0.0,0.0,0.0,0.0,0.0,0.0,0.0,0.0,0.0,0.0,0.0,0.0,0.0,0.0,0.0,0.0,0.0,0.0,0.0,0.0,0.0,0.0,0.0,0.0,0.0,0.0,0.0,0.0,0.0,0.0,0.0,0.0,0.0,0.0,0.0,0.0,0.0,0.0,0.0,0.0,0.0,0.0,0.0,0.0,0.0,0.0,0.0,0.0,0.0,0.0,0.0,0.0,0.0,0.0,0.0,0.0,0.0,0.0,0.0,0.0,0.0,0.0,0.0,0.0,0.0,0.0,0.0,0.0,0.0,0.0,0.0,0.0,0.0,0.0,0.0,0.0,0.0,0.0,0.0,0.0,0.0,0.0,0.0,0.0,0.0,0.0,0.0,0.0,0.0,0.0,0.0,0.0,0.0,0.0,0.0,0.0,0.0,0.0,0.0,0.0,0.0,0.0,0.0,0.0,0.0,0.0,0.0,0.0,0.0,0.0,0.0,0.0,0.0,0.0,0.0,0.0,0.0,0.0,0.0,0.0,0.0,0.0,0.0,0.0,0.0,0.0,0.0,0.0,0.0,0.0,0.0,0.0,0.0,0.0,0.0,0.0,0.0,0.0,0.0,0.0,0.0,0.0,0.0,0.0,0.0,0.0,0.0,0.0,0.0,0.0,0.0,0.0,0.0,0.0,0.0,0.0,0.0,0.0,0.0,0.0,0.0,0.0,0.0,0.0,0.0,0.0,0.0,0.0,0.0,0.0,0.0,0.0,0.0,0.0,0.0,0.0,0.0,0.0,0.0,0.0,0.0,0.0,0.0,0.0,0.0,0.0,0.0,0.0,0.0,0.0,0.0,0.0,0.0,0.0,0.0,0.0,0.0,0.0,0.0,0.0,0.0,0.0,0.0,0.0,0.0,0.0,0.0,0.0,0.0,0.0,0.0,0.0,0.0,0.0,0.0,0.0,0.0,0.0,0.0,0.0,0.0,0.0,0.0,0.0,0.0,0.0,0.0,0.0,0.0,0.0,0.0,0.0,0.0,0.0,0.0,0.0,0.0,0.0,0.0,0.0,0.0,0.0,0.0,0.0,0.0,0.0,0.0,0.0,0.0,0.0,0.0,0.0,0.0,0.0,0.0,0.0,0.0,0.0,0.0,0.0,0.0,0.0,0.0,0.0,0.0,0.0,0.0,0.0,0.0,0.0,0.0,0.0,0.0,0.0,0.0,0.0,0.0,0.0,0.0,0.0,0.0,0.0,0.0,0.0,0.0,0.0,0.0,0.0,0.0,0.0,0.0,0.0,0.0,0.0,0.0,0.0,0.0,0.0,0.0,0.0,0.0,0.0,0.0,0.0,0.0,0.0,0.0,0.0,0.0,0.0,0.0,0.0,0.0,0.0,0.0,0.0,0.0,0.0,0.0,0.0,0.0,0.0,0.0,0.0,0.0,0.0,0.0,0.0,0.0,0.0,0.0,0.0,0.0,0.0,0.0,0.0,0.0,0.0,0.0,0.0,0.0,0.0,0.0,0.0,0.0,0.0,0.0,0.0,0.0,0.0,0.0,0.0,0.0,0.0,0.0,0.0,0.0,0.0,0.0,0.0,0.0,0.0,0.0,0.0,0.0,0.0,0.0,0.0,0.0,0.0,0.0,0.0,0.0,0.0,0.0,0.0,0.0,0.0,0.0,0.0,0.0,0.0,0.0,0.0,0.0,0.0,0.0,0.0,0.0,0.0,0.0,0.0,0.0,0.0,0.0,0.0,0.0,0.0,0.0,0.0,0.0,0.0,0.0,0.0,0.0,0.0,0.0,0.0,0.0,0.0,0.0,0.0,0.0,0.0,0.0,0.0,0.0,0.0,0.0,0.0,0.0,0.0,0.0,0.0,0.0,0.0,0.0,0.0,0.0,0.0,0.0,0.0,0.0,0.0,0.0,0.0,0.0,-1.3478,0.0,0.0,0.0,0.0,0.0,0.0,0.0,0.0,0.0,0.0,0.0,0.0,0.0,0.0,0.0,0.0,0.0,0.0,0.0,0.0,0.0,0.0,0.0,0.0,0.0,0.0,0.0,0.0,0.0,0.0,0.0,0.0,0.0,0.0,0.0,0.0,0.0,0.0,0.0,0.0,0.0,0.0,0.0,0.0,0.0,0.0,0.0,0.0,0.0,0.0,0.0,0.0,0.0,0.0,0.0,0.0,0.0,0.0,0.0,0.0,0.0,0.0,0.0,0.0,0.0,0.0,0.0,0.0,0.0,0.0,0.0,0.0,0.0,0.0,0.0,0.0,0.0,0.0,0.0,0.0,0.0,0.0,0.0,0.0,0.0,0.0,0.0,0.0,0.0,0.0,0.0,0.0,0.0,0.0,0.0,0.0,0.0,0.0,0.0,0.0,0.0,0.0,0.0,0.0,0.0,0.0,0.0,0.0,0.0,0.0,0.0,0.0,0.0,0.0,0.0,0.0,-1.4943,0.0,0.0,0.0,0.0,0.0,0.0,0.0,0.0,0.0,0.0,0.0,0.0,0.0,0.0,0.0,0.0,0.0,0.0,0.0,0.0,0.0,0.0,0.0,0.0,0.0,0.0,0.0,0.0,0.0,0.0,0.0,0.0,0.0,0.0,0.0,0.0,0.0,0.0,0.0,0.0,0.0,0.0,0.0,0.0,0.0,0.0,0.0,0.0,0.0,0.0,0.0,0.0,0.0,0.0,0.0,0.0,0.0,0.0,0.0,0.0,0.0,0.0,0.0,0.0,0.0,0.0,0.0,0.0,0.0,0.0,0.0,0.0,0.0,0.0,0.0,0.0,0.0,0.0,0.0,0.0,0.0,0.0,0.0,0.0,0.0,0.0,0.0,0.0,0.0,0.0,0.0,0.0,0.0,0.0,0.0,0.0,0.0,0.0,0.0,0.0,0.0,0.0,0.0,0.0,0.0,0.0,0.0,0.0,-1.6757,-1.7293,-1.8233,-1.8397,-1.8499,-1.8385,-1.713,-1.6622,-1.675,-1.676,0.0,0.0,0.0,0.0,0.0,0.0,0.0,0.0,0.0,0.0,0.0,0.0,0.0,0.0,0.0,0.0,0.0,0.0,0.0,0.0,0.0,0.0,0.0,0.0,0.0,0.0,0.0,0.0,0.0,0.0,0.0,0.0,0.0,0.0,0.0,0.0,0.0,0.0,0.0,0.0,0.0,0.0,0.0,0.0,0.0,0.0,0.0,0.0,0.0,0.0,0.0,0.0,0.0,0.0,0.0,0.0,0.0,0.0,0.0,0.0,0.0,0.0,0.0,0.0,0.0,0.0,0.0,0.0,0.0,0.0,0.0,0.0,0.0,0.0,0.0,0.0,0.0,0.0,0.0,0.0,0.0,0.0,0.0,0.0,0.0,0.0,-0.6091,-0.6496,0.0,0.0,0.0,0.0,0.0,0.0,0.0,0.0,0.0,0.0,0.0,0.0,0.0,-1.4328,-1.5387,-1.6919,-1.7886,-1.8265,-1.8962,-1.9512,-2.0,-2.0394,-2.0944,-2.1734,-2.1176,0.0,-1.8052,-1.6976,0.0,0.0,0.0,0.0,0.0,0.0,0.0,0.0,0.0,0.0,0.0,0.0,0.0,0.0,0.0,0.0,0.0,0.0,0.0,0.0,0.0,0.0,0.0,0.0,0.0,0.0,0.0,0.0,0.0,0.0,0.0,0.0,0.0,0.0,0.0,0.0,0.0,0.0,0.0,0.0,0.0,0.0,0.0,0.0,0.0,0.0,0.0,0.0,0.0,0.0,0.0,0.0,0.0,0.0,0.0,0.0,0.0,0.0,0.0,0.0,0.0,0.0,0.0,0.0,0.0,0.0,0.0,0.0,0.0,0.0,0.0,0.0,0.0,0.0,0.0,0.0,0.0,0.0,0.0,0.0,0.0,0.0,0.0,0.0,0.0,-0.6571,-0.6635,-0.7033,-0.737,-0.7846,0.0,0.0,0.0,0.0,0.0,0.0,0.0,0.0,0.0,-1.3638,-1.516,-1.6383,-1.7234,-1.8837,-2.0058,-2.0852,-2.1605,-2.2275,-2.2805,-2.3542,-2.4092,-2.4573,-2.4692,-2.4296,-2.3355,-2.019,-2.021,-2.2053,0.0,0.0,0.0,0.0,-1.9375,-1.9445,0.0,0.0,0.0,0.0,0.0,0.0,0.0,0.0,0.0,0.0,0.0,0.0,0.0,0.0,0.0,0.0,0.0,0.0,0.0,0.0,0.0,0.0,0.0,0.0,0.0,0.0,0.0,0.0,0.0,0.0,0.0,0.0,0.0,0.0,0.0,0.0,0.0,0.0,0.0,0.0,0.0,0.0,0.0,0.0,0.0,0.0,0.0,0.0,0.0,0.0,0.0,0.0,0.0,0.0,0.0,0.0,0.0,0.0,0.0,0.0,0.0,0.0,0.0,0.0,0.0,0.0,0.0,0.0,0.0,0.0,0.0,0.0,0.0,0.0,0.0,0.0,0.0,-0.7084,-0.7114,-0.7698,-0.7958,-0.8303,0.0,0.0,0.0,0.0,0.0,0.0,-1.3157,-1.4858,-1.5867,-1.6047,-1.7523,-1.8601,-1.9364,-2.0716,-2.2003,-2.3063,-2.3934,-2.4663,-2.5431,-2.6514,-2.7105,-2.7336,-2.776,-2.8182,-2.8359,-2.3738,-2.3183,-2.5228,-2.2829,-2.202,-2.216,-2.221,-2.2145,-2.208,0.0,0.0,0.0,0.0,0.0,0.0,0.0,0.0,0.0,0.0,0.0,0.0,0.0,0.0,0.0,0.0,0.0,0.0,0.0,0.0,0.0,0.0,0.0,0.0,0.0,0.0,0.0,0.0,0.0,0.0,0.0,0.0,0.0,0.0,0.0,0.0,0.0,0.0,0.0,0.0,0.0,0.0,0.0,0.0,0.0,0.0,0.0,0.0,0.0,0.0,0.0,0.0,0.0,0.0,0.0,0.0,0.0,0.0,0.0,0.0,0.0,0.0,0.0,0.0,0.0,0.0,0.0,0.0,0.0,0.0,0.0,0.0,0.0,0.0,0.0,0.0,0.0,0.0,0.0,-0.8658,-0.863,0.0,0.0,0.0,0.0,-1.2019,-1.2484,-1.3165,-1.4194,-1.5561,-1.6608,-1.7101,-1.9643,-2.1466,-2.2307,-2.3226,-2.3825,-2.4334,-2.5587,-2.6379,-2.6893,-2.8527,-2.9736,-3.0458,-3.0055,-3.0708,-3.146,-2.6676,-2.5296,-2.6174,-2.4636,-2.4486,-2.5125,-2.5287,-2.5443,-2.5612,0.0,0.0,0.0,0.0,0.0,0.0,0.0,0.0,0.0,0.0,0.0,0.0,0.0,0.0,0.0,0.0,0.0,0.0,0.0,0.0,0.0,0.0,0.0,0.0,0.0,0.0,0.0,0.0,0.0,0.0,0.0,0.0,0.0,0.0,0.0,0.0,0.0,0.0,0.0,0.0,0.0,0.0,0.0,0.0,0.0,0.0,0.0,0.0,0.0,0.0,0.0,0.0,0.0,0.0,0.0,0.0,0.0,0.0,0.0,0.0,0.0,0.0,0.0,0.0,0.0,0.0,0.0,0.0,0.0,0.0,0.0,0.0,0.0,0.0,0.0,0.0,0.0,0.0,0.0,-1.0853,-1.1229,0.0,-1.1909,-1.2175,-1.2819,-1.3892,-1.4303,-1.5327,-1.7117,-1.8287,-1.9475,-2.079,-2.2904,-2.3944,-2.3768,-2.5916,-2.6828,-2.6313,-2.7576,-2.8468,-2.8867,-3.0344,-3.1463,-3.219,-3.287,-3.3528,-3.3926,-3.1983,-3.061,-2.9569,-2.8074,-2.7867,-2.8479,-2.8572,-2.8505,-2.8411,0.0,0.0,0.0,0.0,0.0,0.0,0.0,0.0,0.0,0.0,0.0,0.0,0.0,0.0,0.0,0.0,0.0,0.0,0.0,0.0,0.0,0.0,0.0,0.0,0.0,0.0,0.0,0.0,0.0,0.0,0.0,0.0,0.0,0.0,0.0,0.0,0.0,0.0,0.0,0.0,0.0,0.0,0.3419,0.0,0.0,0.0,0.0,0.0,0.0,0.0,0.0,0.0,0.0,0.0,0.0,0.0,0.0,0.0,0.0,0.0,0.0,0.0,0.0,0.0,0.0,0.0,0.0,0.0,0.0,0.0,0.0,0.0,0.0,0.0,0.0,0.0,0.0,0.0,-1.1299,-1.311,-1.3357,-1.3551,-1.388,-1.4095,-1.4563,-1.562,-1.6195,-1.74,-1.9384,-2.0574,-2.175,-2.3103,-2.4922,-2.5596,-2.5276,-2.7806,-2.8903,-2.8482,-2.9747,-3.079,-3.1339,-3.2717,-3.351,-3.3987,-3.5113,-3.5649,-3.5824,-3.5274,-3.4252,-3.2706,-3.1337,-3.1031,-3.1444,-3.1645,-3.155,-3.1423,0.0,0.0,0.0,0.0,0.0,0.0,0.0,0.0,0.0,0.0,0.0,0.0,0.0,0.0,0.0,0.0,0.0,0.0,0.0,0.0,0.0,0.0,0.0,0.0,0.0,0.0,0.0,0.0,0.0,0.0,0.0,0.0,0.0,0.0,0.0,0.0,0.0,0.0,0.0,0.0,0.0,0.0,0.5764,0.0,0.0,0.0,0.0,0.0,0.0,0.0,0.0,0.0,0.0,0.0,0.0,0.0,0.0,0.0,0.0,0.0,0.0,0.0,0.0,0.0,0.0,0.0,0.0,0.0,0.0,0.0,0.0,0.0,0.0,0.0,0.0,0.0,-1.361,-1.2763,-1.3002,-1.5247,-1.4987,-1.4636,-1.4781,-1.5249,-1.6036,-1.7085,-1.8262,-1.9516,-2.0836,-2.2131,-2.3092,-2.3771,-2.5645,-2.6776,-2.7011,-2.8926,-3.0154,-3.0663,-3.2024,-3.3204,-3.4164,-3.5306,-3.5873,-3.5843,-3.6402,-3.6796,-3.6933,-3.6289,-3.5747,-3.5333,-3.4208,-3.3814,-3.3923,-3.4456,-3.4661,-3.4701,0.0,0.0,0.0,0.0,0.0,0.0,0.0,0.0,0.0,0.0,0.0,0.0,0.0,0.0,0.0,0.0,0.0,0.0,0.0,0.0,0.0,0.0,0.0,0.0,0.0,0.0,0.0,0.0,0.0,0.0,0.0,0.0,0.0,0.0,0.0,0.0,0.0,0.0,0.0,0.0,0.0,0.0,0.8487,0.0,0.0,0.0,0.0,0.0,0.0,0.0,0.0,0.0,0.0,0.0,0.0,0.0,0.0,0.0,0.0,0.0,0.0,0.0,0.0,0.0,0.0,0.0,0.0,0.0,0.0,0.0,0.0,0.0,0.0,0.0,0.0,-1.4278,-1.341,-1.3791,-1.4876,-1.6646,-1.68,-1.6944,-1.7644,-1.8682,-1.9525,-2.0085,-2.0823,-2.2243,-2.4423,-2.4817,-2.57,-2.741,-2.9355,-2.9905,-2.9103,-3.2189,-3.3424,-3.2682,-3.376,-3.437,-3.4741,-3.558,-3.5976,-3.602,-3.6972,-3.7384,-3.719,-3.6894,-3.6439,-3.6036,-3.5232,-3.5176,-3.5625,-3.5734,-3.5842,-3.5768,0.0,0.0,0.0,0.0,0.0,0.0,0.0,0.0,0.0,0.0,0.0,0.0,0.0,0.0,0.0,0.0,0.0,0.0,0.0,0.0,0.0,0.0,0.0,0.0,0.0,0.0,0.0,0.0,0.0,0.0,0.0,0.0,0.0,0.0,0.0,0.0,0.0,0.0,0.0,0.0,0.0,0.0,1.0266,0.9471,0.7361,0.4691,0.3679,0.2958,0.2184,0.0092,0.0,0.0,0.0,0.0,0.0,0.0,0.0,0.0,0.0,0.0,0.0,0.0,0.0,0.0,0.0,0.0,0.0,0.0,0.0,0.0,0.0,0.0,0.0,0.0,-1.6269,-1.6243,-1.5577,-1.5724,-1.6613,-1.8367,-1.92,-1.9617,-1.9788,-2.1343,-2.2303,-2.194,-2.3345,-2.4907,-2.6302,-2.731,-2.8249,-2.9252,-3.1377,-3.1968,-3.0982,-3.427,-3.572,-3.5188,-3.5797,-3.6319,-3.6717,-3.695,-3.7166,-3.7417,-3.7681,-3.7985,-3.8454,-3.8507,-3.83,0.0,0.0,0.0,0.0,0.0,-3.5956,-3.596,0.0,0.0,0.0,0.0,0.0,0.0,0.0,0.0,0.0,0.0,0.0,0.0,0.0,0.0,0.0,0.0,0.0,0.0,0.0,0.0,0.0,0.0,0.0,0.0,0.0,0.0,0.0,0.0,0.0,0.0,0.0,0.0,0.0,0.0,0.0,0.0,0.0,0.0,0.0,0.0,0.0,0.0,1.1614,1.0889,0.8868,0.618,0.5129,0.4381,0.367,0.232,0.0,0.0,0.0,0.0,0.0,0.0,0.0,0.0,0.0,0.0,0.0,0.0,0.0,0.0,0.0,0.0,0.0,0.0,0.0,0.0,0.0,0.0,0.0,0.0,-1.7752,-1.8542,-1.9181,-1.8615,-1.8712,-2.0364,-2.185,-2.2559,-2.1886,-2.3758,-2.4683,-2.3513,-2.5907,-2.7528,-2.7692,0.0,0.0,0.0,0.0,-3.3544,-3.2959,-3.5699,-3.7286,-3.7747,-3.7919,-3.8436,-3.9297,-3.886,-3.9011,-3.9603,-3.855,-3.9028,-4.0265,-4.0425,-4.044,-3.9947,-3.6626,-3.563,-3.5978,-3.584,-3.5804,-3.6036,0.0,0.0,0.0,0.0,0.0,0.0,0.0,0.0,0.0,0.0,0.0,0.0,0.0,0.0,0.0,0.0,0.0,0.0,0.0,0.0,0.0,0.0,0.0,0.0,0.0,0.0,0.0,0.0,0.0,0.0,0.0,0.0,0.0,0.0,0.0,0.0,0.0,0.0,0.0,0.0,0.0,0.0,1.3824,1.2662,1.1537,1.0307,0.8241,0.7253,0.655,0.4137,0.3141,0.2536,0.0176,0.0,0.0,0.0,0.0,0.0,0.0,0.0,0.0,0.0,0.0,0.0,0.0,0.0,0.0,0.0,0.0,0.0,0.0,0.0,0.0,-1.8264,-1.9388,-2.067,-2.2418,-2.2733,-2.2772,-2.2905,-2.4586,-2.5637,-2.5544,-2.7287,-2.8337,-2.7982,-2.947,-3.0976,-3.2413,-3.2378,-3.3139,-3.4888,-3.5352,-3.5853,-3.6082,-3.753,-3.8354,-3.8469,0.0,0.0,-3.9308,-3.9216,-4.0012,-4.1444,-4.0703,-4.0898,-4.1479,-4.0757,-3.9713,-3.86,-3.866,-3.881,-3.8794,-3.7742,-3.8012,-3.8758,0.0,0.0,0.0,0.0,0.0,0.0,0.0,0.0,0.0,0.0,0.0,0.0,0.0,0.0,0.0,0.0,0.0,0.0,0.0,0.0,0.0,0.0,0.0,0.0,0.0,0.0,0.0,0.0,0.0,0.0,0.0,0.0,0.0,0.0,0.0,0.0,0.0,0.0,0.0,0.0,0.0,0.0,1.3168,1.2412,1.1936,1.1459,0.9615,0.8698,0.8186,0.6338,0.5377,0.4563,0.272,0.2,0.104,0.0,0.0,0.0,0.0,0.0,0.0,0.0,0.0,0.0,0.0,0.0,0.0,0.0,0.0,-1.447,0.0,0.0,-1.9867,-2.1595,-2.2447,-2.3659,-2.5709,-2.6415,-2.6565,-2.5778,-2.7562,-2.8624,-2.8147,-3.0052,-3.0937,-3.0121,-3.1712,-3.3132,-3.4054,-3.4847,-3.5692,-3.6659,-3.7418,-3.781,-3.7679,-3.8942,-3.9511,-3.9407,-3.9651,-4.0083,-4.0743,-4.0327,-4.1227,-4.3022,-4.2362,-4.2264,-4.2591,-4.262,-4.1826,-4.063,-4.1085,-4.0212,-3.8415,-3.8104,-3.8289,-3.8797,0.0,0.0,0.0,0.0,0.0,0.0,0.0,0.0,0.0,0.0,0.0,0.0,0.0,0.0,0.0,0.0,0.0,0.0,0.0,0.0,0.0,0.0,0.0,0.0,0.0,0.0,0.0,0.0,0.0,0.0,0.0,0.0,0.0,0.0,0.0,0.0,0.0,0.0,0.0,0.0,0.0,0.0,1.1443,1.1054,1.1169,1.1165,0.9776,0.8923,0.8365,0.7569,0.6801,0.5906,0.4703,0.4604,0.3939,-0.0961,-0.3832,0.0,0.0,0.0,0.0,0.0,0.0,0.0,0.0,0.0,-1.1771,-1.2787,-1.4533,-1.637,-1.7717,-2.0301,-2.2763,-2.4738,-2.5571,-2.656,-2.8559,-2.9556,-2.9803,-2.9269,-3.0649,-3.1397,-3.0664,-3.2652,-3.333,-3.1886,-3.3692,-3.5032,-3.5168,-3.6962,-3.781,-3.7678,-3.879,-3.931,-3.8977,-4.0238,-4.0901,-4.0882,-4.0882,-4.1305,-4.2176,-4.1773,-4.2351,-4.381,-4.346,-4.3447,-4.3713,-4.4279,-4.3951,-4.301,-4.2905,-4.0914,-3.8141,-3.8502,-3.8726,-3.8863,0.0,0.0,0.0,0.0,0.0,0.0,0.0,0.0,0.0,0.0,0.0,0.0,0.0,0.0,0.0,0.0,0.0,0.0,0.0,0.0,0.0,0.0,0.0,0.0,0.0,0.0,0.0,0.0,0.0,0.0,0.0,0.0,0.0,0.0,0.0,0.0,0.0,0.0,0.0,0.0,0.0,0.0,0.9644,0.8945,0.9409,1.0286,0.8402,0.7122,0.6314,0.6098,0.5582,0.4734,0.3444,0.3172,0.2627,-0.114,0.0,-0.4692,-0.7301,-0.8469,-0.9203,-1.0349,-1.066,-1.1284,0.0,0.0,-1.4452,-1.5651,-1.6727,-1.8001,-1.9942,-2.1678,-2.3453,-2.5317,-2.7041,-2.8818,-3.0608,-3.1264,-3.2134,-3.3976,-3.4152,-3.4112,-3.4,-3.5168,-3.584,-3.5553,-3.6808,-3.7798,-3.8214,-3.8072,-3.8419,-3.9188,-3.8996,-3.9564,-4.1235,-4.1373,-4.2163,-4.328,-4.328,-4.2947,-4.2176,-4.2749,-4.2997,-4.3048,-4.4081,-4.4531,-4.4574,-4.4173,-4.3598,-4.2971,-4.2461,-4.1693,-4.0815,-4.088,-4.123,-4.1696,0.0,0.0,0.0,0.0,0.0,0.0,0.0,0.0,0.0,0.0,0.0,0.0,0.0,0.0,0.0,0.0,0.0,0.0,0.0,0.0,0.0,0.0,0.0,0.0,0.0,0.0,0.0,0.0,0.0,0.0,0.0,0.0,0.0,0.0,0.0,0.0,0.0,0.0,0.0,0.0,0.0,0.0,0.9498,0.836,0.8078,0.8197,0.627,0.493,0.0,0.0,0.4051,0.4003,0.2853,0.1175,-0.0584,-0.2342,-0.4388,0.0,-0.7867,-0.8836,0.0,0.0,-1.1482,-1.2501,-1.446,-1.5191,-1.5739,-1.6628,-1.8555,-2.0287,-2.1119,-2.3844,-2.6579,0.0,-2.9911,-3.1689,-3.3868,-3.3992,-3.4105,-3.4734,-3.5029,-3.5023,-3.4579,-3.6368,-3.7263,-3.6422,-3.7998,-3.9213,-3.977,-3.9981,-4.0483,-4.1266,-4.1889,-4.2464,-4.3128,-4.3463,-4.3842,-4.417,-4.417,-4.4388,-4.4604,-4.4617,-4.4548,-4.4453,-4.3909,-4.3925,-4.4186,-4.3611,-4.3036,-4.25,-4.2265,-4.1821,-4.1311,-4.1311,-4.1468,-4.1638,0.0,0.0,0.0,0.0,0.0,0.0,0.0,0.0,0.0,0.0,0.0,0.0,0.0,0.0,0.0,0.0,0.0,0.0,0.0,0.0,0.0,0.0,0.0,0.0,0.0,0.0,0.0,0.0,0.0,0.0,0.0,0.0,0.0,0.0,0.0,0.0,0.0,0.0,0.0,0.0,0.0,0.0,0.9165,0.7602,0.6361,0.5259,0.4097,0.3051,0.0,0.0,0.2165,0.2581,0.1756,-0.0494,-0.3034,-0.4161,-0.6261,-0.8316,-0.8768,0.0,0.0,-1.1653,-1.2716,-1.384,-1.504,-1.5892,-1.6784,-1.7793,-2.003,-2.1979,-2.2696,-2.5888,-2.894,-3.0683,-3.2275,-3.4053,-3.6166,-3.5978,-3.5373,-3.4734,-3.4901,-3.4804,-3.4117,-3.6416,-3.7641,-3.6862,-3.8767,-4.0079,-4.0413,-4.1482,-4.2138,-4.241,-4.3423,-4.4023,-4.4287,-4.47,-4.4876,-4.5036,-4.5196,-4.5897,-4.6818,-4.6164,-4.5686,-4.5391,-4.4071,-4.3599,-4.3796,-4.3127,-4.2539,-4.2147,-4.199,-4.1677,-4.1311,-4.1311,-4.1311,-4.1311,0.0,0.0,0.0,0.0,0.0,0.0,0.0,0.0,0.0,0.0,0.0,0.0,0.0,0.0,0.0,0.0,0.0,0.0,0.0,0.0,0.0,0.0,0.0,0.0,0.0,0.0,0.0,0.0,0.0,0.0,0.0,0.0,0.0,0.0,0.0,0.0,0.0,0.0,0.0,0.0,0.0,0.0,0.8009,0.6235,0.3854,0.1467,0.2218,0.0,0.0,0.0,-0.0353,0.0054,-0.0243,-0.1614,0.0,-0.6685,-0.8654,0.0,0.0,0.0,-1.2627,-1.3973,-1.494,-1.5704,-1.6177,-1.6673,-1.7674,-1.9918,-2.1063,-2.2458,-2.5077,-2.7411,-2.9537,-3.1378,-3.3388,-3.523,-3.6469,-3.6257,-3.5544,-3.4661,-3.3817,-3.3207,0.0,-3.4939,-3.6635,-3.7502,-3.9652,-4.0808,-4.0465,-4.2023,-4.2691,-4.2007,-4.2105,-4.2794,-4.4204,-4.4231,-4.494,-4.6252,-4.6841,-4.7443,-4.8018,-4.726,-4.6202,-4.5034,-4.4747,-4.4356,-4.3694,-4.2627,-4.2186,-4.2108,-4.1559,-4.1337,-4.1311,-4.1311,-4.1311,-4.1311,0.0,0.0,0.0,0.0,0.0,0.0,0.0,0.0,0.0,0.0,0.0,0.0,0.0,0.0,0.0,0.0,0.0,0.0,0.0,0.0,0.0,0.0,0.0,0.0,0.0,0.0,0.0,0.0,0.0,0.0,0.0,0.0,0.0,0.0,0.0,0.0,0.0,0.0,0.0,0.0,0.0,0.0,0.7307,0.4304,0.2554,0.1342,0.0,0.0,0.0,0.0,-0.2932,-0.2751,-0.2183,0.0,0.0,-0.7475,-0.9112,-1.0253,0.0,0.0,-1.4519,-1.5465,-1.6613,-1.758,-1.7938,-1.9139,-2.0315,-2.0785,-2.2031,-2.335,-2.4095,-2.6177,-2.8486,-3.0918,-3.2141,-3.4136,-3.7871,-3.6599,-3.526,-3.5077,-3.5049,0.0,0.0,0.0,0.0,-3.7105,-3.9323,-4.0888,-4.1516,-4.3397,-4.442,-4.461,-4.5523,-4.6256,-4.6779,-4.6779,-4.6991,-4.7516,-4.7712,-4.7923,-4.8092,-4.6647,-4.5944,-4.5788,-4.4189,-4.3379,-4.3198,-4.2412,-4.1887,-4.1585,-4.1389,-4.1311,-4.1311,-4.1311,-4.1311,-4.1311,0.0,0.0,0.0,0.0,0.0,0.0,0.0,0.0,0.0,0.0,0.0,0.0,0.0,0.0,0.0,0.0,0.0,0.0,0.0,0.0,0.0,0.0,0.0,0.0,0.0,0.0,0.0,0.0,0.0,0.0,0.0,0.0,0.0,0.0,0.0,0.0,0.0,0.0,0.0,0.0,0.0,0.0,0.4966,0.1841,0.0277,0.0,0.0,0.0,0.0,0.0,0.0,0.0,0.0,-0.5329,-0.6712,-0.9052,-1.0533,-1.1849,-1.3747,-1.5222,-1.6428,-1.7227,-1.8632,-1.98,-1.9713,-2.0948,-2.2038,-2.1952,-2.2909,-2.3693,-2.3536,-2.5266,-2.7634,-3.0175,-3.1318,-3.3529,-3.8434,-3.7473,-3.6314,-3.6596,-3.6522,-3.6034,0.0,0.0,0.0,-3.6386,-3.8871,-4.0821,-4.1852,-4.3925,-4.5371,-4.6017,-4.6949,-4.7474,-4.7474,-4.7474,-4.7586,-4.7797,-4.7572,-4.7474,-4.7445,-4.6335,-4.5497,-4.49,-4.3904,-4.3133,-4.2501,-4.2248,-4.1881,-4.1597,-4.1411,-4.1311,-4.1311,-4.1311,-4.1311,-4.1311,0.0,0.0,0.0,0.0,0.0,0.0,0.0,0.0,0.0,0.0,0.0,0.0,0.0,0.0,0.0,0.0,0.0,0.0,0.0,0.0,0.0,0.0,0.0,0.0,0.0,0.0,0.0,0.0,0.0,0.0,0.0,0.0,0.0,0.0,0.0,0.0,0.0,0.0,0.0,0.0,0.0,0.0,0.1231,-0.0912,0.0,0.0,0.0,0.0,0.0,0.0,0.0,0.0,0.0,0.0,-1.0135,-1.1278,-1.2774,-1.4551,-1.6508,-1.7602,-1.8447,-1.9343,-2.1051,-2.2403,-2.1651,-2.2215,-2.3035,-2.339,-2.3412,-2.3307,0.0,0.0,-2.6791,-2.9301,-3.0964,-3.3505,-3.8104,-3.8629,-3.8616,0.0,0.0,0.0,0.0,0.0,0.0,-3.5729,0.0,-4.0627,-4.153,-4.3778,-4.5421,-4.6293,-4.6378,-4.6392,-4.6392,-4.6392,-4.6687,-4.7249,-4.6631,-4.6335,-4.6335,-4.6279,-4.4959,-4.2823,-4.4065,-4.3598,-4.1893,-4.2097,-4.2177,-4.2079,-4.1498,-4.1311,-4.1311,-4.1311,-4.1311,-4.1311,0.0,0.0,0.0,0.0,0.0,0.0,0.0,0.0,0.0,0.0,0.0,0.0,0.0,0.0,0.0,0.0,0.0,0.0,0.0,0.0,0.0,0.0,0.0,0.0,0.0,0.0,0.0,0.0,0.0,0.0,0.0,0.0,0.0,0.0,0.0,0.0,0.0,0.0,0.0,0.0,0.0,0.0,-0.0826,0.0,0.0,0.0,0.0,0.0,0.0,0.0,0.0,0.0,0.0,-0.9795,-1.1453,-1.1749,-1.3532,-1.5799,-1.7121,-1.8696,-2.0458,-2.2384,-2.3186,-2.36,-2.3817,-2.4181,-2.4126,-2.2585,-2.2213,-2.1832,0.0,0.0,0.0,-2.8351,-3.0539,0.0,-3.8216,-3.8884,0.0,-3.863,0.0,-4.0286,-3.8922,-4.0075,0.0,0.0,-4.0451,-4.1901,-4.3094,-4.494,-4.6264,-4.6954,-4.7417,-4.7656,-4.7656,-4.7656,-4.774,-4.7881,-4.7049,-4.6628,-4.6614,-4.5721,-4.4981,-4.438,-4.4461,-4.3979,-4.3158,-4.319,-4.3039,-4.2679,-4.2092,-4.1881,-4.1895,-4.1411,-4.1311,-4.1311,0.0,0.0,0.0,0.0,0.0,0.0,0.0,0.0,0.0,0.0,0.0,0.0,0.0,0.0,0.0,0.0,0.0,0.0,0.0,0.0,0.0,0.0,0.0,0.0,0.0,0.0,0.0,0.0,0.0,0.0,0.0,0.0,0.0,0.0,0.0,0.0,0.0,0.0,0.0,0.0,0.0,0.0,0.0,0.0,0.0,0.0,0.0,0.0,0.0,0.0,0.0,-0.996,-1.0051,-1.1416,-1.3202,-1.3876,0.0,-1.7821,-1.8908,-2.1013,-2.2975,-2.4018,-2.513,-2.5661,-2.4711,-2.4706,-2.4127,-2.143,-2.0852,0.0,0.0,0.0,0.0,0.0,0.0,0.0,-3.7763,-3.9324,-4.0084,0.0,-4.1666,0.0,-4.1803,-4.2736,-4.3096,0.0,-4.2462,-4.2943,-4.4087,-4.5624,-4.6878,-4.7758,-4.8125,-4.8207,-4.812,-4.812,-4.7993,-4.7712,-4.6981,-4.6434,-4.6126,-4.5188,-4.4475,-4.3971,0.0,-4.3901,-4.3148,-4.3488,-4.3423,-4.3149,-4.2373,-4.2079,-4.2079,-4.1511,-4.1311,-4.1311,0.0,0.0,0.0,0.0,0.0,0.0,0.0,0.0,0.0,0.0,0.0,0.0,0.0,0.0,0.0,0.0,0.0,0.0,0.0,0.0,0.0,0.0,0.0,0.0,0.0,0.0,0.0,0.0,0.0,0.0,0.0,0.0,0.0,0.0,0.0,0.0,0.0,0.0,0.0,0.0,0.0,0.0,0.0,0.0,0.0,0.0,0.0,0.0,0.0,0.0,-1.1065,-1.134,-1.1914,-1.3362,-1.5174,-1.6748,-1.8536,-2.018,-2.1522,-2.3762,-2.5656,-2.5478,-2.69,-2.7754,-2.5165,-2.4541,-2.3514,-2.018,0.0,-1.9126,-1.8208,-1.9578,-2.23,-2.6685,0.0,-3.292,-3.6854,-3.9667,-4.1561,-4.2363,-4.2872,-4.3864,-4.5341,-4.5005,-4.4973,-4.5608,-4.4457,-4.4119,-4.5092,-4.6249,-4.7367,-4.8311,-4.8283,-4.8154,-4.7881,-4.7881,-4.7614,-4.708,-4.6462,-4.5775,-4.5214,-4.4597,-4.3742,-4.2879,-4.3947,0.0,-4.2907,-4.3468,-4.3709,-4.36,-4.2652,-4.2275,-4.2177,-4.1597,-4.1311,-4.1311,0.0,0.0,0.0,0.0,0.0,0.0,0.0,0.0,0.0,0.0,-0.8318,-0.8172,0.0,0.0,0.0,0.0,0.0,0.0,0.0,0.0,0.0,0.0,0.0,0.0,0.0,0.0,0.0,0.0,0.0,0.0,0.0,0.0,0.0,0.0,0.0,0.0,0.0,0.0,0.0,0.0,0.0,0.0,0.0,0.0,0.0,0.0,0.0,0.0,0.0,0.0,-1.1805,-1.268,-1.3782,-1.5191,-1.684,-1.8552,-2.0441,-2.2434,-2.429,-2.5945,-2.7552,-2.921,-2.8847,-2.7858,-2.6922,-2.5009,0.0,0.0,0.0,-1.8031,-1.8305,-1.9901,0.0,-2.8244,0.0,0.0,0.0,0.0,-4.1724,0.0,0.0,0.0,0.0,0.0,0.0,0.0,0.0,-4.6606,-4.6951,-4.7511,-4.7781,-4.7716,-4.7234,-4.6882,-4.6616,-4.6616,-4.656,-4.6448,-4.5636,-4.5176,-4.505,-4.4327,-4.3923,-4.3822,-4.4219,0.0,-4.4116,-4.4219,-4.4303,-4.4209,-4.3355,-4.2984,-4.2693,-4.1895,-4.1511,-4.1311,0.0,0.0,0.0,0.0,0.0,0.0,0.0,-0.9606,-0.8901,-0.8652,-0.8517,-0.8184,-0.7479,-0.7722,0.0,0.0,0.0,0.0,0.0,0.0,0.0,0.0,0.0,0.0,0.0,0.0,0.0,0.0,0.0,0.0,0.0,0.0,0.0,0.0,0.0,0.0,0.0,0.0,0.0,0.0,0.0,0.0,0.0,0.0,0.0,0.0,0.0,0.0,0.0,0.0,-1.1606,-1.251,-1.4497,-1.6501,-1.8373,-1.9711,-2.2162,-2.4692,-2.5853,-2.7653,-2.9327,-3.0062,-2.9289,-2.7715,-2.5404,0.0,0.0,0.0,0.0,-1.6532,-1.7,0.0,0.0,0.0,0.0,0.0,0.0,0.0,0.0,0.0,0.0,0.0,0.0,0.0,0.0,0.0,0.0,-4.6982,-4.7593,-4.7932,-4.7971,-4.7495,-4.6892,-4.6543,-4.6474,-4.6377,-4.6125,-4.5788,-4.5397,-4.4897,-4.4481,-4.4174,-4.4035,-4.4035,-4.4007,0.0,-4.3512,-4.385,-4.3631,-4.3037,-4.2931,-4.2693,-4.2387,-4.1696,-4.1411,-4.1311,0.0,0.0,0.0,0.0,0.0,0.0,0.0,-0.9853,-0.9088,-0.9315,-0.8753,-0.8192,-0.7821,-0.7901,-0.7852,0.0,0.0,0.0,0.0,0.0,0.0,0.0,0.0,0.0,0.0,0.0,0.0,0.0,0.0,0.0,0.0,0.0,0.0,0.0,0.0,0.0,0.0,0.0,0.0,0.0,0.0,0.0,0.0,0.0,0.0,0.0,0.0,0.0,0.0,0.0,-1.1104,-1.1835,-1.4336,-1.6768,-1.8962,-2.0065,-2.3039,-2.6164,-2.6875,-2.8864,-3.0745,-3.0464,-2.9505,-2.7502,-2.3814,-2.1377,0.0,0.0,-1.5284,-1.5492,-1.6035,0.0,0.0,0.0,0.0,0.0,0.0,0.0,0.0,0.0,0.0,0.0,0.0,0.0,0.0,0.0,0.0,0.0,-4.7911,-4.7941,-4.7709,-4.7137,-4.66,-4.6228,-4.6036,-4.5872,-4.5523,-4.4937,-4.4937,-4.4646,-4.4121,-4.3996,-4.4104,-4.4216,-4.3859,0.0,0.0,-4.3356,-4.2827,-4.1658,-4.2371,-4.2387,-4.2079,-4.1597,-4.1311,-4.1311,0.0,0.0,0.0,0.0,0.0,0.0,0.0,-0.9853,-0.912,-0.9447,-0.8838,-0.8391,-0.8426,-0.853,-0.8541,0.0,0.0,0.0,0.0,0.0,0.0,0.0,0.0,0.0,0.0,0.0,0.0,0.0,0.0,0.0,0.0,0.0,0.0,0.0,0.0,0.0,0.0,0.0,0.0,0.0,0.0,0.0,0.0,0.0,0.0,0.0,0.0,0.0,0.0,0.0,0.0,-1.0991,-1.278,-1.5031,-1.7287,-1.9074,0.0,0.0,-2.7804,-2.9702,-3.1296,-3.1954,-3.0105,-2.7509,-2.4921,0.0,0.0,-1.5304,-1.5058,-1.5668,-1.6772,-1.8899,-2.1814,0.0,0.0,-2.8252,0.0,0.0,0.0,0.0,0.0,0.0,0.0,0.0,0.0,0.0,0.0,0.0,-4.8566,-4.7564,-4.6677,-4.6195,-4.561,-4.4925,-4.4297,-4.4202,-4.4065,-4.3778,-4.3778,-4.3959,-4.4443,-4.419,-4.4327,-4.4829,-4.4461,0.0,0.0,-4.3389,-4.2805,-4.1121,-4.2399,-4.2582,-4.2079,-4.1796,-4.1511,-4.1311,0.0,0.0,0.0,0.0,0.0,0.0,-1.1058,-0.972,-0.8961,-0.9846,-0.9318,-0.9004,-0.9457,-0.9342,-0.8984,0.0,0.0,0.0,0.0,0.0,0.0,0.0,0.0,0.0,0.0,0.0,0.0,0.0,0.0,0.0,0.0,0.0,0.0,0.0,0.0,0.0,0.0,0.0,0.0,0.0,0.0,0.0,0.0,0.0,0.0,0.0,0.0,0.0,0.0,0.0,0.0,0.0,-1.0809,-1.2456,0.0,0.0,-2.1845,-2.5317,-2.7662,-2.9937,-3.1717,-3.1847,-3.0308,-2.7835,-2.4071,0.0,0.0,-1.5534,-1.4846,-1.5111,-1.6334,-1.784,-2.0005,0.0,0.0,0.0,0.0,0.0,0.0,0.0,0.0,0.0,0.0,0.0,0.0,0.0,0.0,0.0,-4.7333,-4.7109,-4.6552,-4.551,-4.5267,-4.4755,-4.4035,-4.3818,-4.3818,-4.3832,-4.4097,-4.4305,-4.4456,-4.4594,-4.48,-4.5007,-4.4675,0.0,0.0,-4.3252,-4.2203,-3.9537,-4.1802,-4.2204,-4.1597,-4.1511,-4.1411,-4.1311,0.0,0.0,0.0,0.0,0.0,-1.0669,-1.1092,-0.9739,-0.9029,-1.0069,-0.9548,-0.9335,-0.9946,-0.9569,-0.9015,-0.8465,-0.8306,0.0,0.0,0.0,0.0,0.0,0.0,0.0,0.0,0.0,0.0,0.0,0.0,0.0,0.0,0.0,0.0,0.0,0.0,0.0,0.0,0.0,0.0,0.0,0.0,0.0,0.0,0.0,0.0,0.0,0.0,0.0,0.0,0.0,0.0,0.0,0.0,0.0,0.0,0.0,-2.03,-2.3984,-2.6325,-2.8993,-3.1138,-3.1249,-2.9626,-2.6993,0.0,0.0,0.0,-1.4866,-1.4616,-1.5052,-1.5542,-1.6968,-1.8891,-2.1403,0.0,-2.4393,0.0,0.0,0.0,0.0,0.0,0.0,0.0,0.0,0.0,0.0,0.0,0.0,-4.6074,-4.6436,-4.6189,-4.5046,-4.4847,-4.4476,-4.3846,-4.3628,-4.3533,-4.3655,-4.407,-4.3986,-4.3506,-4.4573,-4.471,-4.4165,-4.4587,0.0,0.0,-4.32,-4.1988,-3.8992,-4.1476,-4.2007,-4.1311,-4.1311,-4.1311,-4.1311,0.0,0.0,0.0,0.0,0.0,0.0,-1.1035,-1.0068,-0.9451,-0.995,-0.9424,-0.9161,-0.9547,-0.8896,-0.8537,-0.8859,-0.8952,0.0,0.0,0.0,0.0,0.0,0.0,0.0,0.0,0.0,0.0,0.0,0.0,0.0,0.0,0.0,0.0,0.0,0.0,0.0,0.0,0.0,0.0,0.0,0.0,0.0,0.0,0.0,0.0,0.0,0.0,0.0,0.0,0.0,0.0,0.0,0.0,0.0,0.0,0.0,-1.728,-2.1459,-2.3549,-2.6663,-2.9442,-3.0466,-2.7823,-2.4427,0.0,0.0,0.0,-1.2832,-1.4314,-1.5725,-1.453,-1.6698,-1.9212,-2.0855,-2.2525,0.0,0.0,0.0,0.0,0.0,0.0,0.0,0.0,0.0,0.0,0.0,0.0,0.0,-4.516,-4.535,-4.5336,-4.4797,-4.4317,-4.3737,-4.3273,-4.3259,-4.3177,-4.29,-4.3484,-4.2846,-4.1232,-4.3914,-4.3987,0.0,0.0,0.0,0.0,-4.3361,-4.2471,-4.0259,-4.1895,-4.2007,-4.1311,-4.1311,-4.1311,-4.1311,0.0,0.0,0.0,0.0,0.0,0.0,0.0,-0.9816,-0.9373,-0.9618,-0.9478,-0.9546,-1.0015,-0.9644,-0.937,-0.9447,-0.9102,0.0,0.0,0.0,0.0,0.0,0.0,0.0,0.0,0.0,0.0,0.0,0.0,0.0,0.0,0.0,0.0,0.0,0.0,0.0,0.0,0.0,0.0,0.0,0.0,0.0,0.0,0.0,0.0,0.0,0.0,0.0,0.0,0.0,0.0,0.0,0.0,0.0,0.0,0.0,0.0,0.0,-2.0205,-2.2718,-2.4882,-2.5265,-2.4204,-2.2475,-2.0324,0.0,0.0,0.0,-1.3621,-1.417,-1.417,-1.5627,-1.8012,-2.1614,-2.262,0.0,0.0,0.0,0.0,0.0,0.0,0.0,0.0,0.0,0.0,0.0,0.0,0.0,-4.4369,-4.4289,-4.4181,-4.3993,-4.3993,-4.3723,-4.2984,-4.2984,-4.308,-4.319,-4.4017,-4.3133,-4.0896,-4.4048,-4.3966,0.0,0.0,0.0,0.0,-4.3395,-4.2547,-4.0272,-4.1689,-4.1895,-4.1311,-4.1311,-4.1311,-4.1311,0.0,0.0,0.0,0.0,0.0,0.0,0.0,-0.9686,-0.9283,-0.9197,-0.9193,-0.9381,-0.991,-0.9631,-0.9435,-0.9518,-0.9091,0.0,0.0,0.0,0.0,0.0,0.0,0.0,0.0,0.0,0.0,0.0,0.0,0.0,0.0,0.0,0.0,0.0,0.0,0.0,0.0,0.0,0.0,0.0,0.0,0.0,-1.1653,0.0,0.0,0.0,0.0,0.0,0.0,0.0,0.0,0.0,0.0,0.0,0.0,0.0,-1.2788,0.0,0.0,-2.0251,-2.1982,-2.2426,-2.1699,0.0,0.0,0.0,0.0,0.0,0.0,0.0,-1.441,-1.5938,-1.8129,-2.0685,-2.2079,0.0,0.0,0.0,0.0,0.0,0.0,0.0,0.0,0.0,0.0,0.0,0.0,0.0,-4.4153,-4.3804,-4.3505,-4.3328,-4.3519,-4.3341,-4.2887,-4.2887,-4.2984,-4.319,-4.3976,-4.2997,-4.0609,-4.3813,-4.3718,0.0,0.0,0.0,0.0,-4.352,-4.2808,-4.122,-4.1944,-4.1895,-4.1311,-4.1311,-4.1311,-4.1311,0.0,0.0,0.0,0.0,0.0,0.0,0.0,-0.972,-0.9262,-0.8811,-0.8806,-0.8983,-0.9384,-0.902,-0.8864,-0.9122,0.0,0.0,0.0,0.0,0.0,0.0,0.0,0.0,0.0,0.0,0.0,0.0,-1.0541,-1.109,-1.1582,0.0,0.0,0.0,0.0,0.0,0.0,0.0,0.0,0.0,0.0,0.0,0.0,0.0,0.0,0.0,0.0,0.0,0.0,0.0,0.0,0.0,0.0,0.0,0.0,0.0,0.0,0.0,0.0,0.0,0.0,0.0,0.0,0.0,0.0,0.0,0.0,0.0,0.0,0.0,0.0,-1.7455,-1.9305,-1.8855,-2.1226,0.0,0.0,0.0,0.0,0.0,0.0,0.0,0.0,0.0,0.0,0.0,0.0,0.0,-4.4317,-4.3804,-4.3328,-4.2887,-4.2887,-4.2887,-4.2887,-4.2887,-4.2819,-4.2711,-4.343,-4.2426,-4.0038,-4.3199,-4.3106,0.0,0.0,0.0,0.0,-4.3614,-4.3245,-4.279,-4.2498,-4.1908,-4.1311,-4.1311,-4.1285,-4.1259,0.0,0.0,0.0,0.0,0.0,0.0,0.0,0.0,0.0,0.0,-0.9694,-0.9858,-0.9642,-0.9477,-0.9222,0.0,0.0,0.0,0.0,0.0,0.0,0.0,0.0,0.0,0.0,0.0,0.0,-0.9962,-1.0883,-1.1628,-1.2213,-1.3217,0.0,0.0,0.0,0.0,0.0,0.0,0.0,0.0,0.0,0.0,0.0,0.0,0.0,0.0,-1.1112,-1.1171,0.0,0.0,0.0,0.0,0.0,0.0,0.0,0.0,-1.1962,-1.2459,-1.3842,0.0,-1.5167,-1.5421,-1.5451,0.0,0.0,0.0,0.0,0.0,0.0,0.0,0.0,0.0,0.0,0.0,0.0,0.0,0.0,0.0,0.0,0.0,0.0,0.0,0.0,0.0,0.0,0.0,0.0,-4.4129,-4.3273,-4.3163,-4.297,-4.2887,-4.2887,-4.2887,-4.2887,-4.2887,-4.2195,-4.0838,-4.2833,-4.1557,-3.7596,-4.1991,-4.2358,0.0,0.0,0.0,-4.3465,-4.297,-4.2693,-4.2511,-4.1809,-4.1524,-4.1311,-4.1311,-4.1023,-4.0697,0.0,0.0,0.0,0.0,0.0,0.0,0.0,0.0,0.0,0.0,0.0,0.0,0.0,0.0,0.0,0.0,0.0,0.0,0.0,0.0,0.0,0.0,0.0,0.0,0.0,0.0,0.0,0.0,0.0,-1.2165,0.0,0.0,0.0,0.0,0.0,0.0,0.0,0.0,0.0,0.0,-1.2432,0.0,0.0,0.0,0.0,0.0,-1.1751,-1.1808,0.0,-1.2235,-1.2608,-1.2942,0.0,0.0,0.0,0.0,-1.2239,-1.2363,-1.2799,-1.3374,-1.4078,-1.4996,-1.5296,-1.5557,0.0,0.0,0.0,0.0,0.0,0.0,0.0,0.0,0.0,0.0,0.0,0.0,0.0,0.0,0.0,0.0,0.0,0.0,0.0,0.0,0.0,0.0,0.0,-4.3912,-4.33,-4.3053,-4.2887,-4.2887,-4.2887,-4.2887,-4.2887,-4.2887,-4.1978,-4.0214,-4.2344,-4.1571,-3.8369,-4.1802,-4.248,0.0,0.0,0.0,-4.2778,-4.141,-4.1325,-4.2105,-4.161,-4.1411,-4.1311,-4.1311,-4.1102,-4.088,0.0,0.0,0.0,0.0,0.0,0.0,0.0,0.0,0.0,0.0,0.0,0.0,0.0,0.0,0.0,0.0,0.0,0.0,0.0,0.0,0.0,0.0,0.0,0.0,0.0,0.0,0.0,0.0,0.0,0.0,0.0,0.0,0.0,0.0,0.0,0.0,0.0,0.0,0.0,0.0,-1.2333,0.0,0.0,0.0,0.0,0.0,0.0,0.0,0.0,-1.3541,-1.4103,-1.431,-1.3878,0.0,0.0,0.0,0.0,0.0,-1.2765,-1.3823,-1.5188,-1.6678,-1.6764,-1.6836,0.0,0.0,0.0,0.0,0.0,0.0,0.0,0.0,0.0,0.0,0.0,0.0,0.0,0.0,0.0,0.0,0.0,0.0,0.0,0.0,0.0,0.0,0.0,-4.3804,-4.3531,-4.3136,-4.2887,-4.2887,-4.2887,-4.2887,-4.2887,-4.2887,-4.1978,-4.0201,-4.2019,-4.1937,-4.0241,-4.2059,-4.2887,-4.2778,0.0,0.0,-4.231,-4.0227,-4.0199,-4.1597,-4.1597,-4.1511,-4.1311,-4.1311,-4.1259,-4.1167,0.0,0.0,0.0,0.0,0.0,0.0,0.0,0.0,0.0,0.0,0.0,0.0,0.0,0.0,0.0,0.0,0.0,0.0,0.0,0.0,0.0,0.0,0.0,0.0,0.0,0.0,0.0,0.0,0.0,0.0,-1.3624,-1.5156,-1.5282,0.0,0.0,0.0,0.0,-1.3192,-1.3179,-1.2932,-1.3276,0.0,0.0,0.0,0.0,0.0,0.0,0.0,0.0,-1.2665,-1.3463,-1.4459,-1.4259,0.0,0.0,0.0,0.0,0.0,-1.3824,-1.5319,-1.6692,-1.6082,-1.6222,-1.6725,0.0,0.0,0.0,0.0,0.0,0.0,0.0,0.0,0.0,0.0,0.0,0.0,0.0,0.0,0.0,0.0,0.0,0.0,0.0,0.0,0.0,0.0,0.0,-4.3423,-4.3053,-4.297,-4.2887,-4.2887,-4.2887,-4.2887,-4.2887,-4.2887,-4.1978,-4.0201,-4.2019,-4.1937,-4.0241,-4.2059,-4.2887,-4.2873,0.0,-4.2051,-4.215,-4.1497,-4.1281,-4.1311,-4.1311,-4.1311,-4.1311,-4.1311,-4.0997,-4.0488,0.0,0.0,0.0,0.0,0.0,0.0,0.0,0.0,0.0,0.0,0.0,0.0,0.0,0.0,0.0,0.0,0.0,0.0,0.0,0.0,0.0,0.0,0.0,0.0,0.0,0.0,0.0,0.0,0.0,-1.45,-1.4589,-1.5136,-1.4924,-1.4129,0.0,0.0,0.0,-1.3435,-1.3594,-1.3421,0.0,0.0,0.0,0.0,0.0,0.0,0.0,0.0,0.0,0.0,-1.3817,-1.4835,-1.4572,0.0,0.0,0.0,0.0,0.0,-1.4708,-1.5905,-1.7239,-1.7665,-1.8142,0.0,0.0,0.0,0.0,0.0,0.0,0.0,0.0,0.0,0.0,0.0,0.0,0.0,0.0,0.0,0.0,0.0,0.0,0.0,0.0,0.0,0.0,0.0,0.0,0.0,-4.2887,-4.2887,-4.2887,-4.2887,-4.2887,-4.2887,-4.2887,-4.2887,-4.1978,-4.0201,-4.2019,-4.1937,-4.0241,-4.176,-4.2484,-4.2404,0.0,-4.0426,-4.1193,-4.0048,-4.0076,-4.0909,-4.1211,-4.1311,-4.1311,-4.1311,-4.1141,-4.0867,0.0,0.0,0.0,0.0,0.0,0.0,0.0,0.0,0.0,0.0,0.0,0.0,0.0,0.0,0.0,0.0,0.0,0.0,0.0,0.0,0.0,0.0,0.0,0.0,0.0,0.0,0.0,-1.4105,-1.4849,-1.5357,-1.5633,-1.4869,-1.4358,0.0,0.0,0.0,0.0,-1.3668,-1.4001,-1.4163,0.0,0.0,0.0,0.0,0.0,0.0,0.0,0.0,0.0,0.0,0.0,0.0,0.0,0.0,0.0,-1.458,-1.4661,-1.5036,-1.5414,-1.6364,-1.7683,-1.9291,0.0,0.0,0.0,0.0,0.0,0.0,0.0,0.0,0.0,0.0,0.0,0.0,0.0,0.0,0.0,0.0,0.0,0.0,0.0,0.0,0.0,0.0,0.0,0.0,0.0,0.0,-4.2695,-4.2846,-4.286,-4.2695,-4.286,-4.2887,-4.2887,-4.2887,-4.2195,-4.0838,-4.2222,-4.2154,-4.0865,-4.1756,-4.2079,-4.1972,-3.9485,-3.9265,-4.0363,-3.9006,-3.9233,-4.0504,-4.111,-4.1311,-4.1311,-4.1311,-4.1311,-4.1311,0.0,0.0,0.0,0.0,0.0,0.0,0.0,0.0,0.0,0.0,0.0,0.0,0.0,0.0,0.0,0.0,0.0,0.0,0.0,0.0,0.0,0.0,0.0,0.0,0.0,-1.3385,-1.3876,-1.4646,-1.5645,-1.6068,-1.6033,-1.4638,-1.4016,-1.4089,0.0,0.0,0.0,-1.4181,-1.4635,-1.5146,-1.5434,0.0,0.0,0.0,0.0,0.0,0.0,0.0,0.0,0.0,0.0,0.0,0.0,0.0,-1.527,-1.4933,-1.5017,-1.5304,-1.5954,-1.7105,-1.8464,-1.9978,0.0,0.0,0.0,0.0,0.0,0.0,0.0,0.0,0.0,0.0,0.0,0.0,0.0,0.0,0.0,0.0,0.0,0.0,0.0,0.0,0.0,0.0,0.0,0.0,0.0,0.0,-4.2121,-4.2641,-4.2668,-4.2108,-4.2655,-4.2887,-4.2887,-4.2887,-4.2819,-4.2697,-4.2833,-4.2819,-4.2697,-4.2319,-4.2079,-4.2065,-4.1102,-4.064,-4.0491,-4.0614,-4.064,-4.0504,-4.111,-4.1311,-4.1311,-4.1311,-4.1311,-4.1311,0.0,0.0,0.0,0.0,0.0,0.0,0.0,0.0,0.0,0.0,0.0,0.0,0.0,0.0,0.0,0.0,0.0,0.0,0.0,0.0,0.0,0.0,0.0,-1.246,-1.3279,-1.3947,-1.4553,-1.5054,-1.5348,-1.5487,-1.5476,-1.4898,0.0,0.0,0.0,0.0,0.0,-1.4661,-1.5259,-1.5657,-1.582,-1.5517,0.0,0.0,0.0,0.0,0.0,0.0,0.0,0.0,-1.4275,-1.4863,-1.5197,-1.5518,-1.5776,-1.5588,-1.5901,-1.6399,-1.6692,-1.7634,-1.8934,-2.0406,0.0,0.0,0.0,0.0,0.0,0.0,0.0,0.0,0.0,0.0,0.0,0.0,0.0,0.0,0.0,0.0,0.0,0.0,0.0,0.0,0.0,0.0,0.0,0.0,0.0,0.0,-4.1437,-4.1666,-4.168,-4.145,-4.1666,-4.1815,-4.1788,-4.1788,-4.1584,-4.1218,-4.2043,-4.2283,-4.2016,-4.1142,-4.0664,-4.0557,-4.0197,-4.004,-3.9979,-4.064,-4.0883,-4.0795,-4.111,-4.1311,-4.1311,-4.1311,-4.0989,-4.0616,0.0,0.0,0.0,0.0,0.0,0.0,0.0,0.0,0.0,0.0,0.0,0.0,0.0,0.0,0.0,0.0,0.0,0.0,0.0,0.0,0.0,0.0,0.0,-1.2871,-1.3477,-1.4258,-1.4751,-1.5068,-1.5084,-1.5108,-1.5153,0.0,0.0,0.0,0.0,0.0,0.0,0.0,-1.5806,-1.6258,-1.6379,-1.6051,0.0,0.0,0.0,0.0,0.0,0.0,0.0,0.0,-1.4587,-1.5062,-1.5247,-1.5671,-1.6086,-1.6269,-1.6434,-1.6566,-1.6817,-1.7464,-1.8448,0.0,0.0,0.0,0.0,0.0,0.0,0.0,0.0,0.0,0.0,0.0,0.0,0.0,0.0,0.0,0.0,0.0,0.0,0.0,0.0,0.0,0.0,0.0,0.0,0.0,0.0,0.0,0.0,-4.1018,-4.1004,-4.0786,-4.0884,-4.0965,-4.1123,-4.1017,-4.0707,-4.0302,-4.0946,-4.112,-4.075,-3.9803,-3.9329,-3.9351,-3.9231,-3.9265,-3.9428,-4.0385,-4.0896,-4.0997,-4.1097,-4.1198,-4.1198,-4.1198,-4.075,-4.024,0.0,0.0,0.0,0.0,0.0,0.0,0.0,0.0,0.0,0.0,0.0,0.0,0.0,0.0,0.0,0.0,0.0,0.0,0.0,0.0,0.0,0.0,0.0,-1.3283,-1.3865,-1.432,-1.4514,-1.4514,-1.4911,-1.5153,-1.53,-1.51,0.0,0.0,0.0,0.0,0.0,0.0,-1.6198,-1.7012,-1.7283,-1.6853,-1.6038,0.0,0.0,0.0,0.0,0.0,0.0,0.0,-1.6073,-1.5881,-1.7106,-1.6799,-1.6171,-1.7042,-1.6441,-1.5644,-1.6245,-1.6402,0.0,0.0,0.0,0.0,0.0,0.0,0.0,0.0,0.0,0.0,0.0,0.0,0.0,0.0,0.0,0.0,0.0,0.0,0.0,0.0,0.0,0.0,0.0,0.0,0.0,0.0,0.0,0.0,0.0,-4.0761,-4.0773,-4.0154,-4.0534,-4.079,-4.1096,-4.079,-4.0589,-4.0401,-3.982,-3.9415,-3.8962,-3.8226,-3.8174,-3.8642,-3.8459,-3.8519,-3.8915,-4.003,-4.0795,-4.1298,-4.0971,-4.087,-4.087,-4.087,-4.0681,-4.0414,0.0,0.0,0.0,0.0,0.0,0.0,0.0,0.0,0.0,0.0,0.0,0.0,0.0,0.0,0.0,0.0,0.0,0.0,0.0,0.0,0.0,0.0,0.0,0.0,0.0,0.0,-1.515,-1.5201,-1.5297,-1.5513,0.0,0.0,0.0,-1.6268,0.0,0.0,0.0,0.0,0.0,-1.7491,-1.7447,-1.7276,-1.7035,0.0,0.0,0.0,0.0,0.0,0.0,0.0,0.0,0.0,-1.5885,-1.6411,-1.6973,-1.7344,-1.7338,-1.7379,-1.7965,-1.8166,0.0,0.0,0.0,0.0,0.0,0.0,0.0,0.0,0.0,0.0,0.0,0.0,0.0,0.0,0.0,0.0,0.0,0.0,0.0,0.0,0.0,0.0,0.0,0.0,0.0,0.0,0.0,0.0,0.0,-3.9224,-3.9275,-3.9077,-3.9328,-3.9409,-3.9304,-3.9069,-3.8675,-3.8211,-3.7505,-3.7599,-3.8555,-3.7994,-3.7677,-3.7577,-3.798,-3.814,-3.83,-3.9005,-3.9398,-3.9483,-3.9483,-3.9385,-3.9436,-3.9848,-3.9658,-3.9104,0.0,0.0,0.0,0.0,0.0,0.0,0.0,0.0,0.0,0.0,0.0,0.0,0.0,0.0,0.0,0.0,0.0,0.0,0.0,0.0,0.0,0.0,0.0,0.0,0.0,-1.4894,-1.555,0.0,0.0,0.0,0.0,0.0,0.0,-1.709,0.0,-1.7689,0.0,0.0,0.0,-1.7658,-1.7945,-1.7949,-1.7781,0.0,0.0,0.0,0.0,0.0,0.0,0.0,0.0,0.0,-1.5708,0.0,0.0,-1.7181,-1.7231,-1.7491,-1.7768,0.0,0.0,0.0,0.0,0.0,0.0,0.0,0.0,0.0,0.0,0.0,0.0,0.0,0.0,0.0,0.0,0.0,0.0,0.0,0.0,0.0,0.0,0.0,0.0,0.0,0.0,0.0,0.0,0.0,0.0,-3.8145,-3.8185,-3.7923,-3.8376,-3.8496,-3.8242,-3.8314,-3.798,-3.7338,-3.6959,-3.7066,-3.7608,-3.6973,-3.6705,-3.6814,-3.739,-3.7807,-3.8133,-3.8319,-3.8498,-3.8787,-3.8689,-3.8605,-3.8643,-3.9098,-3.8812,-3.8313,0.0,0.0,0.0,0.0,0.0,0.0,0.0,0.0,0.0,0.0,0.0,0.0,0.0,0.0,0.0,0.0,0.0,0.0,0.0,0.0,0.0,0.0,0.0,0.0,0.0,0.0,0.0,0.0,0.0,0.0,0.0,0.0,-1.7689,-1.8261,0.0,-1.8652,0.0,0.0,0.0,0.0,-1.8604,-1.8706,-1.8392,-1.8794,0.0,0.0,0.0,0.0,0.0,0.0,0.0,0.0,-1.6274,-1.7029,-1.7763,-1.6842,-1.6591,-1.6578,0.0,0.0,0.0,0.0,0.0,0.0,0.0,0.0,0.0,0.0,0.0,0.0,0.0,0.0,0.0,0.0,0.0,0.0,0.0,0.0,0.0,0.0,0.0,0.0,0.0,0.0,0.0,0.0,0.0,0.0,0.0,-3.7243,-3.7276,-3.687,-3.7603,-3.7881,-3.7528,-3.802,-3.7938,-3.735,-3.7495,-3.7114,-3.6276,-3.5734,-3.5775,-3.6378,-3.6798,-3.7508,-3.8231,-3.7724,-3.7896,-3.8536,-3.8354,-3.8171,-3.8171,-3.8222,-3.8136,-3.7939,0.0,0.0,0.0,0.0,0.0,0.0,0.0,0.0,0.0,0.0,0.0,0.0,0.0,0.0,0.0,0.0,0.0,0.0,0.0,0.0,0.0,0.0,0.0,0.0,0.0,0.0,0.0,0.0,0.0,0.0,0.0,0.0,0.0,-1.855,0.0,-1.9379,0.0,0.0,0.0,0.0,-1.8503,-1.8819,-1.9384,-1.8656,-1.8581,0.0,0.0,0.0,0.0,0.0,0.0,0.0,-1.6827,-1.7078,-1.7339,-1.7102,-1.7097,-1.7533,0.0,0.0,0.0,0.0,0.0,0.0,0.0,0.0,0.0,0.0,0.0,0.0,0.0,0.0,0.0,0.0,0.0,0.0,0.0,0.0,0.0,0.0,0.0,0.0,0.0,0.0,0.0,0.0,0.0,0.0,-3.6293,-3.6044,-3.6048,-3.6297,-3.627,-3.6335,-3.6468,-3.6153,-3.597,0.0,-3.5711,-3.544,-3.509,-3.581,-3.6256,-3.637,-3.6496,-3.6685,-3.6804,-3.6691,-3.6799,-3.69,-3.6804,-3.6817,-3.6867,-3.7308,-3.7556,-3.7728,0.0,0.0,0.0,0.0,0.0,0.0,0.0,0.0,0.0,0.0,0.0,0.0,0.0,0.0,0.0,0.0,0.0,0.0,0.0,0.0,0.0,0.0,0.0,0.0,0.0,0.0,0.0,0.0,0.0,0.0,0.0,0.0,0.0,-1.8885,0.0,-1.9379,0.0,0.0,0.0,0.0,-1.8684,-1.9067,-1.9547,-1.9132,-1.9145,-1.9321,-1.8744,0.0,0.0,0.0,0.0,0.0,0.0,0.0,-1.7501,-1.7023,-1.7111,-1.7542,0.0,0.0,0.0,0.0,0.0,0.0,0.0,0.0,0.0,0.0,0.0,0.0,0.0,0.0,0.0,0.0,0.0,0.0,0.0,0.0,0.0,0.0,0.0,0.0,0.0,0.0,0.0,0.0,0.0,-3.562,-3.4958,-3.5227,-3.5349,-3.5128,-3.5574,-3.5642,-3.537,-3.5505,-3.5473,-3.5264,-3.5264,-3.5085,-3.4738,-3.5316,-3.573,-3.5968,-3.5968,-3.6119,-3.6358,-3.6358,-3.6358,-3.6358,-3.6358,-3.6358,-3.6395,-3.6684,-3.6975,-3.7254,0.0,0.0,0.0,0.0,0.0,0.0,0.0,0.0,0.0,0.0,0.0,0.0,0.0,0.0,0.0,0.0,0.0,0.0,0.0,0.0,0.0,0.0,0.0,0.0,0.0,0.0,0.0,0.0,0.0,0.0,0.0,0.0,0.0,-1.9472,0.0,0.0,0.0,0.0,0.0,0.0,-1.8831,-1.9277,-1.9481,-1.9585,-1.9723,-1.9798,-1.9698,-1.9333,-1.8909,-1.846,0.0,0.0,0.0,0.0,-1.7837,-1.6917,-1.6985,-1.7297,0.0,0.0,0.0,0.0,0.0,0.0,0.0,0.0,0.0,0.0,0.0,0.0,0.0,0.0,0.0,0.0,0.0,0.0,0.0,0.0,0.0,0.0,0.0,0.0,0.0,0.0,0.0,0.0,0.0,-3.434,-3.3372,-3.4095,-3.427,-3.372,-3.4598,-3.4783,-3.4161,-3.4783,-3.4928,-3.4515,-3.478,-3.4832,-3.4575,-3.4487,-3.4788,-3.5403,-3.5504,-3.5805,-3.6219,-3.632,-3.6358,-3.6358,-3.6358,-3.6358,-3.6358,-3.6358,-3.6534,-3.6785,0.0,0.0,0.0,0.0,0.0,0.0,0.0,0.0,0.0,0.0,0.0,0.0,0.0,0.0,0.0,0.0,0.0,0.0,0.0,0.0,0.0,0.0,0.0,0.0,0.0,0.0,0.0,0.0,0.0,0.0,0.0,0.0,0.0,-2.0517,0.0,0.0,0.0,0.0,0.0,0.0,0.0,-1.9016,-2.0029,-1.9384,-1.9409,-1.9748,-1.9296,-1.9371,-1.9685,-1.9559,-1.9183,0.0,0.0,0.0,-1.8078,-1.7451,-1.7316,0.0,0.0,0.0,0.0,0.0,0.0,0.0,0.0,0.0,0.0,0.0,0.0,0.0,0.0,0.0,0.0,0.0,0.0,0.0,0.0,0.0,0.0,0.0,0.0,0.0,0.0,0.0,0.0,0.0,-3.2418,-3.2426,-3.2324,-3.1852,-3.1814,-3.2128,-3.201,-3.213,-3.2461,-3.2388,-3.2263,-3.2263,-3.2483,-3.3142,-3.3985,-3.352,-3.3859,-3.4864,-3.5341,-3.5592,-3.5692,-3.6157,-3.6358,-3.6358,-3.6358,-3.6358,-3.6358,-3.6358,-3.6534,-3.6734,0.0,0.0,0.0,0.0,0.0,0.0,0.0,0.0,0.0,0.0,0.0,0.0,0.0,0.0,0.0,0.0,0.0,0.0,0.0,0.0,0.0,0.0,-1.3198,0.0,0.0,0.0,0.0,0.0,0.0,0.0,0.0,-2.1644,-2.1644,0.0,0.0,0.0,0.0,0.0,0.0,0.0,0.0,0.0,0.0,0.0,-1.9422,-1.9334,-1.9058,-1.9171,-1.9321,-1.9007,-1.8957,-1.8983,-1.8983,0.0,0.0,0.0,-1.7591,0.0,0.0,0.0,0.0,0.0,0.0,0.0,0.0,0.0,0.0,0.0,0.0,0.0,0.0,0.0,0.0,0.0,0.0,0.0,0.0,0.0,0.0,0.0,0.0,0.0,0.0,0.0,0.0,0.0,-3.147,-3.1771,-3.1455,-3.1428,-3.163,-3.1805,-3.1562,-3.1468,-3.1711,-3.1643,-3.1562,-3.1562,-3.1719,-3.2177,-3.2943,-3.2704,-3.3206,-3.4274,-3.4512,-3.4977,-3.5567,-3.5805,-3.6081,-3.6358,-3.6358,-3.6358,-3.6358,-3.6358,-3.6534,-3.6722,0.0,0.0,0.0,0.0,0.0,0.0,0.0,0.0,0.0,0.0,0.0,0.0,0.0,0.0,0.0,0.0,0.0,0.0,0.0,0.0,0.0,-1.3459,-1.3288,-1.3594,-1.4397,0.0,0.0,0.0,0.0,0.0,-2.2121,-2.3113,-2.3414,0.0,-2.3489,0.0,0.0,0.0,0.0,0.0,0.0,0.0,0.0,0.0,0.0,0.0,-1.8933,-1.8983,-1.8933,-1.8706,-1.8882,-1.9221,-1.9221,-1.8945,0.0,0.0,0.0,0.0,0.0,0.0,0.0,0.0,0.0,0.0,0.0,0.0,0.0,0.0,0.0,0.0,0.0,0.0,0.0,0.0,0.0,0.0,0.0,0.0,0.0,0.0,0.0,0.0,0.0,0.0,0.0,0.0,-3.0528,-3.0952,-3.0519,-3.0922,-3.1145,-3.1225,-3.1065,-3.0984,-3.0984,-3.0984,-3.1047,-3.1198,-3.1198,-3.1474,-3.2001,-3.2152,-3.2679,-3.3483,-3.3771,-3.4361,-3.514,-3.5278,-3.5655,-3.6157,-3.6157,-3.6232,-3.6358,-3.6358,-3.6452,-3.6628,0.0,0.0,0.0,0.0,0.0,0.0,0.0,0.0,0.0,0.0,0.0,0.0,0.0,0.0,0.0,-1.2075,0.0,0.0,0.0,0.0,0.0,-1.3581,-1.3581,0.0,-1.5209,0.0,0.0,0.0,0.0,0.0,-2.1581,-2.3728,-2.4983,-2.5423,-2.5286,-2.4325,-2.257,0.0,0.0,0.0,-2.0204,-1.9598,-1.9351,0.0,0.0,0.0,0.0,-1.8983,-1.9046,-1.956,-1.9736,-1.9761,-1.9761,-1.9748,-1.9522,0.0,0.0,0.0,0.0,0.0,0.0,0.0,0.0,0.0,0.0,0.0,0.0,0.0,0.0,0.0,0.0,0.0,0.0,0.0,0.0,0.0,0.0,0.0,0.0,0.0,0.0,0.0,0.0,0.0,0.0,0.0,-2.9199,-2.9332,-2.9473,-2.9332,-2.9361,-2.9506,-2.9777,-2.988,-2.988,-2.988,-3.0143,-3.0658,-3.0658,-3.0922,-3.1449,-3.1976,-3.224,-3.2353,-3.3432,-3.3935,-3.4022,-3.455,-3.509,-3.5592,-3.5592,-3.5906,-3.6358,-3.6358,-3.6452,-3.6452,0.0,0.0,0.0,0.0,0.0,0.0,0.0,0.0,0.0,0.0,0.0,0.0,0.0,-1.3748,-1.3164,-1.2043,-1.1963,0.0,0.0,0.0,0.0,-1.3568,-1.3861,-1.4403,-1.5298,0.0,0.0,0.0,0.0,-1.8606,-2.0991,-2.2498,-2.3703,-2.4644,-2.5975,-2.4853,-2.2058,-2.2482,0.0,0.0,-2.041,-2.0106,-1.9194,0.0,0.0,0.0,0.0,0.0,0.0,0.0,-1.9522,-1.9798,-1.9798,-1.9798,-1.9597,-1.8518,-1.7677,-1.7282,-1.8084,0.0,0.0,0.0,0.0,0.0,0.0,0.0,0.0,0.0,0.0,0.0,0.0,0.0,0.0,0.0,0.0,0.0,0.0,0.0,0.0,0.0,0.0,0.0,0.0,0.0,0.0,0.0,0.0,-2.856,-2.9381,-2.8661,-2.8674,-2.9664,-2.9599,-2.9437,-2.9239,-2.9239,-2.934,-2.9541,-2.9905,-3.0369,-3.0896,-3.1097,-3.1562,-3.224,-3.2641,-3.3219,-3.3935,-3.45,-3.5052,-3.5579,-3.5931,-3.5875,-3.5681,-3.6232,-3.5956,-3.5424,0.0,0.0,0.0,0.0,0.0,0.0,0.0,0.0,0.0,0.0,0.0,0.0,0.0,0.0,-1.3218,-1.2316,-1.1961,-1.1983,-1.2423,-1.2526,-1.291,-1.3689,-1.3908,-1.4475,0.0,0.0,0.0,0.0,0.0,0.0,0.0,-2.0978,-2.2159,-2.2987,-2.4937,-2.4711,0.0,0.0,0.0,-2.0495,0.0,-2.1006,-1.9939,0.0,0.0,0.0,0.0,0.0,0.0,0.0,0.0,-2.0614,-2.0426,-1.9987,-1.9397,-1.8694,-1.8091,-1.7785,-1.8185,0.0,0.0,0.0,0.0,0.0,0.0,0.0,0.0,0.0,0.0,0.0,0.0,0.0,0.0,0.0,0.0,0.0,0.0,0.0,0.0,0.0,0.0,0.0,0.0,0.0,0.0,0.0,0.0,0.0,-2.9384,-2.875,-2.8712,-2.9478,-2.9512,-2.9337,-2.8938,-2.8925,-2.8925,-2.8925,-2.9126,-2.9515,-3.0055,-3.0256,-3.0834,-3.17,-3.2051,-3.2742,-3.3658,-3.4022,-3.45,-3.5052,-3.5499,-3.5506,-3.5326,-3.5981,-3.5767,-3.5293,0.0,0.0,0.0,0.0,0.0,0.0,0.0,0.0,0.0,0.0,0.0,0.0,0.0,0.0,0.0,-1.2807,-1.2332,-1.216,-1.2336,-1.2833,-1.3395,-1.4007,0.0,0.0,0.0,0.0,0.0,0.0,0.0,0.0,0.0,0.0,-2.0605,0.0,-2.2297,-2.3838,-2.5293,0.0,-2.5416,-2.4565,0.0,-2.2262,-2.1632,0.0,0.0,0.0,-2.2967,-2.3118,0.0,-2.3653,0.0,0.0,0.0,-2.0338,-1.8995,-1.8983,-1.8643,-1.8229,0.0,0.0,0.0,0.0,0.0,0.0,0.0,0.0,0.0,0.0,0.0,0.0,0.0,0.0,0.0,0.0,0.0,0.0,0.0,0.0,0.0,0.0,0.0,0.0,0.0,0.0,0.0,0.0,-2.8602,-2.8605,-2.9356,-2.9394,-2.9235,-2.8925,-2.9453,-2.9478,-2.8913,-2.89,-2.8913,-2.8925,-2.8386,-2.8411,-2.895,-2.9515,-3.0068,-3.0658,-3.1712,-3.2503,-3.3056,-3.3081,-3.342,-3.3947,-3.4242,-3.4698,-3.5233,-3.5792,-3.5991,-3.5904,0.0,0.0,0.0,0.0,0.0,0.0,0.0,0.0,0.0,0.0,0.0,0.0,0.0,0.0,-1.4547,-1.3308,-1.354,-1.3619,-1.3335,-1.3531,-1.4071,-1.4951,-1.517,-1.5556,0.0,0.0,0.0,0.0,0.0,0.0,0.0,0.0,0.0,0.0,-1.9999,-2.0944,-2.153,-2.3737,0.0,0.0,-2.3015,-2.2597,0.0,0.0,0.0,0.0,0.0,-2.3916,-2.418,0.0,-2.3577,-2.2071,0.0,0.0,-1.951,-1.9083,-1.887,-1.8719,-1.8317,0.0,0.0,0.0,0.0,0.0,0.0,0.0,0.0,0.0,0.0,0.0,0.0,0.0,0.0,0.0,0.0,0.0,0.0,0.0,0.0,0.0,0.0,0.0,0.0,0.0,0.0,0.0,-2.8087,-2.8026,-2.9026,-2.9038,-2.8825,-2.8348,-2.8486,-2.8499,-2.8335,-2.8335,-2.8536,-2.8925,-2.8775,-2.8787,-2.8938,-2.9089,-2.9478,-3.0055,-3.0758,-3.1587,-3.2516,-3.3332,-3.3583,-3.3529,-3.4587,-3.4533,-3.391,-3.4834,-3.4841,-3.4532,0.0,0.0,0.0,0.0,0.0,0.0,0.0,0.0,0.0,0.0,0.0,0.0,0.0,0.0,0.0,-1.4362,-1.4539,-1.4524,-1.4137,-1.4174,-1.45,-1.5259,-1.5296,-1.5627,0.0,0.0,0.0,0.0,0.0,0.0,0.0,0.0,0.0,0.0,0.0,0.0,0.0,0.0,0.0,0.0,-2.3044,0.0,0.0,-2.3816,-2.4129,0.0,0.0,0.0,-2.6578,-2.6816,-2.5322,0.0,0.0,0.0,0.0,-1.9907,-1.9458,-1.8796,-1.8246,0.0,0.0,0.0,0.0,0.0,-1.5819,-1.8392,0.0,0.0,0.0,0.0,0.0,0.0,0.0,0.0,0.0,0.0,0.0,0.0,0.0,0.0,0.0,0.0,0.0,-2.757,-2.7706,-2.8486,-2.7989,-2.799,-2.8825,-2.8674,-2.8335,-2.777,-2.7984,-2.7996,-2.777,-2.7996,-2.8147,-2.8247,-2.8247,-2.8247,-2.8247,-2.8486,-2.89,-2.9478,-3.0111,-3.0854,-3.1785,-3.2401,-3.2721,-3.2953,-3.4139,-3.4003,-3.3425,-3.4564,-3.4761,-3.4497,0.0,0.0,0.0,0.0,0.0,0.0,0.0,0.0,0.0,0.0,0.0,0.0,0.0,0.0,0.0,0.0,-1.5491,-1.5222,-1.4949,-1.4829,-1.4947,-1.5312,-1.4923,-1.5199,-1.6308,0.0,0.0,0.0,0.0,0.0,0.0,0.0,0.0,0.0,0.0,0.0,0.0,0.0,0.0,-2.3356,-2.3144,-2.4225,0.0,0.0,-2.632,-2.6352,-2.8698,-2.9155,-2.8825,-2.934,-2.7582,0.0,0.0,0.0,0.0,0.0,-2.0002,0.0,0.0,0.0,0.0,0.0,0.0,0.0,-1.6641,-1.867,-2.0602,0.0,0.0,0.0,0.0,0.0,0.0,0.0,0.0,0.0,0.0,0.0,0.0,0.0,0.0,0.0,-2.7705,-2.6872,-2.6742,-2.7895,-2.8039,-2.8164,-2.8637,-2.8247,-2.7758,-2.7205,-2.772,-2.777,-2.7293,-2.777,-2.7795,-2.7369,-2.7318,-2.7281,-2.7306,-2.7858,-2.8299,-2.875,-2.9559,-3.0294,-3.1038,-3.0846,-3.1404,-3.2311,-3.3144,-3.3293,-3.3275,-3.4497,-3.5017,-3.5077,0.0,0.0,0.0,0.0,0.0,0.0,0.0,0.0,0.0,0.0,0.0,0.0,0.0,0.0,0.0,0.0,-1.6901,-1.6697,-1.6338,-1.6039,-1.6123,-1.6628,-1.6153,-1.6046,-1.6443,-1.62,0.0,0.0,0.0,0.0,0.0,0.0,0.0,0.0,0.0,0.0,0.0,0.0,0.0,-2.0991,-2.3021,0.0,-2.5779,-2.6554,-2.6117,-2.5494,-2.848,-2.8741,-2.762,-2.7733,-2.7632,-2.6917,0.0,0.0,0.0,-1.999,0.0,0.0,0.0,0.0,0.0,0.0,0.0,0.0,-1.5909,-1.62,-1.6846,0.0,0.0,0.0,0.0,0.0,0.0,0.0,0.0,0.0,0.0,0.0,0.0,0.0,0.0,0.0,-2.5859,-2.6458,-2.7019,-2.743,-2.7449,-2.7348,-2.7012,-2.7256,-2.7193,-2.664,-2.7155,-2.7394,-2.7281,-2.7394,-2.7607,-2.7946,-2.7494,-2.7281,-2.7306,-2.7858,-2.7939,-2.7816,-2.8823,-2.9763,-3.0492,-3.0362,-3.0721,-3.1543,-3.2177,-3.2495,-3.27,-3.2901,-3.3708,-3.4447,0.0,0.0,0.0,0.0,0.0,0.0,0.0,0.0,0.0,0.0,0.0,0.0,0.0,0.0,0.0,0.0,0.0,0.0,0.0,-1.6595,-1.6479,-1.6595,-1.6436,-1.6362,-1.6362,-1.6318,-1.5827,0.0,0.0,0.0,0.0,0.0,0.0,0.0,0.0,0.0,0.0,0.0,-1.7999,-2.0572,-2.2334,0.0,-2.5847,-2.725,-2.7373,-2.7028,-2.9015,-2.9332,-2.8812,-2.7971,-2.8059,0.0,-2.5194,-2.3317,-2.1931,0.0,-1.9352,-1.8759,0.0,0.0,0.0,-1.8363,0.0,0.0,0.0,-1.6772,-1.7169,0.0,0.0,0.0,0.0,0.0,0.0,0.0,0.0,0.0,0.0,0.0,0.0,0.0,0.0,0.0,-2.5074,-2.5827,-2.6571,-2.722,-2.7025,-2.6911,-2.6936,-2.6726,-2.6474,-2.6188,-2.6297,-2.6362,-2.6586,-2.6859,-2.7067,-2.7281,-2.7281,-2.713,-2.6904,-2.7601,-2.7828,-2.7668,-2.8354,-2.9105,-2.9866,-2.9641,-3.004,-3.0808,-3.1884,-3.2412,-3.27,-3.3066,-3.3755,-3.4362,0.0,0.0,0.0,0.0,0.0,0.0,0.0,0.0,0.0,0.0,0.0,0.0,0.0,0.0,0.0,0.0,0.0,0.0,0.0,0.0,-1.6815,-1.6255,-1.6672,-1.6697,-1.617,-1.6455,-1.6103,0.0,0.0,0.0,0.0,0.0,0.0,0.0,0.0,0.0,0.0,0.0,0.0,-2.1108,0.0,-2.3838,-2.5852,-2.7898,-2.8649,-2.8611,-2.9512,-3.0218,-3.0495,-2.8712,-2.8335,-2.836,-2.6917,-2.4643,0.0,0.0,0.0,0.0,0.0,0.0,0.0,0.0,0.0,-1.8437,0.0,0.0,0.0,0.0,0.0,0.0,0.0,0.0,0.0,0.0,0.0,0.0,0.0,0.0,0.0,0.0,0.0,0.0,0.0,-2.4785,-2.571,-2.6706,-2.6483,-2.649,-2.6942,-2.6193,-2.58,-2.591,-2.5535,-2.5465,-2.5758,-2.6367,-2.6559,-2.6489,-2.7026,-2.7135,-2.6746,-2.753,-2.7841,-2.7816,-2.8077,-2.8617,-2.9402,-2.9244,-2.9687,-3.0572,-3.1729,-3.2464,-3.278,-3.3493,-3.3935,-3.434,-1.4624,-1.5157,0.0,0.0,0.0,0.0,0.0,0.0,0.0,0.0,0.0,0.0,0.0,0.0,0.0,0.0,0.0,0.0,-1.9106,0.0,0.0,-1.6427,-1.7674,-1.7613,-1.597,-1.6816,-1.6735,-1.5605,0.0,0.0,0.0,0.0,0.0,0.0,-1.6051,0.0,0.0,0.0,-1.9932,0.0,-2.4246,-2.4989,0.0,-2.805,-2.8432,-2.7686,-2.9252,-3.0444,-3.0972,0.0,-2.7821,-2.7344,0.0,-2.3729,-2.0896,-2.1378,0.0,0.0,0.0,0.0,0.0,0.0,-1.8609,0.0,0.0,0.0,-1.6642,-1.6517,0.0,0.0,0.0,0.0,0.0,0.0,0.0,0.0,0.0,0.0,0.0,0.0,0.0,0.0,0.0,-2.2967,-2.4429,-2.5058,-2.544,-2.5724,-2.5787,-2.5413,-2.5419,-2.5886,-2.5535,-2.5312,-2.5382,-2.6069,-2.6456,-2.6395,-2.7164,-2.7557,-2.7667,-2.8038,-2.8157,-2.8029,-2.8155,-2.875,-2.9689,-2.947,-3.0233,-3.15,-3.1288,-3.1553,-3.2233,-3.257,-3.3114,-3.3827,-1.3849,-1.447,0.0,0.0,0.0,0.0,0.0,0.0,0.0,0.0,0.0,0.0,0.0,0.0,0.0,0.0,0.0,-2.0797,0.0,0.0,0.0,-1.8669,-1.8376,-1.7991,-1.7491,-1.7255,-1.7015,-1.6672,-1.6672,0.0,0.0,0.0,0.0,0.0,-1.6176,0.0,-1.8821,0.0,-2.0482,0.0,0.0,0.0,0.0,-2.8231,-2.9149,-2.8712,-2.8436,-2.9252,-3.003,0.0,-2.7544,0.0,0.0,0.0,0.0,-2.3095,0.0,0.0,0.0,0.0,0.0,0.0,0.0,0.0,-2.0312,0.0,-1.7352,0.0,0.0,0.0,0.0,0.0,0.0,0.0,-1.5906,0.0,0.0,0.0,0.0,0.0,0.0,0.0,0.0,0.0,0.0,0.0,-2.4389,-2.4526,-2.4255,-2.5066,-2.5448,-2.5075,-2.5039,-2.4981,-2.4981,-2.5708,-2.619,-2.6408,-2.7177,-2.752,-2.7619,-2.7998,-2.8078,-2.8025,-2.8032,-2.836,-2.888,-2.8928,-2.9664,-3.0623,-3.0834,-3.1466,-3.2321,-3.2236,-3.2865,-3.372,-1.3315,0.0,0.0,0.0,0.0,0.0,0.0,0.0,0.0,0.0,0.0,0.0,-2.4146,-2.3743,0.0,0.0,-2.3682,-2.2815,0.0,0.0,-1.9827,0.0,0.0,0.0,-1.8773,-1.7887,-1.7446,-1.7555,0.0,0.0,0.0,0.0,0.0,0.0,0.0,-1.722,-1.8771,0.0,0.0,-2.272,-2.4532,-2.5668,-2.6488,-2.8257,-2.9252,-2.9628,-2.8411,-2.8762,-2.9377,-2.664,-2.7394,0.0,-2.6226,0.0,-2.5121,0.0,0.0,0.0,-2.2189,0.0,0.0,0.0,0.0,0.0,0.0,0.0,0.0,0.0,0.0,0.0,0.0,0.0,0.0,0.0,0.0,-1.569,0.0,0.0,0.0,0.0,0.0,0.0,0.0,0.0,0.0,-2.2308,-2.2997,-2.3219,-2.2984,-2.4611,-2.5208,-2.4542,-2.472,-2.479,-2.479,-2.5368,-2.5837,-2.6129,-2.7039,-2.7442,-2.7454,-2.79,-2.8065,-2.8089,-2.7956,-2.8125,-2.8509,-2.8727,-2.9213,-2.9904,-3.0589,-3.1273,-3.2082,-3.2177,-3.2778,-3.3589,-1.3176,-1.3799,0.0,0.0,0.0,0.0,0.0,0.0,0.0,0.0,0.0,0.0,0.0,0.0,0.0,0.0,0.0,-2.4053,-2.4014,0.0,-2.1315,0.0,0.0,-1.9622,0.0,-1.8675,-1.8283,-1.7974,0.0,0.0,0.0,0.0,0.0,0.0,0.0,-1.7434,-1.8605,-2.0556,-2.2055,-2.3457,-2.6445,-2.8624,-2.9745,0.0,-2.836,-2.9779,-2.9729,0.0,0.0,-2.8411,-2.7369,0.0,0.0,0.0,0.0,0.0,0.0,0.0,0.0,0.0,0.0,-2.2573,0.0,0.0,0.0,0.0,-1.8945,0.0,0.0,0.0,0.0,0.0,0.0,-1.7438,0.0,0.0,0.0,0.0,0.0,0.0,0.0,0.0,0.0,0.0,0.0,-2.0138,-2.1094,-2.1781,-2.2005,-2.3616,-2.457,-2.4611,-2.4732,-2.479,-2.479,-2.5148,-2.5331,-2.5343,-2.673,-2.737,-2.7394,-2.7985,-2.8315,-2.8486,-2.803,-2.8407,-2.928,-2.9034,-2.9439,-3.0134,-3.0405,-3.0718,-3.106,-3.2106,-3.2851,-3.338,0.0,0.0,0.0,0.0,0.0,0.0,0.0,-2.0587,0.0,0.0,0.0,0.0,0.0,-2.7122,-2.7377,0.0,0.0,-2.7098,-2.6553,-2.5179,0.0,0.0,0.0,-2.226,0.0,0.0,-2.0465,0.0,0.0,0.0,0.0,0.0,0.0,0.0,0.0,-1.7399,0.0,0.0,0.0,0.0,0.0,-2.7243,-2.7814,0.0,0.0,-2.9792,-2.9792,-2.9792,0.0,-2.8059,-2.8059,-2.8574,-2.8009,-2.6816,-2.5988,-2.7543,-2.6096,0.0,0.0,0.0,-2.6452,-2.5335,0.0,0.0,0.0,0.0,0.0,0.0,0.0,0.0,0.0,0.0,0.0,-1.8442,0.0,0.0,0.0,0.0,0.0,0.0,0.0,0.0,0.0,0.0,0.0,-1.772,-1.8722,-1.9261,-1.9032,-2.2289,-2.3864,-2.3298,-2.4723,-2.5277,-2.479,-2.5368,-2.5542,-2.5343,-2.6588,-2.7226,-2.725,-2.785,-2.8259,-2.8259,-2.8179,-2.8366,-2.8775,-2.8521,-2.8913,-2.9617,-3.0061,-3.0481,-3.0963,-3.1342,-3.2027,-3.2887,-1.5748,0.0,0.0,0.0,0.0,0.0,0.0,0.0,0.0,0.0,-2.5099,0.0,-2.857,0.0,-2.8893,0.0,-2.9426,-2.8709,-2.8197,-2.6489,0.0,-2.5862,-2.4313,0.0,0.0,0.0,0.0,0.0,0.0,-1.9065,0.0,0.0,0.0,0.0,0.0,0.0,-1.786,0.0,-2.1427,0.0,0.0,-2.6121,0.0,0.0,-2.9366,-3.0055,0.0,-2.9792,-2.9628,-2.8536,-2.89,-2.9603,-2.8524,-2.7934,-2.7846,-2.8687,-2.7576,-2.6145,-2.6424,-2.7446,0.0,-2.6714,-2.6119,0.0,-2.4772,0.0,-2.2046,0.0,0.0,0.0,0.0,0.0,0.0,0.0,-1.7526,0.0,0.0,-1.6211,0.0,0.0,0.0,0.0,0.0,0.0,-1.6182,-1.6047,-1.7029,-1.7521,0.0,0.0,-2.3331,-2.2714,-2.4499,-2.5419,-2.5277,-2.524,-2.5187,-2.5198,-2.6218,-2.6722,-2.6757,-2.7608,-2.7926,-2.7938,-2.8018,-2.8191,-2.8339,-2.8259,-2.8542,-2.9088,-2.963,-3.0121,-3.0687,-3.1068,-3.1765,-3.2647,0.0,0.0,0.0,0.0,-1.7441,0.0,0.0,0.0,-2.4484,0.0,-2.7044,-2.8367,-2.8488,-2.8778,-2.9384,-3.0294,-2.9596,-2.9063,-2.8876,-2.6889,0.0,0.0,-2.3696,-2.301,-2.4277,0.0,0.0,0.0,0.0,0.0,0.0,0.0,0.0,0.0,-1.7593,0.0,-1.6163,-1.888,-1.9772,-1.9641,-2.2504,-2.5399,-2.7871,-2.6816,-2.8134,-3.047,-2.9942,-2.9754,-2.9754,-2.9779,-2.9792,-2.9792,-2.9792,-2.9779,-2.9741,-2.9754,-2.9754,-2.9664,-2.9172,-2.9106,-2.8594,-2.6673,-2.6372,0.0,0.0,0.0,-2.4781,0.0,0.0,0.0,0.0,0.0,0.0,0.0,0.0,0.0,0.0,0.0,0.0,0.0,0.0,0.0,0.0,-1.6549,-1.6467,-1.5048,-1.5888,-1.6613,0.0,0.0,-2.2637,-2.2859,-2.4006,-2.5121,-2.6082,-2.4826,-2.4397,-2.4957,-2.5604,-2.5977,-2.5981,-2.7034,-2.7499,-2.751,-2.7788,-2.8042,-2.8179,-2.8179,-2.8283,-2.8575,-2.9165,-2.9687,-3.029,-3.13,-3.2022,-3.2647,-1.768,-1.8398,-1.9391,0.0,-2.0143,-2.0996,0.0,0.0,0.0,0.0,-2.693,-2.7905,-2.9201,-2.9074,-2.9153,-2.9945,-2.9714,0.0,0.0,0.0,0.0,-2.7077,-2.6272,-2.5229,-2.4002,-2.3914,-2.3462,-2.2557,0.0,0.0,-1.9964,0.0,0.0,0.0,0.0,0.0,-1.6017,-1.8847,-2.0301,-2.0937,-2.2616,-2.4439,0.0,0.0,-2.7293,-2.934,-2.9202,-2.9151,-2.9214,-2.9641,-2.9792,-2.9792,-2.9792,-2.9503,-2.9075,-2.8847,-2.8923,-2.9075,-2.8682,-2.8823,-2.9008,-2.8455,-2.7198,-2.6019,0.0,0.0,0.0,0.0,0.0,0.0,0.0,0.0,0.0,0.0,0.0,0.0,0.0,0.0,0.0,-1.7995,0.0,0.0,-1.6312,-1.5758,-1.5143,-1.4262,-1.4529,-1.521,0.0,0.0,0.0,-2.2262,-2.2347,-2.3262,-2.5111,-2.3819,-2.3546,-2.4406,-2.4957,-2.5401,-2.5816,-2.6607,-2.7174,-2.751,-2.7788,-2.7962,-2.7962,-2.7962,-2.8174,-2.8657,-2.9139,-2.9966,-3.0873,-3.1476,-3.2022,-3.2599,-1.8917,0.0,0.0,-2.1736,0.0,0.0,-2.3883,0.0,0.0,-2.6737,-2.7359,0.0,-2.8625,-2.8959,-2.9274,-2.9726,-2.9555,0.0,-2.9555,0.0,0.0,-2.7766,-2.6698,-2.5493,-2.3947,-2.3905,0.0,-2.2857,0.0,0.0,-2.0781,0.0,0.0,0.0,0.0,-1.7562,0.0,-1.8449,-2.0196,-2.1619,-2.2225,0.0,0.0,-2.5024,-2.5901,-2.7592,-2.7828,-2.8213,-2.8612,-2.895,-2.9063,-2.9063,-2.9063,-2.9001,-2.885,-2.8472,-2.8645,-2.8895,-2.8341,-2.8391,-2.8597,-2.8591,-2.7723,-2.6919,-2.7297,-2.7031,-2.6758,0.0,-2.7089,-2.7042,0.0,0.0,0.0,0.0,0.0,0.0,0.0,0.0,0.0,0.0,-1.8871,0.0,-1.7293,-1.5811,-1.4522,-1.3656,-1.3898,-1.4525,0.0,0.0,0.0,-2.0834,-2.1726,-2.2748,-2.3802,-2.2955,-2.3084,-2.4437,-2.4653,-2.5246,-2.6127,-2.6724,-2.7117,-2.7371,-2.7626,-2.7708,-2.7708,-2.7708,-2.8081,-2.8704,-2.9456,-3.0255,-3.1062,-3.133,-3.1741,-3.2186,0.0,0.0,0.0,0.0,0.0,0.0,0.0,-2.6194,0.0,-2.7352,0.0,-2.8504,-2.7644,-2.879,-2.9521,-2.9477,0.0,-2.9322,-2.9578,-2.8537,-2.7959,-2.8076,-2.6153,-2.472,-2.4025,-2.3161,-2.2795,0.0,0.0,0.0,0.0,0.0,0.0,0.0,0.0,0.0,0.0,-1.8121,-1.9814,-2.1874,-2.1796,-2.3281,-2.5465,-2.4309,-2.4723,-2.5889,-2.6439,-2.7172,-2.7936,-2.8084,-2.8109,-2.8109,-2.8024,-2.8412,-2.8775,-2.8319,-2.8623,-2.8882,-2.8131,-2.7959,-2.7867,-2.7936,-2.7916,-2.801,-2.8828,-2.904,-2.9131,-2.9624,-2.9702,-2.9189,0.0,0.0,0.0,0.0,0.0,0.0,0.0,0.0,0.0,0.0,0.0,0.0,-1.8371,-1.6324,-1.4661,-1.3509,-1.3901,0.0,0.0,0.0,0.0,-1.9333,-2.1404,-2.2531,-2.2661,0.0,-2.2874,-2.4867,-2.4614,-2.5296,-2.67,-2.7002,-2.7162,-2.7231,-2.7452,-2.7522,-2.7452,-2.751,-2.8046,-2.8843,-2.9828,-3.0484,-3.0894,-3.0894,-3.1199,-3.1703,0.0,0.0,0.0,0.0,0.0,-2.7037,-2.93,-2.9284,-2.88,-2.8521,-2.9537,-2.9939,-2.8826,-2.9561,-2.9825,-2.9138,-2.9063,0.0,0.0,0.0,0.0,-2.7491,-2.5964,-2.4859,-2.4163,-2.3176,-2.2811,0.0,0.0,0.0,0.0,0.0,0.0,0.0,0.0,0.0,-1.9233,-1.8871,0.0,-2.171,-2.2377,-2.3227,-2.4152,-2.4771,-2.5155,-2.5477,-2.5868,-2.6402,-2.7063,-2.7813,-2.8109,-2.8024,-2.7705,-2.794,-2.8319,-2.7912,-2.8144,-2.8578,-2.8419,-2.8143,-2.8016,-2.8275,-2.7829,-2.7577,-2.8409,-2.8505,-2.8498,-2.9131,-2.9353,-2.9397,-2.9277,0.0,0.0,0.0,0.0,0.0,0.0,0.0,0.0,0.0,0.0,-1.967,0.0,-1.6979,-1.5762,-1.4673,0.0,0.0,0.0,0.0,0.0,0.0,-1.9341,0.0,0.0,0.0,-2.2739,-2.5518,-2.448,-2.4873,-2.6541,-2.6939,-2.7139,-2.7231,-2.7638,-2.7638,-2.7254,-2.775,-2.8476,-2.9374,-2.9949,-3.0237,-3.0306,-3.0306,-3.064,-3.1263,0.0,0.0,0.0,0.0,0.0,0.0,0.0,-3.0732,0.0,-2.9491,-2.9831,-2.9881,-2.9213,-3.0178,-3.0755,-3.0411,-3.0447,-3.0206,-2.9642,-2.9047,-2.8256,-2.7371,-2.571,-2.4459,-2.3779,-2.2883,-2.2484,-2.2647,0.0,0.0,0.0,0.0,0.0,0.0,0.0,-1.8708,0.0,0.0,0.0,-2.1556,-2.2683,-2.3623,-2.4281,-2.4637,-2.4826,-2.5123,-2.5477,-2.5764,-2.6103,-2.6729,-2.6971,-2.6887,-2.6504,-2.6724,-2.71,-2.6713,-2.7095,-2.7615,-2.7411,-2.7413,-2.7544,-2.8011,-2.7751,-2.7601,-2.8457,-2.853,-2.8498,-2.8973,-2.9197,-2.9028,-2.835,-2.6742,0.0,0.0,0.0,0.0,0.0,0.0,-2.1082,0.0,0.0,0.0,0.0,0.0,0.0,0.0,0.0,0.0,0.0,0.0,0.0,0.0,0.0,0.0,0.0,0.0,0.0,-2.553,-2.4935,-2.5443,-2.6864,-2.7093,-2.7152,-2.7231,-2.7476,-2.7394,-2.7288,-2.8046,-2.8804,-2.955,-3.0032,-3.0216,-3.0216,-3.0216,-3.0709,-3.1421,0.0,-2.5848,0.0,0.0,-2.8056,0.0,-3.0422,-3.1378,-3.1465,-3.0423,-3.0368,-3.0192,-2.982,-3.0918,-3.1499,-3.1096,-3.1252,-3.0848,-2.9456,-2.9282,-2.8548,-2.7115,-2.5864,-2.4655,-2.3658,-2.3097,-2.2637,0.0,0.0,0.0,0.0,0.0,0.0,0.0,0.0,0.0,0.0,0.0,-2.107,-2.1874,-2.296,-2.3895,-2.4646,-2.4345,-2.4418,-2.4718,-2.5182,-2.5241,-2.5253,-2.5758,-2.591,-2.584,-2.5465,-2.5601,-2.591,-2.5659,-2.6134,-2.6712,-2.6415,-2.6678,-2.7174,-2.7584,-2.7553,-2.773,-2.8791,-2.8736,-2.8578,-2.8973,-2.9052,-2.866,-2.7545,-2.687,0.0,0.0,0.0,0.0,0.0,0.0,0.0,0.0,0.0,0.0,-2.0836,0.0,0.0,0.0,0.0,0.0,0.0,0.0,0.0,0.0,0.0,-2.1834,-2.2056,0.0,-2.4306,-2.5809,-2.5557,-2.6135,-2.7301,-2.7383,-2.7383,-2.7301,-2.7383,-2.7428,-2.761,-2.8579,-2.9259,-2.9688,-3.0067,-3.0285,-3.0479,-3.0388,-3.0962,-3.1743,0.0,0.0,0.0,0.0,0.0,0.0,-3.1616,-3.1628,-3.1519,-3.1601,-3.2358,-3.2491,-3.1487,-3.1761,-3.1326,-2.9603,-2.9868,-2.9108,-2.6707,-2.8631,-2.8754,-2.6292,-2.6924,-2.6523,-2.4786,-2.4508,-2.3673,0.0,0.0,-2.0995,0.0,0.0,0.0,0.0,0.0,0.0,0.0,-2.0914,-2.1853,-2.3236,-2.3315,-2.3752,-2.4273,-2.42,-2.4189,-2.4345,-2.5028,-2.5123,-2.4933,-2.563,-2.591,-2.584,-2.5465,-2.5397,-2.555,-2.565,-2.6069,-2.6551,-2.6495,-2.6788,-2.7233,-2.7645,-2.7446,-2.7626,-2.9312,-2.8907,-2.8419,-2.8973,-2.8961,-2.8991,-2.9424,-2.8015,-2.6309,0.0,0.0,0.0,0.0,0.0,-2.0926,-2.0809,0.0,0.0,0.0,-1.8891,0.0,0.0,-1.7433,0.0,0.0,0.0,0.0,-1.8498,0.0,-2.1547,-2.2614,-2.3472,-2.4921,-2.7001,-2.6071,-2.6276,-2.7522,-2.7926,-2.7846,-2.7522,-2.7938,-2.8304,-2.8609,-2.9422,-2.9866,-3.0147,-3.0204,-3.0606,-3.1217,-3.1032,-3.1366,-3.2086,0.0,0.0,0.0,0.0,0.0,0.0,0.0,-3.1863,-3.1867,-3.2166,-3.2406,-3.2529,-3.255,-3.2371,-3.2166,-3.1876,-3.1668,-3.0952,-2.9365,-2.9554,-2.9059,-2.7524,-2.6896,-2.6268,-2.5569,-2.5218,-2.4515,0.0,0.0,0.0,0.0,0.0,0.0,0.0,0.0,-2.0653,-2.1284,-2.1985,-2.2605,-2.3254,-2.3704,-2.4016,-2.42,-2.42,-2.42,-2.4273,-2.4838,-2.4921,-2.4861,-2.5407,-2.5407,-2.5206,-2.5064,-2.4835,-2.4754,-2.4814,-2.5096,-2.5552,-2.5844,-2.6353,-2.6942,-2.7221,-2.7628,-2.8111,-2.8736,-2.859,-2.8498,-2.8973,-2.9052,-2.8973,-2.8986,-2.8293,-2.7257,-2.6218,0.0,0.0,0.0,0.0,0.0,-2.276,0.0,-2.1816,0.0,0.0,0.0,0.0,0.0,0.0,0.0,0.0,0.0,-2.0069,0.0,-2.2484,-2.4455,-2.4815,-2.5781,-2.736,-2.7167,-2.7191,-2.7534,-2.8023,-2.8244,-2.8249,-2.8126,-2.8495,-2.9194,-2.9489,-2.9857,-3.0216,-3.0216,-3.0629,-3.1112,-3.1019,-3.1702,-3.2599,-3.0623,0.0,-2.9347,0.0,-3.0774,-3.0798,-3.1642,-3.1901,-3.2012,-3.2071,-3.1952,-3.2114,-3.3005,-3.2564,-3.2319,-3.2633,-3.2333,-3.1578,-3.0241,-2.9923,-2.9252,-2.7989,-2.7151,0.0,-2.6129,-2.5975,-2.5367,-2.4174,-2.3095,0.0,0.0,0.0,0.0,0.0,-2.084,-2.1371,-2.1978,-2.2822,-2.3239,-2.3481,-2.3979,-2.42,-2.42,-2.42,-2.4273,-2.4418,-2.4778,-2.4921,-2.4992,-2.5453,-2.5324,-2.4921,-2.4861,-2.449,-2.4223,-2.4372,-2.4638,-2.4926,-2.5203,-2.5948,-2.6665,-2.6954,-2.768,-2.8351,-2.8419,-2.8498,-2.859,-2.8907,-2.8895,-2.8816,-2.8657,-2.8378,-2.7878,-2.7028,0.0,0.0,0.0,-2.3245,0.0,-2.3727,-2.2566,-2.2098,-2.312,-2.168,0.0,0.0,0.0,0.0,0.0,0.0,0.0,0.0,0.0,0.0,0.0,-2.5274,-2.6099,-2.7452,-2.7778,-2.7941,-2.7778,-2.83,-2.8634,-2.8775,-2.8579,-2.8913,-2.9515,-2.9742,-2.9996,-3.0227,-3.0388,-3.0767,-3.1343,-3.1387,-3.2175,-3.3208,-3.1397,-3.1642,-3.1785,-3.1973,-3.2169,-3.2176,-3.1501,-3.1733,-3.1874,-3.1466,-3.1304,-3.1589,-3.2567,-3.2202,-3.1378,-3.0448,-3.0734,-3.0,-2.749,-2.9078,-2.9201,0.0,0.0,-2.7756,-2.644,-2.7108,-2.6276,-2.3688,0.0,0.0,-2.0969,0.0,-2.037,-2.0972,-2.111,-2.1924,-2.3185,-2.3208,-2.3575,-2.4189,-2.42,-2.42,-2.42,-2.42,-2.4429,-2.4861,-2.5182,-2.5312,-2.5453,-2.6245,-2.5955,-2.5241,-2.4921,-2.449,-2.4292,-2.4763,-2.49,-2.49,-2.4912,-2.567,-2.6572,-2.6916,-2.743,-2.8122,-2.8895,-2.8816,-2.851,-2.851,-2.8339,-2.8419,-2.8973,-2.8545,-2.7761,-2.6784,0.0,0.0,0.0,-2.3084,0.0,-2.2799,-2.167,-2.1195,-2.1963,-2.0884,0.0,0.0,0.0,0.0,0.0,0.0,0.0,-2.0189,-2.0544,0.0,-2.3506,-2.4302,-2.5526,-2.7231,-2.7985,-2.8312,-2.8335,-2.8823,-2.8958,-2.8993,-2.9578,-2.9635,-2.9538,-3.0279,-3.0385,-3.0262,-3.0801,-3.1389,-3.2169,-3.2379,-3.3191,-3.3965,-3.0549,-3.0905,-3.1202,-3.1029,-3.1259,-3.1405,-3.1163,-3.1274,-3.1239,-3.1163,-3.1055,-3.1174,-3.1509,-3.1226,-3.1122,0.0,-3.0092,-2.9311,0.0,-2.8379,-2.7919,-2.7985,-2.7197,-2.636,-2.5521,-2.6164,-2.5722,-2.4128,0.0,0.0,0.0,-2.1015,-2.1325,-2.1642,-2.2103,-2.2753,-2.3503,-2.3659,-2.3822,-2.397,-2.4116,-2.42,-2.42,-2.42,-2.4273,-2.4418,-2.4334,-2.4467,-2.4539,-2.4683,-2.4683,-2.4539,-2.4418,-2.4502,-2.4669,-2.476,-2.4807,-2.495,-2.5595,-2.6074,-2.653,-2.6937,-2.721,-2.7512,-2.7705,-2.7591,-2.737,-2.7179,-2.7801,-2.8268,-2.8203,-2.8212,-2.7777,-2.6294,-2.626,0.0,-2.4324,0.0,-2.3854,-2.3481,-2.2372,-2.1946,-2.2691,-2.1928,0.0,0.0,0.0,0.0,0.0,0.0,0.0,0.0,-2.3117,0.0,-2.5547,-2.5477,-2.6264,-2.7914,-2.8314,-2.8757,-2.9334,-2.8965,-2.9166,-2.9811,-2.965,-2.9765,-2.9998,-3.0237,-3.0525,-3.0744,-3.0549,-3.1379,-3.2611,-3.2329,-3.3095,-3.4249,-3.089,-3.0929,-3.0961,-3.0757,-3.0831,-3.0904,-3.0725,-3.0908,-3.0966,-3.0798,-3.0921,-3.0986,-3.0986,-3.0911,0.0,-3.1496,-3.0275,-2.966,-3.0098,-2.8707,-2.8065,-2.836,-2.7275,-2.6472,-2.5992,-2.6185,0.0,-2.4872,-2.4321,-2.3114,-2.1409,-2.1822,-2.2127,-2.248,-2.2787,-2.3452,-2.4238,-2.4116,-2.4177,-2.4467,-2.4539,-2.4478,-2.42,-2.4478,-2.455,-2.4418,-2.4273,-2.4406,-2.4611,-2.4467,-2.4539,-2.4611,-2.449,-2.4574,-2.479,-2.479,-2.479,-2.4932,-2.548,-2.5755,-2.6015,-2.6576,-2.6771,-2.6956,-2.7252,-2.7055,-2.6907,-2.7191,-2.7759,-2.8139,-2.8203,-2.813,-2.7655,-2.6688,-2.6482,-2.6042,-2.5013,0.0,-2.4178,0.0,0.0,0.0,0.0,-2.3049,-2.2968,0.0,0.0,0.0,0.0,0.0,0.0,-2.373,-2.4014,0.0,-2.6314,-2.6019,-2.6714,-2.8422,-2.8788,-2.93,-2.9912,-2.95,-2.9619,-3.0204,-2.9894,-2.994,-3.0216,-3.0306,-3.0593,-3.0894,-3.1043,-3.1739,-3.2791,-3.2861,-3.3488,-3.4335,-3.2058,-3.1483,-3.1022,0.0,-3.0996,0.0,-3.0443,-3.0751,-3.0863,-3.0416,-3.0705,-3.0986,-3.0986,-3.0986,-3.096,-3.0934,0.0,0.0,0.0,-2.956,-2.8956,-2.8347,-2.7933,-2.7578,-2.7353,-2.6831,-2.6295,-2.5759,-2.4343,-2.3299,-2.2665,-2.2567,-2.2865,-2.3399,-2.3313,-2.4029,-2.5252,-2.4564,-2.4719,-2.5382,-2.5382,-2.4957,-2.4406,-2.5028,-2.5111,-2.4861,-2.479,-2.4921,-2.5241,-2.5241,-2.5241,-2.517,-2.4849,-2.479,-2.4861,-2.479,-2.4813,-2.4848,-2.4848,-2.497,-2.5235,-2.6148,-2.6353,-2.6535,-2.7399,-2.6988,-2.686,-2.8136,-2.7981,-2.7932,-2.8844,-2.8172,-2.7557,-2.7613,-2.6502,-2.5644,-2.5574,-2.4618,-2.3883,0.0,0.0,0.0,0.0,-2.413,-2.4276,0.0,0.0,0.0,0.0,0.0,-2.2411,-2.3653,-2.3759,-2.4613,-2.6221,-2.6276,-2.7082,-2.8758,-2.9297,-2.9791,-3.0216,-3.0216,-3.0216,-3.0216,-3.0216,-3.0216,-3.0216,-3.0522,-3.0647,-3.0775,-3.2019,-3.2524,-3.2712,-3.3761,-3.4225,-3.4433,0.0,0.0,-3.1586,-3.0726,-3.0798,-3.0957,-3.089,-3.0939,-3.0957,-3.0877,-3.0952,-3.0986,-3.0986,-3.0986,-3.0803,-3.0372,-2.9188,-2.8799,-2.9431,-2.7827,-2.7092,-2.7693,-2.6895,-2.6196,-2.57,-2.5616,-2.5424,-2.5171,-2.5946,-2.5169,-2.298,-2.3879,-2.3875,-2.32,-2.3508,-2.4262,-2.5302,-2.5098,-2.548,-2.6139,-2.6139,-2.607,-2.5861,-2.5453,-2.5241,-2.5111,-2.4406,-2.4261,-2.4478,-2.425,-2.4322,-2.4478,-2.4345,-2.4766,-2.5111,-2.4861,-2.506,-2.5427,-2.5731,-2.6101,-2.6463,-2.6764,-2.6894,-2.6783,-2.6186,-2.6502,-2.6988,-2.7248,-2.7378,-2.7642,-2.7877,-2.7903,-2.7767,-2.7206,-2.7025,-2.6419,-2.4552,-2.4284,-2.399,0.0,-2.3408,-2.3816,-2.4184,-2.5008,-2.5095,0.0,0.0,0.0,0.0,-2.4919,-2.5156,-2.5773,-2.6561,-2.7163,-2.7591,-2.7937,-2.851,-2.932,-2.9814,-3.0101,-3.0216,-3.0216,-3.0216,-3.0216,-3.0216,-3.0216,-3.025,-3.0927,-3.1414,-3.1774,-3.2301,-3.3066,-3.3944,-3.3801,-3.4185,-3.4726,-3.2625,-3.2302,-3.1969,-3.1778,-3.1867,-3.1896,-3.1529,-3.1529,-3.1394,-3.1048,-3.0986,-3.0986,-3.0986,-3.0986,-3.0764,-3.0176,-2.9261,-2.8821,-2.8856,-2.7827,-2.7289,-2.751,-2.7065,-2.6512,-2.5821,-2.5608,-2.5153,-2.4583,-2.538,-2.5001,-2.3543,-2.4218,-2.4165,-2.3566,-2.385,-2.4561,-2.5652,-2.5373,-2.59,-2.6756,-2.6756,-2.662,-2.6346,-2.6208,-2.6,-2.5721,-2.5276,-2.5205,-2.5276,-2.5004,-2.4945,-2.4874,-2.4671,-2.4671,-2.4826,-2.479,-2.5194,-2.5757,-2.5912,-2.6046,-2.6224,-2.6538,-2.6872,-2.7073,-2.6884,-2.7131,-2.7484,-2.812,-2.784,-2.7631,-2.8064,-2.7925,-2.7503,-2.6907,-2.6369,-2.5505,-2.4017,-2.3764,-2.3605,-2.3306,-2.4038,-2.4737,-2.5104,-2.5889,-2.6019,-2.5154,-2.5207,0.0,-2.6203,-2.6316,-2.6651,-2.7196,-2.7931,-2.842,-2.871,-2.9141,-2.9665,-3.0193,-3.0457,-3.0698,-3.0928,-3.1009,-3.109,-3.109,-3.1182,-3.1147,-3.0973,-3.1773,-3.2112,-3.2183,-3.2948,-3.3577,-3.427,-3.4222,-3.4486,-3.4823,-3.3999,-3.3061,-3.2359,-3.3115,-3.3213,-3.2975,-3.2181,-3.2164,-3.1988,-3.1079,-3.1071,-3.1123,-3.0986,-3.0908,-3.0634,-3.0059,-2.9928,-2.9444,-2.8438,-2.8457,-2.8195,-2.7549,-2.7656,-2.7486,-2.6817,-2.6334,-2.5524,-2.4374,-2.4511,-2.4511,-2.4374,-2.4374,-2.4382,-2.4391,-2.4391,-2.5027,-2.6205,-2.5719,-2.6235,-2.7364,-2.7364,-2.7095,-2.6756,-2.7095,-2.6947,-2.6539,-2.6501,-2.6501,-2.6501,-2.6239,-2.5975,-2.5755,-2.5417,-2.4874,-2.455,-2.4921,-2.5419,-2.5923,-2.5856,-2.5707,-2.5685,-2.6129,-2.6792,-2.7555,-2.8255,-2.8215,-2.8297,-2.9424,-2.8649,-2.794,-2.865,-2.8034,-2.7176,-2.6584,-2.5296,-2.4235,-2.3598,0.0,-2.3309,-2.4095,-2.5033,-2.5678,-2.5965,-2.6812,-2.7013,-2.614,-2.6419,-2.684,-2.7415,-2.7405,-2.7626,-2.8214,-2.8654,-2.9152,-2.9761,-3.0182,-3.0606,-3.1123,-3.1123,-3.1446,-3.1945,-3.2016,-3.2111,-3.2206,-3.2394,-3.2242,-3.1877,-3.2675,-3.2721,-3.2412,-3.3683,-3.4162,-3.421,-3.4667,-3.4823,-3.4823,-3.333,-3.3059,-3.2986,-3.3185,-3.3213,-3.2905,-3.2111,-3.2598,-3.2553,-3.1092,-3.1514,-3.1676,-3.1061,-3.0555,-3.0032,-2.9457,-2.8948,-2.8569,-2.8386,-2.7928,-2.7628,-2.7536,-2.7523,-2.7484,-2.7406,-2.7433,-2.6944,-2.5796,-2.6396,-2.6396,-2.5796,-2.5796,-2.5713,-2.5556,-2.5556,-2.5983,-2.679,-2.6661,-2.7131,-2.8,-2.8105,-2.8091,-2.7947,-2.7617,-2.7417,-2.7217,-2.6458,-2.6183,-2.6183,-2.6308,-2.6114,-2.5988,-2.642,-2.6183,-2.5688,-2.6082,-2.6025,-2.5856,-2.566,-2.6273,-2.7019,-2.6863,-2.7803,-2.8717,-2.8418,-2.8996,-2.9387,-2.9063,-2.8838,-2.86,-2.8298,-2.8097,-2.7376,-2.5635,-2.5381,-2.4788,-2.3033,0.0,-2.4498,-2.5382,-2.6024,-2.6632,-2.7498,-2.7739,-2.7836,-2.7676,-2.8015,-2.8337,-2.8464,-2.889,-2.915,-2.9274,-2.9343,-2.9848,-3.0754,-3.1055,-3.1414,-3.19,-3.19,-3.2136,-3.2394,-3.2206,-3.2206,-3.2489,-3.2489,-3.2442,-3.2406,-3.3209,-3.3565,-3.3553,-3.4366,-3.4703,-3.4715,-3.4799,-3.4823,-3.4823,-3.4061,-3.3725,-3.355,-3.4037,-3.3864,-3.3331,-3.2574,-3.2475,-3.2078,-3.1006,-3.0905,-3.0855,-3.0525,-2.9968,-2.9431,-2.8843,-2.8543,-2.8242,-2.7941,-2.7667,-2.7523,-2.7523,-2.7236,-2.6778,-2.6164,-2.5913,-2.5555,-2.5017,-2.534,-2.5559,-2.5598,-2.5598,-2.5757,-2.606,-2.5998,-2.6314,-2.6918,-2.6918,-2.7326,-2.7921,-2.7987,-2.8118,-2.8118,-2.7776,-2.7842,-2.8039,-2.767,-2.7657,-2.7868,-2.7723,-2.7391,-2.7056,-2.7324,-2.6799,-2.6277,-2.6812,-2.6496,-2.5951,-2.613,-2.6404,-2.6911,-2.7614,-2.8166,-2.8648,-2.9071,-2.9526,-2.9716,-2.9453,-2.9151,-2.885,-2.8599,-2.8059,-2.7435,-2.6831,-2.5827,0.0,0.0,-2.4767,-2.5143,-2.61,-2.6859,-2.7636,-2.8536,-2.8445,-2.8399,-2.87,-2.8712,-2.8866,-2.916,-2.9351,-2.9644,-2.9883,-3.0158,-3.0399,-3.0583,-3.1228,-3.1714,-3.1921,-3.2199,-3.2572,-3.2948,-3.2959,-3.3153,-3.3347,-3.3528,-3.3446,-3.3327,-3.4043,-3.4102,-3.3887,-3.4522,-3.4823,-3.4823,-3.4823,-3.4823,-3.4823,-3.4545,-3.417,-3.3958,-3.4751,-3.4404,-3.3724,-3.299,-3.2529,-3.1882,-3.0968,-3.0827,-3.0665,-3.0323,-2.9992,-2.9502,-2.8699,-2.8515,-2.8197,-2.7562,-2.7523,-2.7523,-2.7523,-2.7105,-2.6399,-2.5393,-2.4936,-2.4713,-2.476,-2.4583,-2.499,-2.5871,-2.5664,-2.5964,-2.6645,-2.6519,-2.6564,-2.6854,-2.6854,-2.7038,-2.7315,-2.738,-2.7603,-2.7801,-2.7722,-2.8063,-2.8587,-2.8675,-2.8944,-2.9226,-2.9096,-2.8655,-2.8157,-2.8396,-2.7734,-2.7101,-2.7734,-2.7378,-2.6751,-2.6838,-2.6736,-2.6881,-2.8174,-2.8418,-2.8562,-2.9524,-2.9702,-2.9702,-2.9792,-2.944,-2.9089,-2.895,-2.8235,-2.767,-2.772,0.0,0.0,0.0,-2.5926,-2.6008,-2.7225,-2.7783,-2.849,-2.9552,-2.9154,-2.9025,-2.9537,-2.9236,-2.9255,-2.9636,-2.967,-2.9875,-3.0388,-3.0801,-3.087,-3.0572,-3.1573,-3.208,-3.2195,-3.2586,-3.2989,-3.3481,-3.3679,-3.3878,-3.4075,-3.4249,-3.4207,-3.415,-3.457,-3.4486,-3.4258,-3.4667,-3.4823,-3.4823,-3.4823,-3.4823,-3.4823,-3.4036,-3.3862,-3.3958,-3.4751,-3.4404,-3.3721,-3.2942,-3.3063,-3.2658,-3.1076,-3.2213,-3.2634,-3.1324,-3.1254,-3.0738,-2.9416,-2.8795,-2.821,-2.7523,-2.7523,-2.7523,-2.7523,-2.7484,-2.7183,-2.6569,-2.6504,-2.6542,-2.667,-2.6018,-2.6459,-2.7879,-2.6999,-2.6973,-2.7657,-2.7459,-2.7131,-2.6738,-2.6738,-2.6399,-2.5942,-2.613,-2.6509,-2.6984,-2.7176,-2.7843,-2.8587,-2.843,-2.8546,-2.8949,-2.9669,-2.9296,-2.8746,-2.9942,-2.9558,-2.8798,-2.9214,-2.9198,-2.882,-2.7736,-2.7643,-2.7904,-2.8218,-2.87,-2.9081,-2.9341,-2.9419,-2.9509,-2.9792,-2.9754,-2.9566,-2.9026,-2.8863,-2.8323,-2.6816,0.0,0.0,-2.6521,-2.6528,-2.7274,-2.9338,-2.894,-2.9094,-3.0535,-2.9957,-2.9665,-3.0149,-3.0117,-3.0135,-3.0193,-3.0102,-3.0434,-3.0939,-3.0996,-3.1215,-3.1651,-3.2456,-3.3064,-3.3563,-3.3598,-3.3732,-3.4075,-3.3779,-3.3878,-3.4075,-3.4075,-3.4237,-3.4374,-3.4421,-3.4507,-3.4775,-3.4811,-3.4823,-3.4823,-3.4823,-3.4823,-3.4823,-3.3833,-3.4156,-3.4508,-3.4706,-3.395,-3.3255,-3.3323,-3.2805,-3.2173,-3.1649,-3.1855,-3.1737,-3.0777,-3.0425,-2.9995,-2.9517,-2.8848,-2.8417,-2.8157,-2.7302,-2.6856,-2.7,-2.6661,-2.6203,-2.5628,-2.5275,-2.5092,-2.5031,-2.4749,-2.511,-2.5978,-2.5644,-2.5903,-2.672,-2.6516,-2.6385,-2.6327,-2.6201,-2.602,-2.585,-2.6267,-2.6396,-2.628,-2.7052,-2.7691,-2.8058,-2.8373,-2.883,-2.9366,-2.968,-2.9356,-2.9013,-2.9694,-2.9744,-2.9709,-3.0519,-3.0624,-3.0378,-2.9883,-2.9561,-2.94,-2.9995,-2.9859,-2.9704,-2.9947,-2.9574,-2.9287,-2.9521,-2.9521,-2.9537,-2.9503,-2.9164,-2.8837,-2.8574,0.0,-2.7713,-2.8484,-2.8027,-2.8313,-3.0131,-2.9843,-3.0041,-3.1564,-3.1089,-3.0826,-3.1061,-3.0836,-3.0501,-3.0227,-3.0491,-3.08,-3.1006,-3.1639,-3.1869,-3.1766,-3.2667,-3.3111,-3.2984,-3.3319,-3.3481,-3.358,-3.3481,-3.358,-3.3878,-3.3878,-3.3965,-3.4261,-3.4261,-3.4261,-3.4359,-3.4359,-3.4359,-3.4359,-3.4359,-3.4359,-3.4347,-3.3431,-3.3827,-3.4149,-3.4032,-3.3127,-3.2543,-3.2966,-3.2105,-3.154,-3.1646,-3.164,-3.134,-3.07,-3.0517,-3.0154,-2.9497,-2.9052,-2.8622,-2.8179,-2.7267,-2.6633,-2.6348,-2.6203,-2.5733,-2.5048,-2.4583,-2.4327,-2.4281,-2.4209,-2.4481,-2.5013,-2.4965,-2.5296,-2.5985,-2.5722,-2.5798,-2.5985,-2.5615,-2.5592,-2.5837,-2.6059,-2.6125,-2.6177,-2.6961,-2.751,-2.7877,-2.8309,-2.878,-2.9317,-2.9638,-2.9392,-2.9104,-2.9798,-3.0276,-3.0754,-3.1744,-3.1986,-3.1858,-3.1858,-3.149,-3.1069,-3.1114,-3.0683,-3.0367,-3.0545,-3.0318,-2.998,-2.998,-2.9993,-2.9993,-2.9952,-2.9489,-2.9301,-2.9955,-2.9416,-2.9252,-3.0133,-2.9677,-2.9714,-3.0998,-3.0698,-3.098,-3.2306,-3.1798,-3.1438,-3.1637,-3.1234,-3.0854,-3.0639,-3.0995,-3.1301,-3.1476,-3.2328,-3.2581,-3.2248,-3.2937,-3.3097,-3.2741,-3.3109,-3.3281,-3.3281,-3.3281,-3.3381,-3.358,-3.358,-3.3679,-3.3977,-3.3977,-3.3977,-3.4075,-3.4075,-3.4075,-3.4075,-3.4075,-3.4075,-3.4075,-3.265,-3.2655,-3.2513,-3.2513,-3.1961,-3.1526,-3.1526,-3.111,-3.0836,-3.0821,-3.1708,-3.205,-3.1352,-3.199,-3.1649,-2.9492,-2.945,-2.8884,-2.7513,-2.751,-2.7033,-2.5662,-2.6309,-2.6138,-2.5001,-2.5022,-2.4962,-2.4962,-2.4814,-2.5088,-2.5759,-2.5458,-2.5458,-2.5759,-2.5408,-2.5484,-2.5709,-2.5,-2.5091,-2.5772,-2.521,-2.5654,-2.6661,-2.6674,-2.7301,-2.8079,-2.8079,-2.8341,-2.8746,-2.9659,-2.9402,-2.8869,-3.0402,-3.1309,-3.2,-3.2989,-3.3326,-3.3326,-3.3326,-3.3326,-3.2945,-3.1341,-3.0895,-3.097,-3.1145,-3.1668,-3.1924,-3.1228,-3.1176,-3.111,-3.0386,-2.9791,-2.9696,-3.044,-3.062,-3.0813,-3.1289,-3.1423,-3.1562,-3.2166,-3.1818,-3.1932,-3.3018,-3.1737,-3.1128,-3.1673,-3.1217,-3.1172,-3.1677,-3.178,-3.202,-3.2477,-3.3005,-3.3281,-3.3281,-3.3281,-3.3281,-3.3281,-3.3281,-3.3281,-3.3281,-3.3281,-3.3281,-3.3281,-3.3281,-3.3481,-3.3679,-3.3679,-3.3878,-3.4075,-3.4075,-3.4075,-3.4075,-3.4075,-3.4075,-3.4075,-3.205,-3.2493,-3.2801,-3.2718,-3.2163,-3.1871,-3.2353,-3.1918,-3.1394,-3.1176,-3.1678,-3.1768,-3.0812,-3.0887,-3.0728,-3.0184,-2.9331,-2.8283,-2.6858,-2.7264,-2.7018,-2.5635,-2.6327,-2.6334,-2.5465,-2.5036,-2.4512,-2.3885,-2.3932,-2.4022,-2.4128,-2.4007,-2.4067,-2.4236,-2.4067,-2.4067,-2.4262,-2.4602,-2.4858,-2.5078,-2.5903,-2.6125,-2.6164,-2.6974,-2.7328,-2.7493,-2.7933,-2.8471,-2.9068,-2.9725,-2.9951,-3.0137,-3.1523,-3.2108,-3.2373,-3.3073,-3.3326,-3.3326,-3.3326,-3.3326,-3.3171,-3.2704,-3.2173,-3.1783,-3.1796,-3.1548,-3.1232,-3.1169,-3.1509,-3.1743,-3.1172,-3.1242,-3.122,-3.0991,-3.0984,-3.0996,-3.116,-3.1335,-3.1464,-3.1701,-3.1863,-3.2187,-3.2599,-3.255,-3.2347,-3.219,-3.141,-3.0859,-3.0639,-3.1341,-3.1796,-3.1961,-3.2822,-3.3281,-3.3281,-3.3281,-3.3281,-3.3281,-3.3281,-3.3281,-3.3281,-3.3281,-3.3281,-3.3281,-3.3281,-3.3392,-3.3381,-3.3381,-3.3481,-3.358,-3.358,-3.358,-3.358,-3.358,-3.358,-3.358,-3.1287,-3.1699,-3.2024,-3.2006,-3.1608,-3.1477,-3.1948,-3.1594,-3.1172,-3.069,-3.1235,-3.1191,-3.0045,-3.019,-3.0201,-2.9734,-2.8739,-2.7694,-2.6594,-2.7225,-2.7142,-2.599,-2.6369,-2.6185,-2.5236,-2.4606,-2.4022,-2.345,-2.3509,-2.345,-2.3403,-2.333,-2.339,-2.3582,-2.3679,-2.3888,-2.418,-2.4809,-2.5234,-2.5556,-2.6386,-2.6608,-2.6582,-2.7262,-2.7565,-2.7715,-2.8331,-2.8874,-2.9347,-3.0214,-3.0721,-3.1188,-3.1956,-3.236,-3.2612,-3.3143,-3.3326,-3.3326,-3.3326,-3.3171,-3.3086,-3.3241,-3.2931,-3.2547,-3.2547,-3.2613,-3.2495,-3.2284,-3.2827,-3.3198,-3.2684,-3.2631,-3.2673,-3.2607,-3.2256,-3.2104,-3.2407,-3.2181,-3.2087,-3.2116,-3.2384,-3.2607,-3.2698,-3.2736,-3.2598,-3.213,-3.1807,-3.1344,-3.0823,-3.14,-3.1766,-3.1743,-3.2535,-3.296,-3.296,-3.3178,-3.3281,-3.3281,-3.3281,-3.3281,-3.3281,-3.3281,-3.3281,-3.3281,-3.3281,-3.3281,-3.3281,-3.3281,-3.3281,-3.3281,-3.3281,-3.3281,-3.3281,-3.3381,-3.3381,-3.3381,-3.0483,-3.0584,-3.0642,-3.0762,-3.0702,-3.0642,-3.0762,-3.0702,-3.0335,-2.9697,-3.0426,-3.0572,-2.9245,-2.9837,-2.9899,-2.8613,-2.8002,-2.7365,-2.6669,-2.737,-2.7475,-2.6721,-2.6594,-2.6035,-2.494,-2.4094,-2.362,-2.3569,-2.3463,-2.3403,-2.339,-2.321,-2.3318,-2.3641,-2.4019,-2.4433,-2.4922,-2.5325,-2.5959,-2.6608,-2.6648,-2.7013,-2.7523,-2.7536,-2.7855,-2.8368,-2.9066,-2.9416,-2.9777,-3.0971,-3.1596,-3.1958,-3.1986,-3.236,-3.286,-3.3171,-3.3326,-3.3326,-3.3326,-3.3016,-3.2846,-3.3241,-3.3368,-3.3396,-3.3396,-3.4381,-3.5004,-3.4134,-3.4676,-3.5151,-3.4443,-3.4079,-3.4086,-3.473,-3.4166,-3.3888,-3.4379,-3.3785,-3.324,-3.3154,-3.3068,-3.2995,-3.2995,-3.2649,-3.2247,-3.1733,-3.2156,-3.2219,-3.1656,-3.1796,-3.1812,-3.1766,-3.2282,-3.2558,-3.2558,-3.304,-3.3281,-3.3281,-3.3281,-3.3281,-3.3281,-3.3281,-3.3281,-3.3281,-3.3281,-3.3281,-3.3281,-3.3281,-3.3381,-3.3381,-3.3381,-3.3381,-3.3381,-3.3679,-3.358,-3.3481,-3.0544,-3.0616,-3.0628,-3.0642,-3.0642,-3.0628,-3.0642,-3.0642,-3.0395,-2.9856,-3.0294,-3.0324,-2.9245,-2.9286,-2.9366,-2.9208,-2.8794,-2.818,-2.7386,-2.7651,-2.7897,-2.8152,-2.7087,-2.6596,-2.6781,-2.4988,-2.3809,-2.3198,-2.333,-2.3463,-2.3569,-2.3497,-2.3628,-2.3832,-2.3756,-2.3795,-2.3966,-2.458,-2.5286,-2.5856,-2.6491,-2.7013,-2.7523,-2.7868,-2.8013,-2.8211,-2.8933,-2.9602,-3.0373,-3.1889,-3.2746,-3.3185,-3.3045,-3.3073,-3.3171,-3.3241,-3.3326,-3.3326,-3.3326,-3.3241,-3.3171,-3.3255,-3.3691,-3.4028,-3.4028,-3.4836,-3.5608,-3.5226,-3.578,-3.6062,-3.5077,-3.5355,-3.5535,-3.4787,-3.4808,-3.4954,-3.5086,-3.4507,-3.3966,-3.3602,-3.2957,-3.2388,-3.2025,-3.2316,-3.226,-3.1766,-3.2229,-3.2129,-3.124,-3.1941,-3.2156,-3.1777,-3.2638,-3.3109,-3.3109,-3.3224,-3.3281,-3.3281,-3.3281,-3.3281,-3.3281,-3.3281,-3.3281,-3.3281,-3.3281,-3.3281,-3.3281,-3.3481,-3.358,-3.3679,-3.3878,-3.3977,-3.3977,-3.3977,-3.3977,-3.3878,-3.0679,-3.0705,-3.0776,-3.0925,-3.0881,-3.0881,-3.0925,-3.0881,-3.0646,-3.0029,-3.0514,-3.0484,-2.9341,-2.9277,-2.9268,-2.9024,-2.9109,-2.8862,-2.8098,-2.8211,-2.8246,-2.8101,-2.7049,-2.6636,-2.6933,-2.5561,-2.4452,-2.3767,-2.3556,-2.3509,-2.3509,-2.3509,-2.3569,-2.3785,-2.4253,-2.4343,-2.4331,-2.5283,-2.5597,-2.5625,-2.6374,-2.6778,-2.7012,-2.763,-2.8186,-2.8705,-2.9484,-3.0528,-3.1664,-3.2319,-3.2821,-3.3157,-3.3157,-3.3157,-3.3157,-3.3241,-3.3326,-3.3326,-3.3326,-3.3381,-3.3447,-3.3533,-3.4217,-3.4734,-3.4293,-3.5088,-3.59,-3.5691,-3.641,-3.6949,-3.6292,-3.6745,-3.7056,-3.6487,-3.623,-3.6042,-3.5789,-3.5182,-3.4538,-3.4121,-3.3202,-3.2462,-3.2111,-3.248,-3.264,-3.2101,-3.2753,-3.27,-3.1433,-3.2087,-3.2259,-3.1777,-3.25,-3.2879,-3.2932,-3.3132,-3.3281,-3.3281,-3.3281,-3.3281,-3.3281,-3.3281,-3.3281,-3.3281,-3.3281,-3.3381,-3.3457,-3.3203,-3.3198,-3.3273,-3.3138,-3.3184,-3.359,-3.3687,-3.4036,-3.4359,-3.0815,-3.0843,-3.087,-3.1232,-3.119,-3.1132,-3.1234,-3.119,-3.0881,-3.0306,-3.0835,-3.0817,-2.9599,-2.9605,-2.9475,-2.8831,-2.934,-2.943,-2.8801,-2.8914,-2.8658,-2.7985,-2.7269,-2.6842,-2.6842,-2.6071,-2.5287,-2.4624,-2.4164,-2.3875,-2.3769,-2.3752,-2.3863,-2.4009,-2.4946,-2.5301,-2.5171,-2.6125,-2.6244,-2.5831,-2.6478,-2.6661,-2.6661,-2.7445,-2.8305,-2.9295,-3.0187,-3.1486,-3.2846,-3.2561,-3.2561,-3.2704,-3.2917,-3.2988,-3.2988,-3.3157,-3.3171,-3.3171,-3.3171,-3.3234,-3.3376,-3.355,-3.4319,-3.4913,-3.4385,-3.526,-3.6234,-3.6032,-3.6809,-3.7457,-3.7303,-3.7672,-3.8052,-3.7976,-3.7414,-3.6858,-3.6466,-3.5683,-3.4964,-3.4647,-3.3713,-3.291,-3.2485,-3.2899,-3.2957,-3.2512,-3.3402,-3.3336,-3.2011,-3.2351,-3.2471,-3.1918,-3.2437,-3.2678,-3.2684,-3.3116,-3.3381,-3.3481,-3.3481,-3.3381,-3.3381,-3.3381,-3.3381,-3.3481,-3.3481,-3.358,-3.3744,-3.3094,-3.3006,-3.3056,-3.2553,-3.2645,-3.3285,-3.349,-3.4053,-3.4738,-3.1016,-3.0905,-3.087,-3.1072,-3.1132,-3.1087,-3.1132,-3.1132,-3.1058,-3.0955,-3.1087,-3.0851,-3.0068,-3.0122,-2.9982,-2.9505,-3.0138,-3.0228,-2.949,-2.9567,-2.9576,-2.931,-2.8651,-2.83,-2.83,-2.7132,-2.6122,-2.5287,-2.519,-2.5209,-2.5269,-2.5279,-2.5353,-2.5527,-2.5683,-2.5709,-2.572,-2.5876,-2.6177,-2.6569,-2.6634,-2.6974,-2.7471,-2.8371,-2.8838,-2.9119,-3.0381,-3.1415,-3.2273,-3.2561,-3.2704,-3.2704,-3.2704,-3.2775,-3.2775,-3.2775,-3.2632,-3.2489,-3.2489,-3.24,-3.2323,-3.2323,-3.2853,-3.354,-3.4122,-3.5586,-3.6866,-3.6866,-3.7092,-3.7303,-3.707,-3.738,-3.7534,-3.6978,-3.7134,-3.7134,-3.6978,-3.6177,-3.5548,-3.5548,-3.4384,-3.333,-3.2461,-3.2875,-3.29,-3.2534,-3.3035,-3.3081,-3.2402,-3.2943,-3.2909,-3.239,-3.2949,-3.3254,-3.3517,-3.3621,-3.3779,-3.3977,-3.3977,-3.3878,-3.3679,-3.3679,-3.3779,-3.3977,-3.3977,-3.3977,-3.4064,-3.4166,-3.413,-3.4216,-3.4352,-3.4461,-3.4521,-3.4618,-3.4666,-3.4726,-3.1183,-3.0813,-3.0639,-3.1287,-3.1054,-3.0862,-3.1248,-3.1307,-3.1307,-3.1307,-3.1307,-3.1188,-3.0891,-3.0862,-3.0651,-3.0148,-3.0702,-3.075,-3.0133,-3.0158,-2.9993,-2.9594,-2.8898,-2.854,-2.8607,-2.7624,-2.6945,-2.6654,-2.5939,-2.585,-2.6282,-2.5821,-2.5839,-2.6342,-2.6188,-2.6218,-2.6295,-2.6295,-2.6374,-2.6531,-2.6661,-2.6752,-2.6999,-2.8168,-2.8858,-2.9306,-3.0612,-3.1416,-3.1877,-3.2009,-3.2082,-3.2082,-3.2228,-3.23,-3.2444,-3.2489,-3.2561,-3.2561,-3.2561,-3.2997,-3.3457,-3.3295,-3.4017,-3.4794,-3.4869,-3.5489,-3.6111,-3.627,-3.6744,-3.6978,-3.6508,-3.69,-3.7148,-3.69,-3.6978,-3.6993,-3.6693,-3.6298,-3.5629,-3.4345,-3.4024,-3.3604,-3.295,-3.3411,-3.3805,-3.3799,-3.3985,-3.3824,-3.2978,-3.333,-3.3307,-3.2926,-3.3284,-3.3568,-3.3732,-3.3668,-3.3854,-3.4115,-3.3965,-3.3878,-3.3878,-3.3878,-3.3977,-3.4075,-3.4075,-3.4162,-3.4225,-3.3918,-3.3622,-3.3338,-3.3066,-3.3019,-3.3433,-3.4219,-3.4543,-3.4359]},{"header":{"parameterUnit":"m.s-1","parameterCategory":1,"la1":30.6,"la2":28.766,"lo1":-90.7593,"lo2":-88.6598,"dy":0.0162,"dx":0.0183,"nx":116,"ny":114,"refTime":"2023-04-30T00:00:00:Z","depth":0,"parameterNumber":3,"parameterNumberName":"V-component_of_WINDS"},"data":[0.0,0.0,0.0,0.0,0.0,0.0,0.0,0.0,0.0,0.0,0.0,0.0,0.0,0.0,0.0,0.0,0.0,0.0,0.0,0.0,0.0,0.0,0.0,0.0,0.0,0.0,0.0,0.0,0.0,0.0,0.0,0.0,0.0,0.0,0.0,0.0,0.0,0.0,0.0,0.0,0.0,0.0,0.0,0.0,0.0,0.0,0.0,0.0,0.0,0.0,0.0,0.0,0.0,0.0,0.0,0.0,0.0,0.0,0.0,0.0,0.0,0.0,0.0,0.0,0.0,0.0,0.0,0.0,0.0,0.0,0.0,0.0,0.0,0.0,0.0,0.0,0.0,0.0,0.0,0.0,0.0,0.0,0.0,0.0,0.0,0.0,0.0,0.0,0.0,0.0,0.0,0.0,0.0,0.0,0.0,0.0,0.0,0.0,0.0,0.0,0.0,0.0,0.0,0.0,0.0,0.0,0.0,0.0,0.0,0.0,0.0,0.0,0.0,0.0,0.0,0.0,0.0,0.0,0.0,0.0,0.0,0.0,0.0,0.0,0.0,0.0,0.0,0.0,0.0,0.0,0.0,0.0,0.0,0.0,0.0,0.0,0.0,0.0,0.0,0.0,0.0,0.0,0.0,0.0,0.0,0.0,0.0,0.0,0.0,0.0,0.0,0.0,0.0,0.0,0.0,0.0,0.0,0.0,0.0,0.0,0.0,0.0,0.0,0.0,0.0,0.0,0.0,0.0,0.0,0.0,0.0,0.0,0.0,0.0,0.0,0.0,0.0,0.0,0.0,0.0,0.0,0.0,0.0,0.0,0.0,0.0,0.0,0.0,0.0,0.0,0.0,0.0,0.0,0.0,0.0,0.0,0.0,0.0,0.0,0.0,0.0,0.0,0.0,0.0,0.0,0.0,0.0,0.0,0.0,0.0,0.0,0.0,0.0,0.0,0.0,0.0,0.0,0.0,0.0,0.0,0.0,0.0,0.0,0.0,0.0,0.0,0.0,0.0,0.0,0.0,0.0,0.0,0.0,0.0,0.0,0.0,0.0,0.0,0.0,0.0,0.0,0.0,0.0,0.0,0.0,0.0,0.0,0.0,0.0,0.0,0.0,0.0,0.0,0.0,0.0,0.0,0.0,0.0,0.0,0.0,0.0,0.0,0.0,0.0,0.0,0.0,0.0,0.0,0.0,0.0,0.0,0.0,0.0,0.0,0.0,0.0,0.0,0.0,0.0,0.0,0.0,0.0,0.0,0.0,0.0,0.0,0.0,0.0,0.0,0.0,0.0,0.0,0.0,0.0,0.0,0.0,0.0,0.0,0.0,0.0,0.0,0.0,0.0,0.0,0.0,0.0,0.0,0.0,0.0,0.0,0.0,0.0,0.0,0.0,0.0,0.0,0.0,0.0,0.0,0.0,0.0,0.0,0.0,0.0,0.0,0.0,0.0,0.0,0.0,0.0,0.0,0.0,0.0,0.0,0.0,0.0,0.0,0.0,0.0,0.0,0.0,0.0,0.0,0.0,0.0,0.0,0.0,0.0,0.0,0.0,0.0,0.0,0.0,0.0,0.0,0.0,0.0,0.0,0.0,0.0,0.0,0.0,0.0,0.0,0.0,0.0,0.0,0.0,0.0,0.0,0.0,0.0,0.0,0.0,0.0,0.0,0.0,0.0,0.0,0.0,0.0,0.0,0.0,0.0,0.0,0.0,0.0,0.0,0.0,0.0,0.0,0.0,0.0,0.0,0.0,0.0,0.0,0.0,0.0,0.0,0.0,0.0,0.0,0.0,0.0,0.0,0.0,0.0,0.0,0.0,0.0,0.0,0.0,0.0,0.0,0.0,0.0,0.0,0.0,0.0,0.0,0.0,0.0,0.0,0.0,0.0,0.0,0.0,0.0,0.0,0.0,0.0,0.0,0.0,0.0,0.0,0.0,0.0,0.0,0.0,0.0,0.0,0.0,0.0,0.0,0.0,0.0,0.0,0.0,0.0,0.0,0.0,0.0,0.0,0.0,0.0,0.0,0.0,0.0,0.0,0.0,0.0,0.0,0.0,0.0,0.0,0.0,0.0,0.0,0.0,0.0,0.0,0.0,0.0,0.0,0.0,0.0,0.0,0.0,0.0,0.0,0.0,0.0,0.0,0.0,0.0,0.0,0.0,0.0,0.0,0.0,0.0,0.0,0.0,0.0,0.0,0.0,0.0,0.0,0.0,0.0,0.0,0.0,0.0,0.0,0.0,0.0,0.0,0.0,0.0,0.0,0.0,0.0,0.0,0.0,0.0,0.0,0.0,0.0,0.0,0.0,0.0,0.0,0.0,0.0,0.0,0.0,0.0,0.0,0.0,0.0,0.0,0.0,0.0,0.0,0.0,0.0,0.0,0.0,0.0,0.0,0.0,0.0,0.0,0.0,0.0,0.0,0.0,0.0,0.0,0.0,0.0,0.0,0.0,0.0,0.0,0.0,0.0,0.0,0.0,0.0,0.0,0.0,0.0,0.0,0.0,0.0,0.0,0.0,0.0,0.0,0.0,0.0,0.0,0.0,0.0,0.0,0.0,0.0,0.0,0.0,0.0,0.0,0.0,0.0,0.0,0.0,0.0,0.0,0.0,0.0,0.0,0.0,0.0,0.0,0.0,0.0,0.0,0.0,0.0,0.0,0.0,0.0,0.0,0.0,0.0,0.0,0.0,0.0,0.0,0.0,0.0,0.0,0.0,0.0,0.0,0.0,0.0,0.0,0.0,0.0,0.0,0.0,0.0,0.0,0.0,0.0,0.0,0.0,0.0,0.0,0.0,0.0,0.0,0.0,0.0,0.0,0.0,0.0,0.0,0.0,0.0,0.0,0.0,0.0,0.0,0.0,0.0,0.0,0.0,0.0,0.0,0.0,0.0,0.0,0.0,0.0,0.0,0.0,0.0,0.0,0.0,0.0,0.0,0.0,0.0,0.0,0.0,0.0,0.0,0.0,0.0,0.0,0.0,0.0,0.0,0.0,0.0,0.0,0.0,0.0,0.0,0.0,0.0,0.0,0.0,0.0,0.0,0.0,0.0,0.0,0.0,0.0,0.0,0.0,0.0,0.0,0.0,0.0,0.0,0.0,0.0,0.0,0.0,0.0,0.0,0.0,0.0,0.0,0.0,0.0,0.0,0.0,0.0,0.0,0.0,0.0,0.0,0.0,0.0,0.0,0.0,0.0,0.0,0.0,0.0,0.0,0.0,0.0,0.0,0.0,0.0,0.0,0.0,0.0,0.0,0.0,0.0,0.0,0.0,0.0,0.0,0.0,0.0,0.0,0.0,0.0,0.0,0.0,0.0,0.0,0.0,0.0,0.0,0.0,0.0,0.0,0.0,0.0,0.0,0.0,0.0,0.0,0.0,0.0,0.0,0.0,0.0,0.0,0.0,0.0,0.0,0.0,0.0,0.0,0.0,0.0,0.0,0.0,0.0,0.0,0.0,0.0,0.0,0.0,0.0,0.0,0.0,0.0,0.0,0.0,0.0,0.0,0.0,0.0,0.0,0.0,0.0,0.0,0.0,0.0,0.0,0.0,0.0,0.0,0.0,0.0,0.0,0.0,0.0,0.0,0.0,0.0,0.0,0.0,0.0,0.0,0.0,0.0,0.0,0.0,0.0,0.0,0.0,0.0,0.0,0.0,0.0,0.0,0.0,0.0,0.0,0.0,0.0,0.0,0.0,0.0,0.0,0.0,0.0,0.0,0.0,0.0,0.0,0.0,0.0,0.0,0.0,0.0,0.0,0.0,0.0,0.0,0.0,0.0,0.0,0.0,0.0,0.0,0.0,0.0,0.0,0.0,0.0,0.0,0.0,0.0,0.0,0.0,0.0,0.0,0.0,0.0,0.0,0.0,0.0,0.0,0.0,0.0,0.0,0.0,0.0,0.0,0.0,0.0,0.0,0.0,0.0,0.0,0.0,0.0,0.0,0.0,0.0,0.0,0.0,0.0,0.0,0.0,0.0,0.0,0.0,0.0,0.0,0.0,0.0,0.0,0.0,0.0,0.0,0.0,0.0,0.0,0.0,0.0,0.0,0.0,0.0,0.0,0.0,0.0,0.0,0.0,0.0,0.0,0.0,0.0,0.0,0.0,0.0,0.0,0.0,0.0,0.0,0.0,0.0,0.0,0.0,0.0,0.0,0.0,0.0,0.0,0.0,0.0,0.0,0.0,0.0,0.0,0.0,0.0,0.0,0.0,0.0,0.0,0.0,0.0,0.0,0.0,0.0,0.0,0.0,0.0,0.0,0.0,0.0,0.0,0.0,0.0,0.0,0.0,0.0,0.0,0.0,0.0,0.0,0.0,0.0,0.0,0.0,0.0,0.0,0.0,0.0,0.0,0.0,0.0,0.0,0.0,0.0,0.0,0.0,0.0,0.0,0.0,0.0,0.0,0.0,0.0,0.0,0.0,0.0,0.0,0.0,0.0,0.0,0.0,0.0,0.0,0.0,0.0,0.0,0.0,0.0,0.0,0.0,0.0,0.0,0.0,0.0,0.0,0.0,0.0,0.0,0.0,0.0,0.0,0.0,0.0,0.0,0.0,0.0,0.0,0.0,0.0,0.0,0.0,0.0,0.0,0.0,0.0,0.0,0.0,0.0,0.0,0.0,0.0,0.0,0.0,0.0,0.0,0.0,0.0,0.0,0.0,0.0,0.0,0.0,0.0,0.0,0.0,0.0,0.0,0.0,0.0,0.0,0.0,0.0,0.0,0.0,0.0,0.0,0.0,0.0,0.0,0.0,0.0,0.0,0.0,0.0,0.0,0.0,0.0,0.0,0.0,0.0,0.0,0.0,0.0,0.0,0.0,0.0,0.0,0.0,0.0,0.0,0.0,0.0,0.0,0.0,0.0,0.0,0.0,0.0,0.0,0.0,0.0,0.0,0.0,0.0,0.0,0.0,0.0,0.0,0.0,0.0,0.0,0.0,0.0,0.0,0.0,0.0,0.0,0.0,0.0,0.0,0.0,0.0,0.0,0.0,0.0,0.0,0.0,0.0,0.0,0.0,0.0,0.0,0.0,0.0,0.0,0.0,0.0,0.0,0.0,0.0,0.0,0.0,0.0,0.0,0.0,0.0,0.0,0.0,0.0,0.0,0.0,0.0,0.0,0.0,0.0,0.0,0.0,0.0,0.0,0.0,0.0,0.0,0.0,0.0,0.0,0.0,0.0,0.0,0.0,0.0,0.0,0.0,0.0,0.0,0.0,0.0,0.0,0.0,0.0,0.0,0.0,0.0,0.0,0.0,0.0,0.0,0.0,0.0,0.0,0.0,0.0,0.0,0.0,0.0,0.0,0.0,0.0,0.0,0.0,0.0,0.0,0.0,0.0,0.0,0.0,0.0,0.0,0.0,0.0,0.0,0.0,0.0,0.0,0.0,0.0,0.0,0.0,0.0,0.0,0.0,0.0,0.0,0.0,0.0,0.0,0.0,0.0,0.0,0.0,0.0,0.0,0.0,0.0,0.0,0.0,0.0,0.0,0.0,0.0,0.0,0.0,0.0,0.0,0.0,0.0,0.0,0.0,0.0,0.0,0.0,0.0,0.0,0.0,0.0,0.0,0.0,0.0,0.0,0.0,0.0,0.0,0.0,0.0,0.0,0.0,0.0,0.0,0.0,0.0,0.0,0.0,0.0,0.0,0.0,0.0,0.0,0.0,0.0,0.0,0.0,0.0,0.0,0.0,0.0,0.0,0.0,0.0,0.0,0.0,0.0,0.0,0.0,0.0,0.0,0.0,0.0,0.0,0.0,0.0,0.0,0.0,0.0,0.0,0.0,0.0,0.0,0.0,0.0,0.0,0.0,0.0,0.0,0.0,0.0,0.0,0.0,0.0,0.0,0.0,0.0,0.0,0.0,0.0,0.0,0.0,0.0,0.0,0.0,0.0,0.0,0.0,0.0,0.0,0.0,0.0,0.0,0.0,0.0,0.0,0.0,0.0,0.0,0.0,0.0,0.0,0.0,0.0,0.0,0.0,0.0,0.0,0.0,0.0,0.0,0.0,0.0,0.0,0.0,0.0,0.0,0.0,0.0,0.0,0.0,0.0,0.0,0.0,0.0,0.0,0.0,0.0,0.0,0.0,0.0,-2.444,0.0,0.0,0.0,0.0,0.0,0.0,0.0,0.0,0.0,0.0,0.0,0.0,0.0,0.0,0.0,0.0,0.0,0.0,0.0,0.0,0.0,0.0,0.0,0.0,0.0,0.0,0.0,0.0,0.0,0.0,0.0,0.0,0.0,0.0,0.0,0.0,0.0,0.0,0.0,0.0,0.0,0.0,0.0,0.0,0.0,0.0,0.0,0.0,0.0,0.0,0.0,0.0,0.0,0.0,0.0,0.0,0.0,0.0,0.0,0.0,0.0,0.0,0.0,0.0,0.0,0.0,0.0,0.0,0.0,0.0,0.0,0.0,0.0,0.0,0.0,0.0,0.0,0.0,0.0,0.0,0.0,0.0,0.0,0.0,0.0,0.0,0.0,0.0,0.0,0.0,0.0,0.0,0.0,0.0,0.0,0.0,0.0,0.0,0.0,0.0,0.0,0.0,0.0,0.0,0.0,0.0,0.0,0.0,0.0,0.0,0.0,0.0,0.0,0.0,0.0,0.0,-2.6013,0.0,0.0,0.0,0.0,0.0,0.0,0.0,0.0,0.0,0.0,0.0,0.0,0.0,0.0,0.0,0.0,0.0,0.0,0.0,0.0,0.0,0.0,0.0,0.0,0.0,0.0,0.0,0.0,0.0,0.0,0.0,0.0,0.0,0.0,0.0,0.0,0.0,0.0,0.0,0.0,0.0,0.0,0.0,0.0,0.0,0.0,0.0,0.0,0.0,0.0,0.0,0.0,0.0,0.0,0.0,0.0,0.0,0.0,0.0,0.0,0.0,0.0,0.0,0.0,0.0,0.0,0.0,0.0,0.0,0.0,0.0,0.0,0.0,0.0,0.0,0.0,0.0,0.0,0.0,0.0,0.0,0.0,0.0,0.0,0.0,0.0,0.0,0.0,0.0,0.0,0.0,0.0,0.0,0.0,0.0,0.0,0.0,0.0,0.0,0.0,0.0,0.0,0.0,0.0,0.0,0.0,0.0,0.0,-3.1681,-3.2524,-3.2724,-3.3882,-3.3894,-3.2997,-3.1881,-3.0934,-3.0063,-2.8595,0.0,0.0,0.0,0.0,0.0,0.0,0.0,0.0,0.0,0.0,0.0,0.0,0.0,0.0,0.0,0.0,0.0,0.0,0.0,0.0,0.0,0.0,0.0,0.0,0.0,0.0,0.0,0.0,0.0,0.0,0.0,0.0,0.0,0.0,0.0,0.0,0.0,0.0,0.0,0.0,0.0,0.0,0.0,0.0,0.0,0.0,0.0,0.0,0.0,0.0,0.0,0.0,0.0,0.0,0.0,0.0,0.0,0.0,0.0,0.0,0.0,0.0,0.0,0.0,0.0,0.0,0.0,0.0,0.0,0.0,0.0,0.0,0.0,0.0,0.0,0.0,0.0,0.0,0.0,0.0,0.0,0.0,0.0,0.0,0.0,0.0,-1.732,-1.9555,0.0,0.0,0.0,0.0,0.0,0.0,0.0,0.0,0.0,0.0,0.0,0.0,0.0,-2.7969,-2.9246,-3.2501,-3.4177,-3.4352,-3.762,-3.9136,-3.9042,-4.0682,-4.1105,-4.0449,-3.9617,0.0,-3.431,-3.2096,0.0,0.0,0.0,0.0,0.0,0.0,0.0,0.0,0.0,0.0,0.0,0.0,0.0,0.0,0.0,0.0,0.0,0.0,0.0,0.0,0.0,0.0,0.0,0.0,0.0,0.0,0.0,0.0,0.0,0.0,0.0,0.0,0.0,0.0,0.0,0.0,0.0,0.0,0.0,0.0,0.0,0.0,0.0,0.0,0.0,0.0,0.0,0.0,0.0,0.0,0.0,0.0,0.0,0.0,0.0,0.0,0.0,0.0,0.0,0.0,0.0,0.0,0.0,0.0,0.0,0.0,0.0,0.0,0.0,0.0,0.0,0.0,0.0,0.0,0.0,0.0,0.0,0.0,0.0,0.0,0.0,0.0,0.0,0.0,0.0,-1.7811,-2.027,-2.028,-2.2187,-2.2002,0.0,0.0,0.0,0.0,0.0,0.0,0.0,0.0,0.0,-2.8594,-3.1784,-3.3406,-3.3283,-3.7988,-4.0674,-4.137,-4.381,-4.5418,-4.6245,-4.6707,-4.6777,-4.646,-4.5954,-4.4747,-4.2791,-3.8173,-3.6273,-3.5987,0.0,0.0,0.0,0.0,-3.0707,-3.2202,0.0,0.0,0.0,0.0,0.0,0.0,0.0,0.0,0.0,0.0,0.0,0.0,0.0,0.0,0.0,0.0,0.0,0.0,0.0,0.0,0.0,0.0,0.0,0.0,0.0,0.0,0.0,0.0,0.0,0.0,0.0,0.0,0.0,0.0,0.0,0.0,0.0,0.0,0.0,0.0,0.0,0.0,0.0,0.0,0.0,0.0,0.0,0.0,0.0,0.0,0.0,0.0,0.0,0.0,0.0,0.0,0.0,0.0,0.0,0.0,0.0,0.0,0.0,0.0,0.0,0.0,0.0,0.0,0.0,0.0,0.0,0.0,0.0,0.0,0.0,0.0,0.0,-2.0572,-2.3089,-2.2199,-2.524,-2.5745,0.0,0.0,0.0,0.0,0.0,0.0,-3.008,-3.1862,-3.3265,-3.4217,-3.8011,-3.9663,-3.8839,-4.3676,-4.6654,-4.7814,-4.8802,-5.0011,-5.1287,-5.0934,-5.071,-5.0609,-5.06,-5.0322,-4.9368,-4.3494,-4.0561,-3.96,-3.8756,-3.7759,-3.6699,-3.5891,-3.6137,-3.693,0.0,0.0,0.0,0.0,0.0,0.0,0.0,0.0,0.0,0.0,0.0,0.0,0.0,0.0,0.0,0.0,0.0,0.0,0.0,0.0,0.0,0.0,0.0,0.0,0.0,0.0,0.0,0.0,0.0,0.0,0.0,0.0,0.0,0.0,0.0,0.0,0.0,0.0,0.0,0.0,0.0,0.0,0.0,0.0,0.0,0.0,0.0,0.0,0.0,0.0,0.0,0.0,0.0,0.0,0.0,0.0,0.0,0.0,0.0,0.0,0.0,0.0,0.0,0.0,0.0,0.0,0.0,0.0,0.0,0.0,0.0,0.0,0.0,0.0,0.0,0.0,0.0,0.0,0.0,-2.7251,-3.3072,0.0,0.0,0.0,0.0,-2.9016,-3.0514,-3.2998,-3.6266,-3.7801,-4.0095,-4.3413,-4.6277,-4.7932,-4.8387,-5.0092,-5.1386,-5.2183,-5.1602,-5.1772,-5.2497,-5.254,-5.2292,-5.1966,-5.3122,-5.2657,-5.0838,-4.6438,-4.5401,-4.6028,-4.1204,-4.0154,-4.1,-3.8023,-3.8623,-4.079,0.0,0.0,0.0,0.0,0.0,0.0,0.0,0.0,0.0,0.0,0.0,0.0,0.0,0.0,0.0,0.0,0.0,0.0,0.0,0.0,0.0,0.0,0.0,0.0,0.0,0.0,0.0,0.0,0.0,0.0,0.0,0.0,0.0,0.0,0.0,0.0,0.0,0.0,0.0,0.0,0.0,0.0,0.0,0.0,0.0,0.0,0.0,0.0,0.0,0.0,0.0,0.0,0.0,0.0,0.0,0.0,0.0,0.0,0.0,0.0,0.0,0.0,0.0,0.0,0.0,0.0,0.0,0.0,0.0,0.0,0.0,0.0,0.0,0.0,0.0,0.0,0.0,0.0,0.0,-3.1297,-3.5615,0.0,-3.3865,-3.4621,-3.522,-3.5042,-3.7752,-4.0455,-4.2903,-4.4979,-4.6729,-4.8101,-4.9682,-5.0769,-5.1262,-5.1416,-5.2091,-5.3357,-5.2693,-5.2705,-5.3444,-5.3632,-5.3414,-5.3048,-5.364,-5.3139,-5.1745,-4.9723,-4.8514,-4.7782,-4.5813,-4.5252,-4.5355,-4.4207,-4.4529,-4.5467,0.0,0.0,0.0,0.0,0.0,0.0,0.0,0.0,0.0,0.0,0.0,0.0,0.0,0.0,0.0,0.0,0.0,0.0,0.0,0.0,0.0,0.0,0.0,0.0,0.0,0.0,0.0,0.0,0.0,0.0,0.0,0.0,0.0,0.0,0.0,0.0,0.0,0.0,0.0,0.0,0.0,0.0,-1.6804,0.0,0.0,0.0,0.0,0.0,0.0,0.0,0.0,0.0,0.0,0.0,0.0,0.0,0.0,0.0,0.0,0.0,0.0,0.0,0.0,0.0,0.0,0.0,0.0,0.0,0.0,0.0,0.0,0.0,0.0,0.0,0.0,0.0,0.0,0.0,-3.2816,-3.53,-3.9069,-4.0796,-3.9197,-3.9804,-4.0841,-4.2056,-4.4799,-4.7166,-4.8896,-5.029,-5.1239,-5.1586,-5.2251,-5.2772,-5.2992,-5.2572,-5.2958,-5.4136,-5.3116,-5.3061,-5.4007,-5.3916,-5.3888,-5.3865,-5.4328,-5.386,-5.2614,-5.1807,-5.0542,-4.918,-4.8954,-4.8709,-4.842,-4.8266,-4.8351,-4.8387,0.0,0.0,0.0,0.0,0.0,0.0,0.0,0.0,0.0,0.0,0.0,0.0,0.0,0.0,0.0,0.0,0.0,0.0,0.0,0.0,0.0,0.0,0.0,0.0,0.0,0.0,0.0,0.0,0.0,0.0,0.0,0.0,0.0,0.0,0.0,0.0,0.0,0.0,0.0,0.0,0.0,0.0,-2.1142,0.0,0.0,0.0,0.0,0.0,0.0,0.0,0.0,0.0,0.0,0.0,0.0,0.0,0.0,0.0,0.0,0.0,0.0,0.0,0.0,0.0,0.0,0.0,0.0,0.0,0.0,0.0,0.0,0.0,0.0,0.0,0.0,0.0,-2.468,-3.2401,-3.8302,-3.9462,-4.3837,-4.6419,-4.5491,-4.7638,-4.9355,-4.9972,-5.1216,-5.2547,-5.3927,-5.343,-5.3426,-5.4025,-5.407,-5.3999,-5.3882,-5.3834,-5.412,-5.4752,-5.3034,-5.2881,-5.4146,-5.3596,-5.3688,-5.4411,-5.5259,-5.481,-5.3488,-5.2555,-5.1529,-5.0461,-5.0241,-5.0131,-5.0057,-4.9668,-4.9501,-4.9329,0.0,0.0,0.0,0.0,0.0,0.0,0.0,0.0,0.0,0.0,0.0,0.0,0.0,0.0,0.0,0.0,0.0,0.0,0.0,0.0,0.0,0.0,0.0,0.0,0.0,0.0,0.0,0.0,0.0,0.0,0.0,0.0,0.0,0.0,0.0,0.0,0.0,0.0,0.0,0.0,0.0,0.0,-2.4303,0.0,0.0,0.0,0.0,0.0,0.0,0.0,0.0,0.0,0.0,0.0,0.0,0.0,0.0,0.0,0.0,0.0,0.0,0.0,0.0,0.0,0.0,0.0,0.0,0.0,0.0,0.0,0.0,0.0,0.0,0.0,0.0,-3.3638,-3.3826,-3.7381,-4.1434,-4.5425,-4.879,-5.0639,-5.0172,-5.0982,-5.1877,-5.2667,-5.2863,-5.3044,-5.3283,-5.2323,-5.1546,-5.1012,-5.0845,-5.1023,-5.1439,-5.2271,-5.2973,-5.3594,-5.2992,-5.2925,-5.3242,-5.325,-5.3337,-5.3402,-5.1357,-5.0985,-5.1898,-5.1485,-5.085,-5.0058,-5.0317,-5.0237,-4.9944,-4.9866,-4.9788,-4.9457,0.0,0.0,0.0,0.0,0.0,0.0,0.0,0.0,0.0,0.0,0.0,0.0,0.0,0.0,0.0,0.0,0.0,0.0,0.0,0.0,0.0,0.0,0.0,0.0,0.0,0.0,0.0,0.0,0.0,0.0,0.0,0.0,0.0,0.0,0.0,0.0,0.0,0.0,0.0,0.0,0.0,0.0,-2.8791,-2.7703,-2.4851,-2.1606,-2.3226,-2.3663,-2.3218,-2.1172,0.0,0.0,0.0,0.0,0.0,0.0,0.0,0.0,0.0,0.0,0.0,0.0,0.0,0.0,0.0,0.0,0.0,0.0,0.0,0.0,0.0,0.0,0.0,0.0,-3.4889,-4.0202,-4.3091,-4.4097,-4.5956,-4.9786,-5.1352,-5.2468,-5.328,-5.3497,-5.3845,-5.4647,-5.4338,-5.4027,-5.3928,-5.2743,-5.149,-5.016,-5.0705,-5.0913,-5.0559,-5.1776,-5.2708,-5.3416,-5.2822,-5.2844,-5.3423,-5.3262,-5.3326,-5.3437,-5.1155,-5.0637,-5.1262,-5.11,-5.0595,0.0,0.0,0.0,0.0,0.0,-4.9489,-4.9268,0.0,0.0,0.0,0.0,0.0,0.0,0.0,0.0,0.0,0.0,0.0,0.0,0.0,0.0,0.0,0.0,0.0,0.0,0.0,0.0,0.0,0.0,0.0,0.0,0.0,0.0,0.0,0.0,0.0,0.0,0.0,0.0,0.0,0.0,0.0,0.0,0.0,0.0,0.0,0.0,0.0,0.0,-3.4215,-3.1181,-2.97,-2.9077,-2.7673,-2.6179,-2.4927,-2.5245,0.0,0.0,0.0,0.0,0.0,0.0,0.0,0.0,0.0,0.0,0.0,0.0,0.0,0.0,0.0,0.0,0.0,0.0,0.0,0.0,0.0,0.0,0.0,0.0,-3.9409,-4.4219,-5.0963,-5.0798,-5.0721,-5.2707,-5.2426,-5.2826,-5.4858,-5.4968,-5.5116,-5.5731,-5.5242,-5.4912,-5.4939,0.0,0.0,0.0,0.0,-5.19,-5.051,-5.1942,-5.3004,-5.3659,-5.2673,-5.2902,-5.4087,-5.3487,-5.3449,-5.3766,-5.306,-5.2028,-5.1076,-5.1049,-5.0388,-4.933,-4.8384,-4.8372,-4.8844,-4.8435,-4.8608,-4.8922,0.0,0.0,0.0,0.0,0.0,0.0,0.0,0.0,0.0,0.0,0.0,0.0,0.0,0.0,0.0,0.0,0.0,0.0,0.0,0.0,0.0,0.0,0.0,0.0,0.0,0.0,0.0,0.0,0.0,0.0,0.0,0.0,0.0,0.0,0.0,0.0,0.0,0.0,0.0,0.0,0.0,0.0,-4.0148,-3.8683,-3.7156,-3.5649,-3.4659,-3.412,-3.3307,-2.9437,-2.8676,-2.8991,-2.6952,0.0,0.0,0.0,0.0,0.0,0.0,0.0,0.0,0.0,0.0,0.0,0.0,0.0,0.0,0.0,0.0,0.0,0.0,0.0,0.0,-4.0077,-4.4324,-4.8111,-5.095,-5.1665,-5.2373,-5.3634,-5.3638,-5.375,-5.4161,-5.4137,-5.4146,-5.4331,-5.3717,-5.3382,-5.3415,-5.1069,-4.9831,-5.0057,-4.9562,-4.9347,-4.9663,-5.1894,-5.3033,-5.3191,0.0,0.0,-5.4103,-5.3976,-5.334,-5.2336,-5.2568,-5.1647,-5.0095,-5.0107,-4.9042,-4.7455,-4.8385,-4.8791,-4.8553,-4.5785,-4.6524,-4.8507,0.0,0.0,0.0,0.0,0.0,0.0,0.0,0.0,0.0,0.0,0.0,0.0,0.0,0.0,0.0,0.0,0.0,0.0,0.0,0.0,0.0,0.0,0.0,0.0,0.0,0.0,0.0,0.0,0.0,0.0,0.0,0.0,0.0,0.0,0.0,0.0,0.0,0.0,0.0,0.0,0.0,0.0,-4.3071,-4.1239,-3.9975,-3.8996,-3.786,-3.6939,-3.5815,-3.299,-3.2131,-3.1961,-3.0327,-2.8602,-2.6464,0.0,0.0,0.0,0.0,0.0,0.0,0.0,0.0,0.0,0.0,0.0,0.0,0.0,0.0,-2.9667,0.0,0.0,-3.8782,-4.3313,-4.5768,-4.8241,-5.1563,-5.1842,-5.2138,-5.3444,-5.3515,-5.3552,-5.3783,-5.3662,-5.3585,-5.3511,-5.3039,-5.2511,-5.1941,-5.0466,-4.9126,-4.7991,-4.8984,-4.9275,-4.8883,-5.1677,-5.3154,-5.3255,-5.3585,-5.3434,-5.2858,-5.3274,-5.2531,-5.1046,-5.1848,-5.1499,-5.0311,-4.9902,-4.8756,-4.7362,-4.8104,-4.7923,-4.7228,-4.5815,-4.6448,-4.7698,0.0,0.0,0.0,0.0,0.0,0.0,0.0,0.0,0.0,0.0,0.0,0.0,0.0,0.0,0.0,0.0,0.0,0.0,0.0,0.0,0.0,0.0,0.0,0.0,0.0,0.0,0.0,0.0,0.0,0.0,0.0,0.0,0.0,0.0,0.0,0.0,0.0,0.0,0.0,0.0,0.0,0.0,-4.4247,-4.1987,-4.0966,-4.0602,-3.921,-3.7528,-3.5874,-3.5231,-3.4193,-3.3071,-3.2434,-3.2251,-3.0961,-2.4454,-2.3854,0.0,0.0,0.0,0.0,0.0,0.0,0.0,0.0,0.0,-2.6593,-2.8386,-3.1345,-3.4129,-3.5927,-3.7981,-4.1066,-4.604,-4.661,-4.7916,-5.2056,-5.1451,-5.1105,-5.2264,-5.2555,-5.2773,-5.3112,-5.2765,-5.2571,-5.2547,-5.213,-5.1452,-5.0695,-5.018,-4.9053,-4.6945,-4.9205,-4.9864,-4.8782,-5.1271,-5.2587,-5.28,-5.28,-5.2395,-5.1621,-5.2048,-5.1604,-5.0397,-5.111,-5.1095,-5.0508,-4.9829,-4.8812,-4.7767,-4.7651,-4.6859,-4.586,-4.65,-4.6771,-4.6936,0.0,0.0,0.0,0.0,0.0,0.0,0.0,0.0,0.0,0.0,0.0,0.0,0.0,0.0,0.0,0.0,0.0,0.0,0.0,0.0,0.0,0.0,0.0,0.0,0.0,0.0,0.0,0.0,0.0,0.0,0.0,0.0,0.0,0.0,0.0,0.0,0.0,0.0,0.0,0.0,0.0,0.0,-4.3954,-4.3005,-4.2006,-4.0874,-3.9527,-3.7513,-3.5359,-3.4584,-3.4275,-3.4225,-3.4202,-3.3718,-3.2472,-2.9021,0.0,-2.5013,-1.979,-1.6531,-1.5546,-1.9361,-2.1616,-2.4198,0.0,0.0,-3.669,-3.6429,-4.0384,-4.3999,-4.427,-4.5965,-4.782,-4.942,-4.9546,-4.9915,-5.1447,-5.0523,-4.9719,-4.9667,-5.0633,-5.1294,-5.1369,-5.0695,-5.0246,-5.0306,-4.9517,-4.9259,-4.9801,-4.9171,-4.9174,-5.0159,-4.9912,-4.9962,-5.0246,-5.0638,-5.0695,-5.0674,-5.0674,-5.0956,-5.1621,-5.1173,-5.1016,-5.1075,-5.0264,-4.9892,-4.9722,-4.9059,-4.842,-4.7724,-4.7158,-4.6508,-4.5931,-4.6004,-4.6398,-4.6716,0.0,0.0,0.0,0.0,0.0,0.0,0.0,0.0,0.0,0.0,0.0,0.0,0.0,0.0,0.0,0.0,0.0,0.0,0.0,0.0,0.0,0.0,0.0,0.0,0.0,0.0,0.0,0.0,0.0,0.0,0.0,0.0,0.0,0.0,0.0,0.0,0.0,0.0,0.0,0.0,0.0,0.0,-4.3746,-4.2028,-4.0152,-3.8153,-3.6021,-3.4,0.0,0.0,-3.077,-3.1465,-3.261,-3.1677,-2.9721,-2.7459,-2.5207,0.0,-2.0495,-2.1201,0.0,0.0,-2.9148,-3.3214,-3.6245,-3.8813,-4.0737,-4.1415,-4.398,-4.6105,-4.6074,-4.6048,-4.6741,0.0,-4.7868,-4.7651,-5.0212,-4.9229,-4.7813,-4.6727,-4.6065,-4.5849,-4.6307,-4.8481,-4.9004,-4.704,-4.8635,-4.9742,-4.9774,-4.9152,-4.8892,-4.9179,-4.883,-4.885,-4.9178,-4.956,-4.9772,-4.9925,-4.9925,-4.9732,-4.9538,-4.9553,-4.9693,-4.9805,-4.8981,-4.8783,-4.9074,-4.8435,-4.7796,-4.7201,-4.694,-4.6446,-4.588,-4.588,-4.6055,-4.6243,0.0,0.0,0.0,0.0,0.0,0.0,0.0,0.0,0.0,0.0,0.0,0.0,0.0,0.0,0.0,0.0,0.0,0.0,0.0,0.0,0.0,0.0,0.0,0.0,0.0,0.0,0.0,0.0,0.0,0.0,0.0,0.0,0.0,0.0,0.0,0.0,0.0,0.0,0.0,0.0,0.0,0.0,-4.2659,-4.0523,-3.7511,-3.4168,-3.2201,-3.0296,0.0,0.0,-2.6768,-2.8085,-2.8716,-2.8296,-2.7155,-2.5206,-2.2768,-2.0844,-2.1567,0.0,0.0,-3.0757,-3.5174,-3.9356,-4.1603,-4.2789,-4.3725,-4.4883,-4.5791,-4.6341,-4.6277,-4.5066,-4.4992,-4.7703,-4.6093,-4.5603,-4.8875,-4.7528,-4.548,-4.3472,-4.1594,-4.0214,-3.9595,-4.4373,-4.69,-4.5521,-4.7873,-4.9273,-4.9025,-4.8356,-4.7838,-4.7308,-4.718,-4.7209,-4.7284,-4.7726,-4.8124,-4.8295,-4.8466,-4.8154,-4.7643,-4.8223,-4.8354,-4.8042,-4.7884,-4.7998,-4.8215,-4.7688,-4.7245,-4.6809,-4.6635,-4.6287,-4.588,-4.588,-4.588,-4.588,0.0,0.0,0.0,0.0,0.0,0.0,0.0,0.0,0.0,0.0,0.0,0.0,0.0,0.0,0.0,0.0,0.0,0.0,0.0,0.0,0.0,0.0,0.0,0.0,0.0,0.0,0.0,0.0,0.0,0.0,0.0,0.0,0.0,0.0,0.0,0.0,0.0,0.0,0.0,0.0,0.0,0.0,-4.0266,-3.8819,-3.4492,-2.9201,-2.8997,0.0,0.0,0.0,-2.3083,-2.4941,-2.2264,-2.3832,0.0,-2.3704,-2.1023,0.0,0.0,0.0,-2.4517,-3.3322,-3.6747,-3.9114,-4.3558,-4.581,-4.696,-4.6924,-4.6486,-4.6046,-4.5946,-4.473,-4.4415,-4.652,-4.5536,-4.5295,-4.7743,-4.5581,-4.2737,-3.9873,-3.8223,-3.5611,0.0,-3.7468,-4.3275,-4.6936,-4.6632,-4.6328,-4.655,-4.6264,-4.5781,-4.5244,-4.5152,-4.5095,-4.4982,-4.501,-4.494,-4.486,-4.5431,-4.6016,-4.6574,-4.726,-4.7016,-4.6028,-4.736,-4.7566,-4.7062,-4.6929,-4.6853,-4.6766,-4.6156,-4.5909,-4.588,-4.588,-4.588,-4.588,0.0,0.0,0.0,0.0,0.0,0.0,0.0,0.0,0.0,0.0,0.0,0.0,0.0,0.0,0.0,0.0,0.0,0.0,0.0,0.0,0.0,0.0,0.0,0.0,0.0,0.0,0.0,0.0,0.0,0.0,0.0,0.0,0.0,0.0,0.0,0.0,0.0,0.0,0.0,0.0,0.0,0.0,-3.8949,-3.3829,-2.995,-2.6724,0.0,0.0,0.0,0.0,-1.8005,-1.8685,-1.8445,0.0,0.0,-1.5498,-1.8176,-2.1617,0.0,0.0,-3.1675,-3.5146,-3.986,-4.4064,-4.5539,-4.6783,-4.7285,-4.614,-4.3006,-4.024,-3.9707,-3.7559,-3.6956,-4.0112,-3.9868,-4.0502,-4.4146,-4.1733,-3.916,-3.8112,-3.5823,0.0,0.0,0.0,0.0,-4.1755,-4.4643,-4.683,-4.7759,-4.6538,-4.5998,-4.6195,-4.6123,-4.6054,-4.597,-4.597,-4.5977,-4.5885,-4.6075,-4.6279,-4.6442,-4.6242,-4.6145,-4.619,-4.5759,-4.5912,-4.6324,-4.5881,-4.5912,-4.6185,-4.5967,-4.588,-4.588,-4.588,-4.588,-4.588,0.0,0.0,0.0,0.0,0.0,0.0,0.0,0.0,0.0,0.0,0.0,0.0,0.0,0.0,0.0,0.0,0.0,0.0,0.0,0.0,0.0,0.0,0.0,0.0,0.0,0.0,0.0,0.0,0.0,0.0,0.0,0.0,0.0,0.0,0.0,0.0,0.0,0.0,0.0,0.0,0.0,0.0,-3.4784,-2.9063,-2.5428,0.0,0.0,0.0,0.0,0.0,0.0,0.0,0.0,-1.3792,-1.3174,-1.4771,-1.8904,-2.338,-2.545,-3.1038,-3.6899,-3.962,-4.3629,-4.6931,-4.7011,-4.7051,-4.6464,-4.427,-4.0492,-3.7011,-3.5059,-3.2779,-3.2212,-3.5487,-3.5244,-3.6271,-4.0857,-3.8805,-3.6633,-3.5963,-3.4206,-3.3898,0.0,0.0,0.0,-3.9535,-4.2794,-4.5138,-4.6076,-4.5091,-4.4977,-4.6017,-4.5936,-4.5845,-4.5845,-4.5845,-4.5953,-4.6157,-4.594,-4.5845,-4.5817,-4.5335,-4.4905,-4.451,-4.4482,-4.4471,-4.4591,-4.4911,-4.5307,-4.5595,-4.579,-4.588,-4.588,-4.588,-4.588,-4.588,0.0,0.0,0.0,0.0,0.0,0.0,0.0,0.0,0.0,0.0,0.0,0.0,0.0,0.0,0.0,0.0,0.0,0.0,0.0,0.0,0.0,0.0,0.0,0.0,0.0,0.0,0.0,0.0,0.0,0.0,0.0,0.0,0.0,0.0,0.0,0.0,0.0,0.0,0.0,0.0,0.0,0.0,-2.8196,-2.4573,0.0,0.0,0.0,0.0,0.0,0.0,0.0,0.0,0.0,0.0,-1.5168,-2.099,-2.3044,-2.5203,-3.3475,-3.7111,-4.0015,-4.6128,-4.7561,-4.7501,-4.7785,-4.6575,-4.4487,-4.1342,-3.8773,-3.5889,0.0,0.0,-3.0017,-3.2542,-3.1786,-3.2782,-3.8104,-3.698,-3.5076,0.0,0.0,0.0,0.0,0.0,0.0,-4.0208,0.0,-4.1705,-4.2078,-4.2276,-4.3103,-4.4705,-4.4786,-4.48,-4.48,-4.48,-4.5085,-4.5628,-4.5031,-4.4746,-4.4746,-4.4691,-4.3416,-4.1354,-4.3492,-4.3409,-4.2076,-4.4167,-4.5032,-4.5124,-4.5685,-4.588,-4.588,-4.588,-4.588,-4.588,0.0,0.0,0.0,0.0,0.0,0.0,0.0,0.0,0.0,0.0,0.0,0.0,0.0,0.0,0.0,0.0,0.0,0.0,0.0,0.0,0.0,0.0,0.0,0.0,0.0,0.0,0.0,0.0,0.0,0.0,0.0,0.0,0.0,0.0,0.0,0.0,0.0,0.0,0.0,0.0,0.0,0.0,-2.5221,0.0,0.0,0.0,0.0,0.0,0.0,0.0,0.0,0.0,0.0,-1.9647,-2.1428,-2.2332,-2.6993,-3.2213,-3.4152,-3.964,-4.5152,-4.6667,-4.7538,-4.7595,-4.5996,-4.4076,-4.137,-3.7036,-3.1871,-2.7081,0.0,0.0,0.0,-2.6787,-2.7497,0.0,-3.5482,-3.5012,0.0,-3.5089,0.0,-3.5642,-3.6614,-3.7698,0.0,0.0,-4.0451,-4.2453,-4.4237,-4.4163,-4.4482,-4.5343,-4.579,-4.6021,-4.6021,-4.6021,-4.6102,-4.6238,-4.5833,-4.5622,-4.5608,-4.4734,-4.401,-4.3423,-4.3312,-4.3218,-4.3158,-4.376,-4.4181,-4.4583,-4.5138,-4.5307,-4.5321,-4.579,-4.588,-4.588,0.0,0.0,0.0,0.0,0.0,0.0,0.0,0.0,0.0,0.0,0.0,0.0,0.0,0.0,0.0,0.0,0.0,0.0,0.0,0.0,0.0,0.0,0.0,0.0,0.0,0.0,0.0,0.0,0.0,0.0,0.0,0.0,0.0,0.0,0.0,0.0,0.0,0.0,0.0,0.0,0.0,0.0,0.0,0.0,0.0,0.0,0.0,0.0,0.0,0.0,0.0,-1.9761,-2.3678,-2.564,-2.7069,-3.01,0.0,-3.7786,-3.9864,-4.4054,-4.79,-4.791,-4.7513,-4.6293,-4.3017,-4.0317,-3.68,-3.0892,-2.681,0.0,0.0,0.0,0.0,0.0,0.0,0.0,-3.2682,-3.329,-3.3784,0.0,-3.5902,0.0,-3.8305,-3.8819,-3.8974,0.0,-4.012,-4.1651,-4.3136,-4.3485,-4.4291,-4.5718,-4.6069,-4.635,-4.6469,-4.6469,-4.6347,-4.6075,-4.5567,-4.5234,-4.4934,-4.4021,-4.3326,-4.2835,0.0,-4.2767,-4.2587,-4.3298,-4.3804,-4.4101,-4.4847,-4.5124,-4.5124,-4.57,-4.588,-4.588,0.0,0.0,0.0,0.0,0.0,0.0,0.0,0.0,0.0,0.0,0.0,0.0,0.0,0.0,0.0,0.0,0.0,0.0,0.0,0.0,0.0,0.0,0.0,0.0,0.0,0.0,0.0,0.0,0.0,0.0,0.0,0.0,0.0,0.0,0.0,0.0,0.0,0.0,0.0,0.0,0.0,0.0,0.0,0.0,0.0,0.0,0.0,0.0,0.0,0.0,-2.3069,-2.2499,-2.9122,-3.129,-3.2727,-3.9697,-4.139,-4.2071,-4.6684,-4.8451,-4.9024,-4.9205,-4.7546,-4.4633,-4.0078,-3.6384,-3.1923,-2.4699,0.0,-2.1335,-1.6758,-1.7398,-1.93,-2.1513,0.0,-2.6069,-3.0245,-3.2265,-3.3806,-3.5077,-3.6294,-3.7298,-3.8214,-3.8608,-3.9094,-3.9822,-4.0206,-4.0605,-4.0959,-4.201,-4.3594,-4.5845,-4.5818,-4.5897,-4.6238,-4.6238,-4.598,-4.5465,-4.4868,-4.4398,-4.3854,-4.3256,-4.2426,-4.1408,-4.2439,0.0,-4.1435,-4.2902,-4.3519,-4.36,-4.4555,-4.494,-4.5032,-4.5595,-4.588,-4.588,0.0,0.0,0.0,0.0,0.0,0.0,0.0,0.0,0.0,0.0,-1.4051,-1.4226,0.0,0.0,0.0,0.0,0.0,0.0,0.0,0.0,0.0,0.0,0.0,0.0,0.0,0.0,0.0,0.0,0.0,0.0,0.0,0.0,0.0,0.0,0.0,0.0,0.0,0.0,0.0,0.0,0.0,0.0,0.0,0.0,0.0,0.0,0.0,0.0,0.0,0.0,-2.6514,-2.8989,-3.5903,-3.8813,-3.9913,-4.1426,-4.2855,-4.4269,-4.5925,-4.7786,-4.9197,-4.9097,-4.7538,-4.4799,-4.0102,-3.5061,0.0,0.0,0.0,-1.7261,-1.4823,-1.583,0.0,-2.1968,0.0,0.0,0.0,0.0,-3.5322,0.0,0.0,0.0,0.0,0.0,0.0,0.0,0.0,-4.1964,-4.2834,-4.3727,-4.4556,-4.5281,-4.4824,-4.4684,-4.5017,-4.5017,-4.4963,-4.4854,-4.4457,-4.4201,-4.4078,-4.356,-4.3163,-4.2876,-4.2889,0.0,-4.2602,-4.2889,-4.297,-4.3067,-4.3926,-4.4317,-4.4597,-4.5321,-4.57,-4.588,0.0,0.0,0.0,0.0,0.0,0.0,0.0,-1.4721,-1.4175,-1.4329,-1.4387,-1.4174,-1.3563,-1.3718,0.0,0.0,0.0,0.0,0.0,0.0,0.0,0.0,0.0,0.0,0.0,0.0,0.0,0.0,0.0,0.0,0.0,0.0,0.0,0.0,0.0,0.0,0.0,0.0,0.0,0.0,0.0,0.0,0.0,0.0,0.0,0.0,0.0,0.0,0.0,0.0,-2.4196,-2.761,-3.728,-4.1361,-4.2508,-4.2271,-4.3969,-4.5954,-4.6164,-4.7656,-4.905,-4.858,-4.5975,-4.1873,-3.5451,0.0,0.0,0.0,0.0,-1.4886,-1.3705,0.0,0.0,0.0,0.0,0.0,0.0,0.0,0.0,0.0,0.0,0.0,0.0,0.0,0.0,0.0,0.0,-4.1749,-4.2853,-4.373,-4.415,-4.429,-4.4305,-4.4361,-4.4489,-4.459,-4.4542,-4.4217,-4.4031,-4.3928,-4.3711,-4.341,-4.3273,-4.3273,-4.3245,0.0,-4.2019,-4.2903,-4.2876,-4.2477,-4.3878,-4.4597,-4.4862,-4.5504,-4.579,-4.588,0.0,0.0,0.0,0.0,0.0,0.0,0.0,-1.4886,-1.4404,-1.5275,-1.486,-1.426,-1.3684,-1.3548,-1.3464,0.0,0.0,0.0,0.0,0.0,0.0,0.0,0.0,0.0,0.0,0.0,0.0,0.0,0.0,0.0,0.0,0.0,0.0,0.0,0.0,0.0,0.0,0.0,0.0,0.0,0.0,0.0,0.0,0.0,0.0,0.0,0.0,0.0,0.0,0.0,-2.0884,-2.3998,-3.4398,-3.9265,-4.1132,-4.1367,-4.356,-4.6011,-4.6549,-4.7801,-4.8728,-4.782,-4.4366,-3.9278,-3.1602,-2.6995,0.0,0.0,-1.3762,-1.3646,-1.3218,0.0,0.0,0.0,0.0,0.0,0.0,0.0,0.0,0.0,0.0,0.0,0.0,0.0,0.0,0.0,0.0,0.0,-4.2762,-4.3167,-4.3336,-4.3383,-4.3646,-4.3869,-4.407,-4.4298,-4.4153,-4.3775,-4.3775,-4.3682,-4.3547,-4.3424,-4.3341,-4.3451,-4.3478,0.0,0.0,-4.2793,-4.2827,-4.1841,-4.3877,-4.4862,-4.5124,-4.5595,-4.588,-4.588,0.0,0.0,0.0,0.0,0.0,0.0,0.0,-1.4886,-1.4384,-1.5193,-1.4855,-1.4461,-1.4304,-1.4197,-1.3802,0.0,0.0,0.0,0.0,0.0,0.0,0.0,0.0,0.0,0.0,0.0,0.0,0.0,0.0,0.0,0.0,0.0,0.0,0.0,0.0,0.0,0.0,0.0,0.0,0.0,0.0,0.0,0.0,0.0,0.0,0.0,0.0,0.0,0.0,0.0,0.0,-2.134,-2.6058,-3.048,-3.4484,-3.7234,0.0,0.0,-4.6274,-4.7998,-4.8423,-4.6931,-4.4008,-3.9654,-3.2773,0.0,0.0,-1.5438,-1.398,-1.3741,-1.3582,-1.5579,-1.8304,0.0,0.0,-2.4451,0.0,0.0,0.0,0.0,0.0,0.0,0.0,0.0,0.0,0.0,0.0,0.0,-4.3729,-4.2827,-4.2584,-4.3078,-4.2532,-4.2632,-4.3341,-4.3437,-4.3492,-4.3588,-4.3588,-4.3959,-4.4443,-4.3616,-4.356,-4.4053,-4.3312,0.0,0.0,-4.2453,-4.2433,-4.1301,-4.3524,-4.4676,-4.5124,-4.5413,-4.57,-4.588,0.0,0.0,0.0,0.0,0.0,0.0,-1.5647,-1.4411,-1.3999,-1.5681,-1.5432,-1.521,-1.5508,-1.5097,-1.4308,0.0,0.0,0.0,0.0,0.0,0.0,0.0,0.0,0.0,0.0,0.0,0.0,0.0,0.0,0.0,0.0,0.0,0.0,0.0,0.0,0.0,0.0,0.0,0.0,0.0,0.0,0.0,0.0,0.0,0.0,0.0,0.0,0.0,0.0,0.0,0.0,0.0,-1.7382,-2.0129,0.0,0.0,-3.4622,-3.8799,-4.1205,-4.4594,-4.7022,-4.5272,-4.1907,-3.7107,-2.9992,0.0,0.0,-1.5067,-1.3604,-1.3428,-1.4136,-1.517,-1.6935,0.0,0.0,0.0,0.0,0.0,0.0,0.0,0.0,0.0,0.0,0.0,0.0,0.0,0.0,0.0,-4.2995,-4.2047,-4.1732,-4.2438,-4.2212,-4.2471,-4.3273,-4.3437,-4.3437,-4.3451,-4.3905,-4.4305,-4.465,-4.4789,-4.4996,-4.5204,-4.5066,0.0,0.0,-4.3064,-4.2759,-4.0586,-4.3476,-4.506,-4.5595,-4.57,-4.579,-4.588,0.0,0.0,0.0,0.0,0.0,-1.4821,-1.5623,-1.4304,-1.3838,-1.5654,-1.5429,-1.5308,-1.5917,-1.5093,-1.4219,-1.3481,-1.3165,0.0,0.0,0.0,0.0,0.0,0.0,0.0,0.0,0.0,0.0,0.0,0.0,0.0,0.0,0.0,0.0,0.0,0.0,0.0,0.0,0.0,0.0,0.0,0.0,0.0,0.0,0.0,0.0,0.0,0.0,0.0,0.0,0.0,0.0,0.0,0.0,0.0,0.0,0.0,-2.9536,-3.4897,-3.6737,-4.1214,-4.4886,-4.3011,-3.896,-3.3783,0.0,0.0,0.0,-1.3985,-1.3277,-1.3552,-1.4117,-1.5012,-1.6494,-1.9019,0.0,-2.1771,0.0,0.0,0.0,0.0,0.0,0.0,0.0,0.0,0.0,0.0,0.0,0.0,-4.2404,-4.1628,-4.1406,-4.219,-4.2373,-4.2763,-4.3465,-4.3628,-4.3723,-4.3655,-4.4456,-4.4566,-4.4079,-4.5358,-4.5497,-4.4746,-4.5372,0.0,0.0,-4.32,-4.2914,-4.0732,-4.3707,-4.5244,-4.588,-4.588,-4.588,-4.588,0.0,0.0,0.0,0.0,0.0,0.0,-1.5687,-1.4718,-1.4145,-1.4821,-1.4443,-1.438,-1.5131,-1.3831,-1.3273,-1.4109,-1.3209,0.0,0.0,0.0,0.0,0.0,0.0,0.0,0.0,0.0,0.0,0.0,0.0,0.0,0.0,0.0,0.0,0.0,0.0,0.0,0.0,0.0,0.0,0.0,0.0,0.0,0.0,0.0,0.0,0.0,0.0,0.0,0.0,0.0,0.0,0.0,0.0,0.0,0.0,0.0,-2.5142,-3.137,-3.4105,-3.8434,-4.1853,-4.0064,-3.5293,-3.0031,0.0,0.0,0.0,-1.2071,-1.3174,-1.4409,-1.3256,-1.5571,-1.7916,-1.8695,-2.046,0.0,0.0,0.0,0.0,0.0,0.0,0.0,0.0,0.0,0.0,0.0,0.0,0.0,-4.2297,-4.1921,-4.1908,-4.2511,-4.2984,-4.3546,-4.4035,-4.4021,-4.4129,-4.4425,-4.5029,-4.4369,-4.2697,-4.4883,-4.4373,0.0,0.0,0.0,0.0,-4.2425,-4.2657,-4.1871,-4.3955,-4.5244,-4.588,-4.588,-4.588,-4.588,0.0,0.0,0.0,0.0,0.0,0.0,0.0,-1.4417,-1.3962,-1.4126,-1.3986,-1.4152,-1.4848,-1.3967,-1.3444,-1.3746,-1.3059,0.0,0.0,0.0,0.0,0.0,0.0,0.0,0.0,0.0,0.0,0.0,0.0,0.0,0.0,0.0,0.0,0.0,0.0,0.0,0.0,0.0,0.0,0.0,0.0,0.0,0.0,0.0,0.0,0.0,0.0,0.0,0.0,0.0,0.0,0.0,0.0,0.0,0.0,0.0,0.0,0.0,-2.6691,-3.0423,-3.317,-3.1763,-2.9102,-2.5855,-2.1987,0.0,0.0,0.0,-1.2426,-1.2984,-1.3041,-1.4572,-1.6797,-1.9806,-2.0818,0.0,0.0,0.0,0.0,0.0,0.0,0.0,0.0,0.0,0.0,0.0,0.0,0.0,-4.2846,-4.2957,-4.3039,-4.3232,-4.3232,-4.3533,-4.4317,-4.4317,-4.4223,-4.4143,-4.5383,-4.4471,-4.1798,-4.5216,-4.5133,0.0,0.0,0.0,0.0,-4.3585,-4.3296,-4.1885,-4.4123,-4.5321,-4.588,-4.588,-4.588,-4.588,0.0,0.0,0.0,0.0,0.0,0.0,0.0,-1.4293,-1.3763,-1.3444,-1.3376,-1.365,-1.4352,-1.369,-1.335,-1.3721,-1.3043,0.0,0.0,0.0,0.0,0.0,0.0,0.0,0.0,0.0,0.0,0.0,0.0,0.0,0.0,0.0,0.0,0.0,0.0,0.0,0.0,0.0,0.0,0.0,0.0,0.0,-1.5893,0.0,0.0,0.0,0.0,0.0,0.0,0.0,0.0,0.0,0.0,0.0,0.0,0.0,-1.4711,0.0,0.0,-2.5119,-2.7511,-2.6846,-2.4743,0.0,0.0,0.0,0.0,0.0,0.0,0.0,-1.3615,-1.5125,-1.7129,-1.9458,-2.077,0.0,0.0,0.0,0.0,0.0,0.0,0.0,0.0,0.0,0.0,0.0,0.0,0.0,-4.3012,-4.3423,-4.3695,-4.3899,-4.3709,-4.3912,-4.4411,-4.4411,-4.4317,-4.4143,-4.534,-4.4331,-4.1504,-4.5172,-4.5074,0.0,0.0,0.0,0.0,-4.3901,-4.3752,-4.2871,-4.4393,-4.5321,-4.588,-4.588,-4.588,-4.588,0.0,0.0,0.0,0.0,0.0,0.0,0.0,-1.4411,-1.3731,-1.288,-1.2813,-1.307,-1.3718,-1.3186,-1.308,-1.3847,0.0,0.0,0.0,0.0,0.0,0.0,0.0,0.0,0.0,0.0,0.0,0.0,-1.4116,-1.4851,-1.5581,0.0,0.0,0.0,0.0,0.0,0.0,0.0,0.0,0.0,0.0,0.0,0.0,0.0,0.0,0.0,0.0,0.0,0.0,0.0,0.0,0.0,0.0,0.0,0.0,0.0,0.0,0.0,0.0,0.0,0.0,0.0,0.0,0.0,0.0,0.0,0.0,0.0,0.0,0.0,0.0,-1.693,-1.8725,-1.8208,-2.0588,0.0,0.0,0.0,0.0,0.0,0.0,0.0,0.0,0.0,0.0,0.0,0.0,0.0,-4.2984,-4.3423,-4.3899,-4.4411,-4.4411,-4.4411,-4.4411,-4.4411,-4.434,-4.4228,-4.4973,-4.3933,-4.146,-4.4734,-4.4443,0.0,0.0,0.0,0.0,-4.3614,-4.4007,-4.4504,-4.4783,-4.5336,-4.588,-4.588,-4.5851,-4.5822,0.0,0.0,0.0,0.0,0.0,0.0,0.0,0.0,0.0,0.0,-1.3908,-1.4079,-1.3706,-1.3535,-1.3356,0.0,0.0,0.0,0.0,0.0,0.0,0.0,0.0,0.0,0.0,0.0,0.0,-1.3402,-1.464,-1.5571,-1.6207,-1.7381,0.0,0.0,0.0,0.0,0.0,0.0,0.0,0.0,0.0,0.0,0.0,0.0,0.0,0.0,-1.4096,-1.3673,0.0,0.0,0.0,0.0,0.0,0.0,0.0,0.0,-1.2827,-1.3244,-1.5106,0.0,-1.6407,-1.6465,-1.614,0.0,0.0,0.0,0.0,0.0,0.0,0.0,0.0,0.0,0.0,0.0,0.0,0.0,0.0,0.0,0.0,0.0,0.0,0.0,0.0,0.0,0.0,0.0,0.0,-4.3177,-4.4035,-4.4115,-4.4303,-4.4411,-4.4411,-4.4411,-4.4411,-4.4411,-4.3694,-4.2289,-4.4355,-4.3034,-3.8931,-4.3483,-4.3863,0.0,0.0,0.0,-4.3846,-4.4303,-4.4597,-4.4797,-4.5427,-4.5714,-4.588,-4.588,-4.5561,-4.5198,0.0,0.0,0.0,0.0,0.0,0.0,0.0,0.0,0.0,0.0,0.0,0.0,0.0,0.0,0.0,0.0,0.0,0.0,0.0,0.0,0.0,0.0,0.0,0.0,0.0,0.0,0.0,0.0,0.0,-1.6071,0.0,0.0,0.0,0.0,0.0,0.0,0.0,0.0,0.0,0.0,-1.5841,0.0,0.0,0.0,0.0,0.0,-1.4511,-1.4261,0.0,-1.4516,-1.4763,-1.4888,0.0,0.0,0.0,0.0,-1.3182,-1.32,-1.3487,-1.391,-1.4452,-1.5194,-1.5363,-1.5489,0.0,0.0,0.0,0.0,0.0,0.0,0.0,0.0,0.0,0.0,0.0,0.0,0.0,0.0,0.0,0.0,0.0,0.0,0.0,0.0,0.0,0.0,0.0,-4.3341,-4.3871,-4.4195,-4.4411,-4.4411,-4.4411,-4.4411,-4.4411,-4.4411,-4.3469,-4.1643,-4.3849,-4.3048,-3.9732,-4.3287,-4.3989,0.0,0.0,0.0,-4.4298,-4.3446,-4.393,-4.5152,-4.5609,-4.579,-4.588,-4.588,-4.5648,-4.5401,0.0,0.0,0.0,0.0,0.0,0.0,0.0,0.0,0.0,0.0,0.0,0.0,0.0,0.0,0.0,0.0,0.0,0.0,0.0,0.0,0.0,0.0,0.0,0.0,0.0,0.0,0.0,0.0,0.0,0.0,0.0,0.0,0.0,0.0,0.0,0.0,0.0,0.0,0.0,0.0,-1.5645,0.0,0.0,0.0,0.0,0.0,0.0,0.0,0.0,-1.5995,-1.644,-1.639,-1.5755,0.0,0.0,0.0,0.0,0.0,-1.3277,-1.4128,-1.5388,-1.6605,-1.6546,-1.6473,0.0,0.0,0.0,0.0,0.0,0.0,0.0,0.0,0.0,0.0,0.0,0.0,0.0,0.0,0.0,0.0,0.0,0.0,0.0,0.0,0.0,0.0,0.0,-4.3423,-4.3531,-4.4087,-4.4411,-4.4411,-4.4411,-4.4411,-4.4411,-4.4411,-4.3469,-4.1629,-4.3512,-4.3427,-4.1671,-4.3554,-4.4411,-4.4298,0.0,0.0,-4.4585,-4.2576,-4.3298,-4.5595,-4.5595,-4.57,-4.588,-4.588,-4.5822,-4.5721,0.0,0.0,0.0,0.0,0.0,0.0,0.0,0.0,0.0,0.0,0.0,0.0,0.0,0.0,0.0,0.0,0.0,0.0,0.0,0.0,0.0,0.0,0.0,0.0,0.0,0.0,0.0,0.0,0.0,0.0,-1.7438,-1.9931,-2.0007,0.0,0.0,0.0,0.0,-1.6585,-1.6495,-1.6042,-1.6542,0.0,0.0,0.0,0.0,0.0,0.0,0.0,0.0,-1.4894,-1.5625,-1.6415,-1.6331,0.0,0.0,0.0,0.0,0.0,-1.4695,-1.5725,-1.6619,-1.5735,-1.5872,-1.6364,0.0,0.0,0.0,0.0,0.0,0.0,0.0,0.0,0.0,0.0,0.0,0.0,0.0,0.0,0.0,0.0,0.0,0.0,0.0,0.0,0.0,0.0,0.0,-4.3804,-4.4195,-4.4303,-4.4411,-4.4411,-4.4411,-4.4411,-4.4411,-4.4411,-4.3469,-4.1629,-4.3512,-4.3427,-4.1671,-4.3554,-4.4411,-4.4397,0.0,-4.4507,-4.5003,-4.4891,-4.5248,-4.588,-4.588,-4.588,-4.588,-4.588,-4.5532,-4.4966,0.0,0.0,0.0,0.0,0.0,0.0,0.0,0.0,0.0,0.0,0.0,0.0,0.0,0.0,0.0,0.0,0.0,0.0,0.0,0.0,0.0,0.0,0.0,0.0,0.0,0.0,0.0,0.0,0.0,-1.8982,-1.9013,-1.9995,-1.9715,-1.8331,0.0,0.0,0.0,-1.674,-1.6788,-1.65,0.0,0.0,0.0,0.0,0.0,0.0,0.0,0.0,0.0,0.0,-1.5965,-1.6916,-1.6471,0.0,0.0,0.0,0.0,0.0,-1.5364,-1.6327,-1.7315,-1.7134,-1.7596,0.0,0.0,0.0,0.0,0.0,0.0,0.0,0.0,0.0,0.0,0.0,0.0,0.0,0.0,0.0,0.0,0.0,0.0,0.0,0.0,0.0,0.0,0.0,0.0,0.0,-4.4411,-4.4411,-4.4411,-4.4411,-4.4411,-4.4411,-4.4411,-4.4411,-4.3469,-4.1629,-4.3512,-4.3427,-4.1671,-4.3814,-4.4769,-4.4684,0.0,-4.431,-4.575,-4.4284,-4.4705,-4.6239,-4.597,-4.588,-4.588,-4.588,-4.5692,-4.5387,0.0,0.0,0.0,0.0,0.0,0.0,0.0,0.0,0.0,0.0,0.0,0.0,0.0,0.0,0.0,0.0,0.0,0.0,0.0,0.0,0.0,0.0,0.0,0.0,0.0,0.0,0.0,-1.8718,-1.9527,-2.0195,-2.0746,-1.9732,-1.8967,0.0,0.0,0.0,0.0,-1.6954,-1.7136,-1.7029,0.0,0.0,0.0,0.0,0.0,0.0,0.0,0.0,0.0,0.0,0.0,0.0,0.0,0.0,0.0,-1.5567,-1.5517,-1.5915,-1.5823,-1.6725,-1.7838,-1.8711,0.0,0.0,0.0,0.0,0.0,0.0,0.0,0.0,0.0,0.0,0.0,0.0,0.0,0.0,0.0,0.0,0.0,0.0,0.0,0.0,0.0,0.0,0.0,0.0,0.0,0.0,-4.4406,-4.4369,-4.4383,-4.4406,-4.4383,-4.4411,-4.4411,-4.4411,-4.3694,-4.2289,-4.3722,-4.3652,-4.2317,-4.4194,-4.5124,-4.501,-4.3661,-4.4381,-4.6432,-4.4089,-4.454,-4.6594,-4.606,-4.588,-4.588,-4.588,-4.588,-4.588,0.0,0.0,0.0,0.0,0.0,0.0,0.0,0.0,0.0,0.0,0.0,0.0,0.0,0.0,0.0,0.0,0.0,0.0,0.0,0.0,0.0,0.0,0.0,0.0,0.0,-1.7055,-1.7761,-1.9435,-2.0761,-2.1518,-2.1569,-1.9514,-1.8516,-1.8362,0.0,0.0,0.0,-1.7669,-1.7753,-1.7423,-1.8231,0.0,0.0,0.0,0.0,0.0,0.0,0.0,0.0,0.0,0.0,0.0,0.0,0.0,-1.7184,-1.6225,-1.5825,-1.5848,-1.6306,-1.7255,-1.8383,-1.9293,0.0,0.0,0.0,0.0,0.0,0.0,0.0,0.0,0.0,0.0,0.0,0.0,0.0,0.0,0.0,0.0,0.0,0.0,0.0,0.0,0.0,0.0,0.0,0.0,0.0,0.0,-4.4387,-4.4349,-4.4377,-4.4372,-4.4363,-4.4411,-4.4411,-4.4411,-4.434,-4.4214,-4.4355,-4.434,-4.4214,-4.4791,-4.5124,-4.511,-4.5648,-4.6138,-4.658,-4.6108,-4.6138,-4.6594,-4.606,-4.588,-4.588,-4.588,-4.588,-4.588,0.0,0.0,0.0,0.0,0.0,0.0,0.0,0.0,0.0,0.0,0.0,0.0,0.0,0.0,0.0,0.0,0.0,0.0,0.0,0.0,0.0,0.0,0.0,-1.646,-1.7384,-1.8176,-1.9138,-2.0252,-2.0836,-2.1122,-2.1106,-2.0319,0.0,0.0,0.0,0.0,0.0,-1.8186,-1.8428,-1.8091,-1.8441,-1.7929,0.0,0.0,0.0,0.0,0.0,0.0,0.0,0.0,-1.7088,-1.7792,-1.7637,-1.7773,-1.7753,-1.6789,-1.6683,-1.6908,-1.706,-1.8023,-1.9183,-2.0141,0.0,0.0,0.0,0.0,0.0,0.0,0.0,0.0,0.0,0.0,0.0,0.0,0.0,0.0,0.0,0.0,0.0,0.0,0.0,0.0,0.0,0.0,0.0,0.0,0.0,0.0,-4.3285,-4.3525,-4.3539,-4.3299,-4.3525,-4.349,-4.3273,-4.3273,-4.3062,-4.2683,-4.4111,-4.4557,-4.4083,-4.4899,-4.4964,-4.4455,-4.5435,-4.5859,-4.599,-4.6138,-4.621,-4.6314,-4.606,-4.588,-4.588,-4.588,-4.5723,-4.5506,0.0,0.0,0.0,0.0,0.0,0.0,0.0,0.0,0.0,0.0,0.0,0.0,0.0,0.0,0.0,0.0,0.0,0.0,0.0,0.0,0.0,0.0,0.0,-1.708,-1.7723,-1.8921,-1.9844,-2.0363,-2.0667,-2.0794,-2.0761,0.0,0.0,0.0,0.0,0.0,0.0,0.0,-1.8837,-1.8785,-1.9093,-1.8628,0.0,0.0,0.0,0.0,0.0,0.0,0.0,0.0,-1.7539,-1.811,-1.7852,-1.8027,-1.8262,-1.7676,-1.7469,-1.7533,-1.7644,-1.8323,-1.9355,0.0,0.0,0.0,0.0,0.0,0.0,0.0,0.0,0.0,0.0,0.0,0.0,0.0,0.0,0.0,0.0,0.0,0.0,0.0,0.0,0.0,0.0,0.0,0.0,0.0,0.0,0.0,0.0,-4.2848,-4.2834,-4.242,-4.2895,-4.298,-4.2584,-4.266,-4.2523,-4.21,-4.391,-4.4095,-4.2941,-4.382,-4.4064,-4.3703,-4.4932,-4.5368,-4.5356,-4.605,-4.6225,-4.6135,-4.6046,-4.5956,-4.5956,-4.5956,-4.5858,-4.5683,0.0,0.0,0.0,0.0,0.0,0.0,0.0,0.0,0.0,0.0,0.0,0.0,0.0,0.0,0.0,0.0,0.0,0.0,0.0,0.0,0.0,0.0,0.0,-1.7869,-1.8483,-1.9264,-1.9704,-1.9704,-2.043,-2.0761,-2.0677,-1.9679,0.0,0.0,0.0,0.0,0.0,0.0,-1.8966,-1.9398,-2.0325,-1.9819,-1.8614,0.0,0.0,0.0,0.0,0.0,0.0,0.0,-1.9326,-1.8927,-2.0117,-1.9582,-1.8602,-1.8927,-1.818,-1.7374,-1.7963,-1.8136,0.0,0.0,0.0,0.0,0.0,0.0,0.0,0.0,0.0,0.0,0.0,0.0,0.0,0.0,0.0,0.0,0.0,0.0,0.0,0.0,0.0,0.0,0.0,0.0,0.0,0.0,0.0,0.0,0.0,-4.258,-4.2406,-4.1945,-4.2527,-4.2796,-4.2556,-4.2796,-4.2959,-4.3136,-4.3647,-4.2826,-4.1057,-4.1717,-4.2397,-4.3105,-4.4438,-4.4902,-4.4767,-4.6049,-4.6314,-4.5866,-4.6106,-4.6195,-4.6195,-4.6195,-4.6388,-4.6491,0.0,0.0,0.0,0.0,0.0,0.0,0.0,0.0,0.0,0.0,0.0,0.0,0.0,0.0,0.0,0.0,0.0,0.0,0.0,0.0,0.0,0.0,0.0,0.0,0.0,0.0,-1.9566,-2.0264,-2.0485,-2.0494,0.0,0.0,0.0,-2.0,0.0,0.0,0.0,0.0,0.0,-2.0121,-2.0519,-2.0407,-1.9946,0.0,0.0,0.0,0.0,0.0,0.0,0.0,0.0,0.0,-1.9355,-1.9732,-2.005,-2.0041,-1.9683,-1.9386,-2.004,-2.0175,0.0,0.0,0.0,0.0,0.0,0.0,0.0,0.0,0.0,0.0,0.0,0.0,0.0,0.0,0.0,0.0,0.0,0.0,0.0,0.0,0.0,0.0,0.0,0.0,0.0,0.0,0.0,0.0,0.0,-4.1696,-4.1568,-4.154,-4.1625,-4.171,-4.1782,-4.1171,-4.1113,-4.1518,-4.129,-4.1758,-4.2632,-4.3133,-4.3151,-4.2849,-4.3691,-4.4069,-4.4059,-4.487,-4.5123,-4.5022,-4.5022,-4.5108,-4.5167,-4.5638,-4.5621,-4.5584,0.0,0.0,0.0,0.0,0.0,0.0,0.0,0.0,0.0,0.0,0.0,0.0,0.0,0.0,0.0,0.0,0.0,0.0,0.0,0.0,0.0,0.0,0.0,0.0,0.0,-1.8475,-1.9375,0.0,0.0,0.0,0.0,0.0,0.0,-2.064,0.0,-2.1941,0.0,0.0,0.0,-2.0493,-2.1198,-2.1296,-2.1004,0.0,0.0,0.0,0.0,0.0,0.0,0.0,0.0,0.0,-1.9398,0.0,0.0,-2.0385,-2.0086,-2.0121,-2.0989,0.0,0.0,0.0,0.0,0.0,0.0,0.0,0.0,0.0,0.0,0.0,0.0,0.0,0.0,0.0,0.0,0.0,0.0,0.0,0.0,0.0,0.0,0.0,0.0,0.0,0.0,0.0,0.0,0.0,0.0,-4.0727,-4.077,-4.0667,-4.1153,-4.1281,-4.101,-4.0729,-4.0907,-4.1468,-4.1047,-4.1711,-4.3263,-4.2909,-4.2598,-4.2349,-4.3012,-4.3685,-4.4255,-4.4275,-4.4482,-4.4619,-4.4704,-4.4803,-4.4847,-4.5176,-4.5243,-4.5257,0.0,0.0,0.0,0.0,0.0,0.0,0.0,0.0,0.0,0.0,0.0,0.0,0.0,0.0,0.0,0.0,0.0,0.0,0.0,0.0,0.0,0.0,0.0,0.0,0.0,0.0,0.0,0.0,0.0,0.0,0.0,0.0,-2.1081,-2.157,0.0,-2.1647,0.0,0.0,0.0,0.0,-2.2073,-2.2293,-2.1919,-2.2398,0.0,0.0,0.0,0.0,0.0,0.0,0.0,0.0,-2.0096,-2.0842,-2.1452,-2.016,-1.9861,-2.0201,0.0,0.0,0.0,0.0,0.0,0.0,0.0,0.0,0.0,0.0,0.0,0.0,0.0,0.0,0.0,0.0,0.0,0.0,0.0,0.0,0.0,0.0,0.0,0.0,0.0,0.0,0.0,0.0,0.0,0.0,0.0,-3.9939,-4.0149,-3.9539,-4.0857,-4.1159,-4.0421,-4.095,-4.1583,-4.2216,-4.2009,-4.232,-4.3041,-4.1655,-4.1336,-4.1848,-4.2518,-4.353,-4.4763,-4.4169,-4.4175,-4.4526,-4.4709,-4.4891,-4.4891,-4.495,-4.5049,-4.5214,0.0,0.0,0.0,0.0,0.0,0.0,0.0,0.0,0.0,0.0,0.0,0.0,0.0,0.0,0.0,0.0,0.0,0.0,0.0,0.0,0.0,0.0,0.0,0.0,0.0,0.0,0.0,0.0,0.0,0.0,0.0,0.0,0.0,-2.1528,0.0,-2.3613,0.0,0.0,0.0,0.0,-2.1953,-2.2428,-2.3101,-2.2233,-2.2143,0.0,0.0,0.0,0.0,0.0,0.0,0.0,-2.078,-2.0903,-2.0941,-2.0655,-2.1113,-2.2041,0.0,0.0,0.0,0.0,0.0,0.0,0.0,0.0,0.0,0.0,0.0,0.0,0.0,0.0,0.0,0.0,0.0,0.0,0.0,0.0,0.0,0.0,0.0,0.0,0.0,0.0,0.0,0.0,0.0,0.0,-3.9434,-4.0031,-4.0211,-3.996,-4.0459,-4.0531,-4.0148,-3.9801,-4.0124,0.0,-4.1263,-4.1495,-4.1818,-4.2488,-4.2827,-4.2962,-4.3111,-4.3334,-4.3668,-4.3534,-4.3468,-4.3588,-4.3668,-4.3683,-4.3743,-4.4265,-4.4363,-4.437,0.0,0.0,0.0,0.0,0.0,0.0,0.0,0.0,0.0,0.0,0.0,0.0,0.0,0.0,0.0,0.0,0.0,0.0,0.0,0.0,0.0,0.0,0.0,0.0,0.0,0.0,0.0,0.0,0.0,0.0,0.0,0.0,0.0,-2.2014,0.0,-2.3613,0.0,0.0,0.0,0.0,-2.1876,-2.2423,-2.2988,-2.27,-2.2817,-2.3026,-2.2338,0.0,0.0,0.0,0.0,0.0,0.0,0.0,-2.1136,-2.0467,-2.085,-2.1759,0.0,0.0,0.0,0.0,0.0,0.0,0.0,0.0,0.0,0.0,0.0,0.0,0.0,0.0,0.0,0.0,0.0,0.0,0.0,0.0,0.0,0.0,0.0,0.0,0.0,0.0,0.0,0.0,0.0,-3.9387,-3.8485,-3.9295,-3.9605,-3.9357,-4.0032,-4.0286,-3.9978,-3.978,-4.0095,-4.0926,-4.0926,-4.108,-4.1399,-4.2087,-4.2581,-4.2865,-4.2865,-4.3045,-4.3329,-4.3329,-4.3329,-4.3329,-4.3329,-4.3329,-4.3374,-4.3718,-4.3677,-4.3619,0.0,0.0,0.0,0.0,0.0,0.0,0.0,0.0,0.0,0.0,0.0,0.0,0.0,0.0,0.0,0.0,0.0,0.0,0.0,0.0,0.0,0.0,0.0,0.0,0.0,0.0,0.0,0.0,0.0,0.0,0.0,0.0,0.0,-2.2899,0.0,0.0,0.0,0.0,0.0,0.0,-2.1854,-2.2372,-2.2609,-2.3238,-2.3505,-2.3595,-2.3475,-2.3245,-2.2836,-2.2295,0.0,0.0,0.0,0.0,-2.1542,-2.025,-2.0422,-2.1077,0.0,0.0,0.0,0.0,0.0,0.0,0.0,0.0,0.0,0.0,0.0,0.0,0.0,0.0,0.0,0.0,0.0,0.0,0.0,0.0,0.0,0.0,0.0,0.0,0.0,0.0,0.0,0.0,0.0,-3.8306,-3.739,-3.8368,-3.8735,-3.8282,-3.9279,-3.9662,-3.9298,-3.9662,-4.0003,-4.0411,-4.0364,-4.0603,-4.1205,-4.11,-4.1459,-4.2192,-4.2312,-4.2671,-4.3165,-4.3284,-4.3329,-4.3329,-4.3329,-4.3329,-4.3329,-4.3329,-4.3155,-4.307,0.0,0.0,0.0,0.0,0.0,0.0,0.0,0.0,0.0,0.0,0.0,0.0,0.0,0.0,0.0,0.0,0.0,0.0,0.0,0.0,0.0,0.0,0.0,0.0,0.0,0.0,0.0,0.0,0.0,0.0,0.0,0.0,0.0,-2.4343,0.0,0.0,0.0,0.0,0.0,0.0,0.0,-2.2364,-2.3142,-2.2897,-2.3131,-2.3535,-2.2996,-2.3086,-2.346,-2.3413,-2.2963,0.0,0.0,0.0,-2.1545,-2.0797,-2.1288,0.0,0.0,0.0,0.0,0.0,0.0,0.0,0.0,0.0,0.0,0.0,0.0,0.0,0.0,0.0,0.0,0.0,0.0,0.0,0.0,0.0,0.0,0.0,0.0,0.0,0.0,0.0,0.0,0.0,-3.7293,-3.6975,-3.7349,-3.7625,-3.758,-3.7286,-3.7645,-3.7619,-3.7178,-3.7423,-3.7608,-3.7608,-3.837,-3.9322,-4.0502,-3.9948,-4.0352,-4.1549,-4.2117,-4.2417,-4.2536,-4.309,-4.3329,-4.3329,-4.3329,-4.3329,-4.3329,-4.3329,-4.3155,-4.301,0.0,0.0,0.0,0.0,0.0,0.0,0.0,0.0,0.0,0.0,0.0,0.0,0.0,0.0,0.0,0.0,0.0,0.0,0.0,0.0,0.0,0.0,-1.5799,0.0,0.0,0.0,0.0,0.0,0.0,0.0,0.0,-2.5794,-2.5794,0.0,0.0,0.0,0.0,0.0,0.0,0.0,0.0,0.0,0.0,0.0,-2.3146,-2.3041,-2.2813,-2.2847,-2.3026,-2.2652,-2.2592,-2.2724,-2.2724,0.0,0.0,0.0,-2.134,0.0,0.0,0.0,0.0,0.0,0.0,0.0,0.0,0.0,0.0,0.0,0.0,0.0,0.0,0.0,0.0,0.0,0.0,0.0,0.0,0.0,0.0,0.0,0.0,0.0,0.0,0.0,0.0,0.0,-3.6847,-3.6872,-3.6345,-3.696,-3.7198,-3.7075,-3.7282,-3.7336,-3.7129,-3.7213,-3.7282,-3.7282,-3.7635,-3.8347,-3.926,-3.8975,-3.9574,-4.0846,-4.113,-4.1683,-4.2387,-4.2671,-4.3,-4.3329,-4.3329,-4.3329,-4.3329,-4.3329,-4.3155,-4.2996,0.0,0.0,0.0,0.0,0.0,0.0,0.0,0.0,0.0,0.0,0.0,0.0,0.0,0.0,0.0,0.0,0.0,0.0,0.0,0.0,0.0,-1.5551,-1.5697,-1.6129,-1.6857,0.0,0.0,0.0,0.0,0.0,-2.6363,-2.7545,-2.7904,0.0,-2.9006,0.0,0.0,0.0,0.0,0.0,0.0,0.0,0.0,0.0,0.0,0.0,-2.2664,-2.2724,-2.2664,-2.2293,-2.2503,-2.2906,-2.2906,-2.2577,0.0,0.0,0.0,0.0,0.0,0.0,0.0,0.0,0.0,0.0,0.0,0.0,0.0,0.0,0.0,0.0,0.0,0.0,0.0,0.0,0.0,0.0,0.0,0.0,0.0,0.0,0.0,0.0,0.0,0.0,0.0,0.0,-3.6543,-3.6724,-3.5733,-3.6365,-3.679,-3.6722,-3.6858,-3.6926,-3.6926,-3.6926,-3.7,-3.718,-3.718,-3.7509,-3.8138,-3.8317,-3.8945,-3.9903,-4.0247,-4.095,-4.1878,-4.2043,-4.2491,-4.309,-4.309,-4.318,-4.3329,-4.3329,-4.325,-4.3076,0.0,0.0,0.0,0.0,0.0,0.0,0.0,0.0,0.0,0.0,0.0,0.0,0.0,0.0,0.0,-1.3648,0.0,0.0,0.0,0.0,0.0,-1.5418,-1.5418,0.0,-1.7342,0.0,0.0,0.0,0.0,0.0,-2.5719,-2.8278,-2.9774,-3.0298,-3.0539,-3.0038,-2.8889,0.0,0.0,0.0,-2.4401,-2.3048,-2.2359,0.0,0.0,0.0,0.0,-2.2724,-2.2798,-2.331,-2.352,-2.355,-2.355,-2.3535,-2.3266,0.0,0.0,0.0,0.0,0.0,0.0,0.0,0.0,0.0,0.0,0.0,0.0,0.0,0.0,0.0,0.0,0.0,0.0,0.0,0.0,0.0,0.0,0.0,0.0,0.0,0.0,0.0,0.0,0.0,0.0,0.0,-3.6219,-3.6061,-3.6073,-3.6061,-3.5937,-3.5793,-3.5644,-3.5609,-3.5609,-3.5609,-3.5923,-3.6537,-3.6537,-3.6851,-3.7479,-3.8108,-3.8422,-3.8556,-3.9843,-4.0442,-4.0546,-4.1175,-4.1818,-4.2417,-4.2417,-4.2791,-4.3329,-4.3329,-4.325,-4.325,0.0,0.0,0.0,0.0,0.0,0.0,0.0,0.0,0.0,0.0,0.0,0.0,0.0,-1.4174,-1.4056,-1.3493,-1.3823,0.0,0.0,0.0,0.0,-1.5404,-1.5875,-1.6568,-1.7368,0.0,0.0,0.0,0.0,-2.2173,-2.5016,-2.6811,-2.8248,-2.937,-3.1792,-3.0691,-2.6998,-2.7887,0.0,0.0,-2.5317,-2.4608,-2.2673,0.0,0.0,0.0,0.0,0.0,0.0,0.0,-2.3266,-2.3595,-2.3595,-2.3595,-2.3355,-2.2069,-2.1066,-2.0505,-2.1362,0.0,0.0,0.0,0.0,0.0,0.0,0.0,0.0,0.0,0.0,0.0,0.0,0.0,0.0,0.0,0.0,0.0,0.0,0.0,0.0,0.0,0.0,0.0,0.0,0.0,0.0,0.0,0.0,-3.48,-3.5642,-3.4768,-3.463,-3.5509,-3.5589,-3.5394,-3.4846,-3.4846,-3.4966,-3.5205,-3.5639,-3.6193,-3.6821,-3.706,-3.7614,-3.8422,-3.8901,-3.9589,-4.0442,-4.1115,-4.1773,-4.2402,-4.2821,-4.2944,-4.2902,-4.318,-4.3232,-4.3165,0.0,0.0,0.0,0.0,0.0,0.0,0.0,0.0,0.0,0.0,0.0,0.0,0.0,0.0,-1.4113,-1.3799,-1.4005,-1.4345,-1.474,-1.5061,-1.525,-1.527,-1.5859,-1.6505,0.0,0.0,0.0,0.0,0.0,0.0,0.0,-2.5001,-2.6408,-2.7395,-3.0522,-3.0379,0.0,0.0,0.0,-2.5998,0.0,-2.6291,-2.5293,0.0,0.0,0.0,0.0,0.0,0.0,0.0,0.0,-2.4567,-2.4343,-2.3819,-2.3116,-2.2278,-2.156,-2.1102,-2.1481,0.0,0.0,0.0,0.0,0.0,0.0,0.0,0.0,0.0,0.0,0.0,0.0,0.0,0.0,0.0,0.0,0.0,0.0,0.0,0.0,0.0,0.0,0.0,0.0,0.0,0.0,0.0,0.0,0.0,-3.5488,-3.4568,-3.437,-3.513,-3.5484,-3.5274,-3.4487,-3.4472,-3.4472,-3.4472,-3.4711,-3.5175,-3.5818,-3.6058,-3.6746,-3.7778,-3.8197,-3.902,-4.0113,-4.0546,-4.1115,-4.1773,-4.2494,-4.2692,-4.2664,-4.3262,-4.3389,-4.3196,0.0,0.0,0.0,0.0,0.0,0.0,0.0,0.0,0.0,0.0,0.0,0.0,0.0,0.0,0.0,-1.4539,-1.4893,-1.5084,-1.4965,-1.5568,-1.5683,-1.5086,0.0,0.0,0.0,0.0,0.0,0.0,0.0,0.0,0.0,0.0,-2.4448,0.0,-2.6572,-2.9176,-3.194,0.0,-3.1668,-3.3502,0.0,-2.7987,-2.9911,0.0,0.0,0.0,-2.9396,-2.8804,0.0,-2.8188,0.0,0.0,0.0,-2.4238,-2.2739,-2.2724,-2.2218,-2.1724,0.0,0.0,0.0,0.0,0.0,0.0,0.0,0.0,0.0,0.0,0.0,0.0,0.0,0.0,0.0,0.0,0.0,0.0,0.0,0.0,0.0,0.0,0.0,0.0,0.0,0.0,0.0,0.0,-3.5321,-3.5167,-3.5612,-3.5657,-3.5307,-3.4472,-3.51,-3.513,-3.4457,-3.4442,-3.4457,-3.4472,-3.3829,-3.3858,-3.4502,-3.5175,-3.5833,-3.6537,-3.7793,-3.8736,-3.9394,-3.9424,-3.9828,-4.0457,-4.1355,-4.2093,-4.2741,-4.3419,-4.366,-4.3554,0.0,0.0,0.0,0.0,0.0,0.0,0.0,0.0,0.0,0.0,0.0,0.0,0.0,0.0,-1.5329,-1.5242,-1.5714,-1.6159,-1.6394,-1.6562,-1.6621,-1.6605,-1.7298,-1.7739,0.0,0.0,0.0,0.0,0.0,0.0,0.0,0.0,0.0,0.0,-2.3834,-2.5183,-2.6118,-2.804,0.0,0.0,-2.9458,-2.8793,0.0,0.0,0.0,0.0,0.0,-2.9666,-2.8816,0.0,-2.8098,-2.6303,0.0,0.0,-2.3251,-2.2843,-2.2589,-2.2308,-2.1829,0.0,0.0,0.0,0.0,0.0,0.0,0.0,0.0,0.0,0.0,0.0,0.0,0.0,0.0,0.0,0.0,0.0,0.0,0.0,0.0,0.0,0.0,0.0,0.0,0.0,0.0,0.0,-3.4531,-3.4455,-3.4592,-3.476,-3.4505,-3.3784,-3.3948,-3.3963,-3.3769,-3.3769,-3.4008,-3.4472,-3.4292,-3.4307,-3.4487,-3.4666,-3.513,-3.5818,-3.6656,-3.7644,-3.8751,-3.9723,-4.0379,-4.0855,-4.1957,-4.2455,-4.2631,-4.3016,-4.3411,-4.3608,0.0,0.0,0.0,0.0,0.0,0.0,0.0,0.0,0.0,0.0,0.0,0.0,0.0,0.0,0.0,-1.6162,-1.6579,-1.7005,-1.7303,-1.7348,-1.7357,-1.7324,-1.7989,-1.8297,0.0,0.0,0.0,0.0,0.0,0.0,0.0,0.0,0.0,0.0,0.0,0.0,0.0,0.0,0.0,0.0,-2.8712,0.0,0.0,-3.1894,-3.1731,0.0,0.0,0.0,-3.1674,-3.1958,-3.0178,0.0,0.0,0.0,0.0,-2.3936,-2.3396,-2.26,-2.1939,0.0,0.0,0.0,0.0,0.0,-1.8852,-2.1919,0.0,0.0,0.0,0.0,0.0,0.0,0.0,0.0,0.0,0.0,0.0,0.0,0.0,0.0,0.0,0.0,0.0,-3.3743,-3.391,-3.471,-3.441,-3.4258,-3.4352,-3.4173,-3.3769,-3.3095,-3.335,-3.3365,-3.3095,-3.3365,-3.3544,-3.3664,-3.3664,-3.3664,-3.3664,-3.3948,-3.4442,-3.513,-3.6205,-3.7263,-3.8217,-3.9481,-4.0228,-4.0694,-4.197,-4.2557,-4.259,-4.3258,-4.3701,-4.376,0.0,0.0,0.0,0.0,0.0,0.0,0.0,0.0,0.0,0.0,0.0,0.0,0.0,0.0,0.0,0.0,-1.751,-1.7744,-1.7975,-1.815,-1.8052,-1.7692,-1.8022,-1.8275,-1.8352,0.0,0.0,0.0,0.0,0.0,0.0,0.0,0.0,0.0,0.0,0.0,0.0,0.0,0.0,-2.9363,-2.7339,-3.0319,0.0,0.0,-3.384,-3.4654,-3.6568,-3.6004,-3.4352,-3.4966,-3.2871,0.0,0.0,0.0,0.0,0.0,-2.4264,0.0,0.0,0.0,0.0,0.0,0.0,0.0,-1.9921,-2.2349,-2.4552,0.0,0.0,0.0,0.0,0.0,0.0,0.0,0.0,0.0,0.0,0.0,0.0,0.0,0.0,0.0,-3.3759,-3.2598,-3.273,-3.4912,-3.4318,-3.4014,-3.4128,-3.3664,-3.308,-3.2422,-3.3036,-3.3095,-3.2527,-3.3095,-3.3125,-3.2617,-3.2557,-3.2512,-3.2542,-3.32,-3.3875,-3.4568,-3.6179,-3.7243,-3.782,-3.8953,-3.9657,-4.0258,-4.1668,-4.2421,-4.2782,-4.376,-4.422,-4.4098,0.0,0.0,0.0,0.0,0.0,0.0,0.0,0.0,0.0,0.0,0.0,0.0,0.0,0.0,0.0,0.0,-1.8607,-1.879,-1.9129,-1.9456,-1.9386,-1.8877,-1.9336,-1.9552,-1.9424,-1.9652,0.0,0.0,0.0,0.0,0.0,0.0,0.0,0.0,0.0,0.0,0.0,0.0,0.0,-2.5016,-2.8052,0.0,-3.1977,-3.445,-3.3429,-3.1203,-3.5644,-3.5334,-3.2916,-3.3051,-3.2931,-3.2078,0.0,0.0,0.0,-2.4576,0.0,0.0,0.0,0.0,0.0,0.0,0.0,0.0,-1.9386,-1.9652,-2.0436,0.0,0.0,0.0,0.0,0.0,0.0,0.0,0.0,0.0,0.0,0.0,0.0,0.0,0.0,0.0,-3.1509,-3.1672,-3.1916,-3.2258,-3.2139,-3.202,-3.2049,-3.2482,-3.2407,-3.1749,-3.2362,-3.2647,-3.2512,-3.2647,-3.2901,-3.3305,-3.2766,-3.2512,-3.2542,-3.32,-3.3743,-3.4197,-3.5594,-3.6919,-3.8162,-3.8514,-3.9498,-4.0739,-4.1557,-4.2348,-4.3003,-4.3267,-4.3929,-4.469,0.0,0.0,0.0,0.0,0.0,0.0,0.0,0.0,0.0,0.0,0.0,0.0,0.0,0.0,0.0,0.0,0.0,0.0,0.0,-1.9603,-1.9726,-1.9603,-1.9762,-1.9848,-1.9848,-1.9884,-1.92,0.0,0.0,0.0,0.0,0.0,0.0,0.0,0.0,0.0,0.0,0.0,-2.1356,-2.4194,-2.6617,0.0,-3.1494,-3.3651,-3.3803,-3.3228,-3.5513,-3.5582,-3.4337,-3.3335,-3.344,0.0,-3.0158,-2.8036,-2.6369,0.0,-2.3685,-2.2959,0.0,0.0,0.0,-2.2475,0.0,0.0,0.0,-2.0346,-2.0828,0.0,0.0,0.0,0.0,0.0,0.0,0.0,0.0,0.0,0.0,0.0,0.0,0.0,0.0,0.0,-3.0283,-3.1054,-3.1807,-3.2154,-3.1782,-3.1648,-3.1959,-3.2135,-3.2116,-3.1769,-3.2186,-3.241,-3.2251,-3.2583,-3.269,-3.2512,-3.2512,-3.2332,-3.2063,-3.3186,-3.3758,-3.4016,-3.5645,-3.6919,-3.7885,-3.8629,-3.9505,-4.0515,-4.1365,-4.224,-4.3003,-4.3288,-4.3991,-4.4781,0.0,0.0,0.0,0.0,0.0,0.0,0.0,0.0,0.0,0.0,0.0,0.0,0.0,0.0,0.0,0.0,0.0,0.0,0.0,0.0,-1.9775,-1.9632,-1.9869,-1.9899,-1.9703,-1.9873,-1.9276,0.0,0.0,0.0,0.0,0.0,0.0,0.0,0.0,0.0,0.0,0.0,0.0,-2.5045,0.0,-2.8159,-3.1641,-3.2809,-3.4143,-3.5489,-3.5484,-3.6013,-3.6342,-3.4218,-3.3769,-3.3799,-3.2078,-2.9499,0.0,0.0,0.0,0.0,0.0,0.0,0.0,0.0,0.0,-2.2667,0.0,0.0,0.0,0.0,0.0,0.0,0.0,0.0,0.0,0.0,0.0,0.0,0.0,0.0,0.0,0.0,0.0,0.0,0.0,-3.0066,-3.1328,-3.2254,-3.1702,-3.1569,-3.2108,-3.1917,-3.186,-3.1996,-3.2247,-3.2302,-3.2094,-3.2707,-3.2652,-3.185,-3.2496,-3.2481,-3.2017,-3.3397,-3.4076,-3.4197,-3.5938,-3.7126,-3.7802,-3.8809,-3.9575,-4.0204,-4.1163,-4.1928,-4.272,-4.3256,-4.4025,-4.4551,-1.4433,-1.4894,0.0,0.0,0.0,0.0,0.0,0.0,0.0,0.0,0.0,0.0,0.0,0.0,0.0,0.0,0.0,0.0,-2.0399,0.0,0.0,-1.8324,-2.0064,-2.0351,-1.8698,-1.9952,-1.9944,-1.8597,0.0,0.0,0.0,0.0,0.0,0.0,-1.9471,0.0,0.0,0.0,-2.3966,0.0,-2.8015,-2.9129,0.0,-3.2987,-3.3585,-3.3141,-3.4861,-3.6282,-3.6911,0.0,-3.3155,-3.2587,0.0,-2.8658,-2.5349,-2.6518,0.0,0.0,0.0,0.0,0.0,0.0,-2.298,0.0,0.0,0.0,-2.0098,-1.9948,0.0,0.0,0.0,0.0,0.0,0.0,0.0,0.0,0.0,0.0,0.0,0.0,0.0,0.0,0.0,-2.7615,-2.9372,-3.0398,-3.0588,-3.0657,-3.0731,-3.0966,-3.1389,-3.1966,-3.2247,-3.2398,-3.2342,-3.292,-3.3111,-3.3035,-3.3545,-3.3728,-3.3563,-3.447,-3.4927,-3.508,-3.6199,-3.7467,-3.8691,-3.8932,-3.9579,-4.05,-4.096,-4.1495,-4.2007,-4.2832,-4.3547,-4.4084,-1.391,-1.4533,0.0,0.0,0.0,0.0,0.0,0.0,0.0,0.0,0.0,0.0,0.0,0.0,0.0,0.0,0.0,-2.3507,0.0,0.0,0.0,-2.1009,-2.0142,-1.9807,-2.0121,-1.9937,-1.9834,-1.9869,-1.9869,0.0,0.0,0.0,0.0,0.0,-1.9798,0.0,-2.2832,0.0,-2.4627,0.0,0.0,0.0,0.0,-3.2909,-3.4129,-3.4218,-3.3888,-3.4861,-3.5789,0.0,-3.2826,0.0,0.0,0.0,0.0,-2.8017,0.0,0.0,0.0,0.0,0.0,0.0,0.0,0.0,-2.4641,0.0,-2.0956,0.0,0.0,0.0,0.0,0.0,0.0,0.0,-1.8957,0.0,0.0,0.0,0.0,0.0,0.0,0.0,0.0,0.0,0.0,0.0,-2.9455,-2.9621,-2.8778,-3.0543,-3.1566,-3.1665,-3.2338,-3.2703,-3.2703,-3.3203,-3.3372,-3.32,-3.371,-3.3985,-3.3955,-3.4729,-3.5141,-3.5233,-3.6368,-3.7126,-3.7638,-3.8215,-3.8834,-3.955,-4.0003,-4.0823,-4.1743,-4.2202,-4.3024,-4.3944,-1.3668,0.0,0.0,0.0,0.0,0.0,0.0,0.0,0.0,0.0,0.0,0.0,-2.5445,-2.4587,0.0,0.0,-2.7004,-2.6361,0.0,0.0,-2.241,0.0,0.0,0.0,-2.1126,-1.9953,-1.9719,-2.0555,0.0,0.0,0.0,0.0,0.0,0.0,0.0,-2.1265,-2.2975,0.0,0.0,-2.744,-2.9107,-3.0321,-3.1289,-3.2939,-3.4401,-3.531,-3.3858,-3.4277,-3.5011,-3.1749,-3.2647,0.0,-3.1255,0.0,-2.9939,0.0,0.0,0.0,-2.6561,0.0,0.0,0.0,0.0,0.0,0.0,0.0,0.0,0.0,0.0,0.0,0.0,0.0,0.0,0.0,0.0,-1.8781,0.0,0.0,0.0,0.0,0.0,0.0,0.0,0.0,0.0,-2.5326,-2.7285,-2.8167,-2.727,-2.9855,-3.1409,-3.1413,-3.2361,-3.2897,-3.2897,-3.3512,-3.3671,-3.3444,-3.4145,-3.4499,-3.4514,-3.5232,-3.56,-3.5631,-3.6599,-3.6986,-3.6987,-3.7608,-3.8244,-3.8797,-3.9329,-4.0208,-4.1063,-4.1557,-4.2525,-4.3577,-1.3884,-1.4477,0.0,0.0,0.0,0.0,0.0,0.0,0.0,0.0,0.0,0.0,0.0,0.0,0.0,0.0,0.0,-2.7068,-2.8241,0.0,-2.4092,0.0,0.0,-2.0231,0.0,-2.0026,-1.9778,-2.0138,0.0,0.0,0.0,0.0,0.0,0.0,0.0,-2.182,-2.3285,-2.6075,-2.7977,-2.9358,-3.2367,-3.4113,-3.4827,0.0,-3.3799,-3.5489,-3.5429,0.0,0.0,-3.3858,-3.2617,0.0,0.0,0.0,0.0,0.0,0.0,0.0,0.0,0.0,0.0,-2.6901,0.0,0.0,0.0,0.0,-2.2679,0.0,0.0,0.0,0.0,0.0,0.0,-2.0782,0.0,0.0,0.0,0.0,0.0,0.0,0.0,0.0,0.0,0.0,0.0,-2.0051,-2.3531,-2.6189,-2.6814,-2.8776,-3.0342,-3.1359,-3.2377,-3.2897,-3.2897,-3.3678,-3.4077,-3.4093,-3.5151,-3.567,-3.5701,-3.6306,-3.6569,-3.6461,-3.6862,-3.7188,-3.7477,-3.7667,-3.8021,-3.8569,-3.9446,-3.9673,-3.9754,-4.1093,-4.2048,-4.2725,0.0,0.0,0.0,0.0,0.0,0.0,0.0,-2.0319,0.0,0.0,0.0,0.0,0.0,-3.2466,-3.2482,0.0,0.0,-3.3019,-3.0952,-2.9481,0.0,0.0,0.0,-2.4081,0.0,0.0,-2.2042,0.0,0.0,0.0,0.0,0.0,0.0,0.0,0.0,-2.1873,0.0,0.0,0.0,0.0,0.0,-3.2467,-3.2855,0.0,0.0,-3.5504,-3.5504,-3.5504,0.0,-3.344,-3.344,-3.4053,-3.338,-3.1958,-3.0971,-3.3412,-3.1516,0.0,0.0,0.0,-3.1524,-3.0193,0.0,0.0,0.0,0.0,0.0,0.0,0.0,0.0,0.0,0.0,0.0,-2.1979,0.0,0.0,0.0,0.0,0.0,0.0,0.0,0.0,0.0,0.0,0.0,-1.7413,-1.9902,-2.1867,-2.2581,-2.6681,-2.9078,-2.9159,-3.1221,-3.2499,-3.2897,-3.3512,-3.3895,-3.4093,-3.5283,-3.5804,-3.5836,-3.6459,-3.6662,-3.6662,-3.6723,-3.6801,-3.683,-3.7002,-3.7341,-3.7908,-3.865,-3.919,-3.9631,-4.0845,-4.155,-4.2094,-1.4814,0.0,0.0,0.0,0.0,0.0,0.0,0.0,0.0,0.0,-2.862,0.0,-3.5597,0.0,-3.5839,0.0,-3.6338,-3.5611,-3.3604,-3.0878,0.0,-3.0821,-2.736,0.0,0.0,0.0,0.0,0.0,0.0,-2.0624,0.0,0.0,0.0,0.0,0.0,0.0,-2.2154,0.0,-2.7303,0.0,0.0,-3.1546,0.0,0.0,-3.4688,-3.5818,0.0,-3.5504,-3.531,-3.4008,-3.4442,-3.528,-3.3993,-3.329,-3.3185,-3.4645,-3.3156,-3.1297,-3.2485,-3.3592,0.0,-3.2551,-3.1826,0.0,-3.0051,0.0,-2.6273,0.0,0.0,0.0,0.0,0.0,0.0,0.0,-2.0887,0.0,0.0,-1.898,0.0,0.0,0.0,0.0,0.0,0.0,-1.9718,-1.6187,-1.7712,-1.9205,0.0,0.0,-2.8177,-2.7925,-3.08,-3.2388,-3.2499,-3.3193,-3.3576,-3.3591,-3.4951,-3.5623,-3.5669,-3.6471,-3.6892,-3.6907,-3.6846,-3.6739,-3.66,-3.6662,-3.6863,-3.723,-3.8268,-3.8901,-3.9277,-4.0489,-4.121,-4.1786,0.0,0.0,0.0,0.0,-1.7748,0.0,0.0,0.0,-2.6837,0.0,-3.1945,-3.2921,-3.6137,-3.5379,-3.5488,-3.7745,-3.5744,-3.479,-3.5978,-3.0661,0.0,0.0,-2.6784,-2.5221,-2.8299,0.0,0.0,0.0,0.0,0.0,0.0,0.0,0.0,0.0,-2.106,0.0,-2.0411,-2.4828,-2.6358,-2.6065,-2.9064,-3.1506,-3.3215,-3.1958,-3.3529,-3.6312,-3.5684,-3.5459,-3.5459,-3.5489,-3.5504,-3.5504,-3.5504,-3.5489,-3.5444,-3.5459,-3.5459,-3.5509,-3.5864,-3.5943,-3.5628,-3.3986,-3.3303,0.0,0.0,0.0,-2.9663,0.0,0.0,0.0,0.0,0.0,0.0,0.0,0.0,0.0,0.0,0.0,0.0,0.0,0.0,0.0,0.0,-2.2061,-2.1461,-1.6278,-1.6964,-1.8209,0.0,0.0,-2.7584,-2.773,-3.0865,-3.2299,-3.1781,-3.2648,-3.2971,-3.2672,-3.4288,-3.5106,-3.5273,-3.6535,-3.7163,-3.7178,-3.7044,-3.6877,-3.6723,-3.6723,-3.6693,-3.6739,-3.8354,-3.8865,-3.8769,-4.0062,-4.0986,-4.1786,-1.5711,-1.7156,-1.8973,0.0,-2.0678,-2.1837,0.0,0.0,0.0,0.0,-3.4007,-3.6367,-3.7884,-3.9471,-3.9219,-3.6165,-3.6858,0.0,0.0,0.0,0.0,-3.577,-3.3779,-3.1717,-2.9772,-2.9139,-2.7838,-2.5835,0.0,0.0,-2.2966,0.0,0.0,0.0,0.0,0.0,-2.0501,-2.4015,-2.6101,-2.7041,-2.7929,-2.9516,0.0,0.0,-3.2527,-3.4966,-3.4801,-3.4741,-3.4816,-3.5325,-3.5504,-3.5504,-3.5504,-3.516,-3.4805,-3.4994,-3.4931,-3.4805,-3.5105,-3.5594,-3.5821,-3.5138,-3.4193,-3.3604,0.0,0.0,0.0,0.0,0.0,0.0,0.0,0.0,0.0,0.0,0.0,0.0,0.0,0.0,0.0,-2.2522,0.0,0.0,-1.9788,-1.9459,-1.87,-1.7301,-1.664,-1.7652,0.0,0.0,0.0,-2.8112,-2.7719,-2.9114,-3.2578,-3.1182,-3.1388,-3.3134,-3.4038,-3.4802,-3.537,-3.6122,-3.6723,-3.7178,-3.7044,-3.6938,-3.6938,-3.6938,-3.7219,-3.7686,-3.8668,-3.9586,-4.0417,-4.047,-4.0986,-4.1724,-1.6014,0.0,0.0,-2.1267,0.0,0.0,-2.6064,0.0,0.0,-3.3462,-3.5654,0.0,-3.9219,-4.1166,-4.1231,-3.8392,-3.7658,0.0,-3.666,0.0,0.0,-3.7524,-3.5591,-3.3073,-3.0241,-3.0324,0.0,-2.6763,0.0,0.0,-2.4118,0.0,0.0,0.0,0.0,-1.985,0.0,-2.3508,-2.6083,-2.7921,-2.8066,0.0,0.0,-3.0628,-3.1702,-3.3472,-3.3758,-3.3922,-3.4098,-3.4502,-3.4637,-3.4637,-3.4637,-3.4562,-3.4535,-3.4848,-3.5059,-3.5208,-3.563,-3.6014,-3.6275,-3.6105,-3.5644,-3.54,-3.5898,-3.4599,-3.3044,0.0,-3.2571,-3.2228,0.0,0.0,0.0,0.0,0.0,0.0,0.0,0.0,0.0,0.0,-2.2892,0.0,-2.07,-1.9011,-1.7695,-1.6939,-1.6563,-1.7464,0.0,0.0,0.0,-2.5728,-2.7191,-2.8599,-3.0057,-2.9381,-3.0219,-3.2429,-3.3316,-3.4431,-3.5796,-3.6447,-3.6983,-3.7329,-3.7165,-3.7105,-3.7105,-3.7105,-3.7435,-3.8091,-3.9089,-4.015,-4.1034,-4.083,-4.1179,-4.1945,0.0,0.0,0.0,0.0,0.0,0.0,0.0,-2.9477,0.0,-3.6297,0.0,-3.7655,-4.0035,-4.1308,-4.1965,-4.1709,0.0,-3.7195,-3.9973,-3.4465,-3.332,-3.829,-3.5023,-3.2361,-3.0751,-3.0185,-2.9308,0.0,0.0,0.0,0.0,0.0,0.0,0.0,0.0,0.0,0.0,-2.3194,-2.6057,-2.8636,-2.8794,-3.0068,-3.1728,-3.0975,-3.1221,-3.2114,-3.2649,-3.311,-3.3441,-3.3469,-3.3499,-3.3499,-3.3546,-3.401,-3.4598,-3.4971,-3.5505,-3.6148,-3.6662,-3.6768,-3.6814,-3.6737,-3.7046,-3.7171,-3.6241,-3.6022,-3.5973,-3.5619,-3.5554,-3.4786,0.0,0.0,0.0,0.0,0.0,0.0,0.0,0.0,0.0,0.0,0.0,0.0,-2.2089,-1.9803,-1.7706,-1.6099,-1.6789,0.0,0.0,0.0,0.0,-2.2837,-2.7396,-2.8969,-2.7006,0.0,-2.9543,-3.1828,-3.2516,-3.403,-3.6248,-3.6995,-3.7385,-3.748,-3.727,-3.7194,-3.727,-3.7348,-3.773,-3.845,-3.9763,-4.0638,-4.1185,-4.1185,-4.1591,-4.2263,0.0,0.0,0.0,0.0,0.0,-2.7513,-3.1696,-3.3392,-3.4475,-3.4908,-3.7299,-3.9017,-3.9314,-4.0688,-4.1051,-3.9739,-3.892,0.0,0.0,0.0,0.0,-3.9999,-3.7778,-3.5668,-3.4032,-3.2793,-3.1541,0.0,0.0,0.0,0.0,0.0,0.0,0.0,0.0,0.0,-2.282,-2.2994,0.0,-2.881,-2.9162,-2.9863,-3.0775,-3.1705,-3.2198,-3.2318,-3.2231,-3.2604,-3.3123,-3.3442,-3.3499,-3.3546,-3.3759,-3.4349,-3.4971,-3.5248,-3.5861,-3.6414,-3.6538,-3.6677,-3.6676,-3.6353,-3.6597,-3.6763,-3.6199,-3.6322,-3.6476,-3.5973,-3.5767,-3.5503,-3.4891,0.0,0.0,0.0,0.0,0.0,0.0,0.0,0.0,0.0,0.0,-2.3651,0.0,-2.0325,-1.7974,-1.6954,0.0,0.0,0.0,0.0,0.0,0.0,-2.4645,0.0,0.0,0.0,-3.004,-3.4643,-3.2933,-3.3614,-3.6364,-3.624,-3.6676,-3.748,-3.7181,-3.7181,-3.7512,-3.802,-3.9014,-4.0245,-4.1033,-4.1428,-4.1522,-4.1522,-4.198,-4.2638,0.0,0.0,0.0,0.0,0.0,0.0,0.0,-3.4432,0.0,-3.4991,-3.6838,-3.8246,-3.8244,-3.9866,-4.0629,-3.9811,-3.8622,-3.8662,-4.0242,-3.8199,-3.8012,-4.0388,-3.8116,-3.5755,-3.3491,-3.314,-3.211,-3.0329,0.0,0.0,0.0,0.0,0.0,0.0,0.0,-2.0686,0.0,0.0,0.0,-2.8999,-3.0376,-3.1208,-3.1787,-3.2547,-3.2796,-3.2594,-3.2318,-3.239,-3.2669,-3.2715,-3.2719,-3.2762,-3.3023,-3.3597,-3.4222,-3.45,-3.4994,-3.5505,-3.5885,-3.6544,-3.6886,-3.5692,-3.6166,-3.6794,-3.626,-3.6352,-3.6476,-3.61,-3.5894,-3.5528,-3.4391,-3.273,0.0,0.0,0.0,0.0,0.0,0.0,-2.4683,0.0,0.0,0.0,0.0,0.0,0.0,0.0,0.0,0.0,0.0,0.0,0.0,0.0,0.0,0.0,0.0,0.0,0.0,-3.4659,-3.3544,-3.4384,-3.6975,-3.6782,-3.703,-3.748,-3.7301,-3.7361,-3.7559,-3.8602,-3.9645,-4.0672,-4.1336,-4.1588,-4.1588,-4.1588,-4.2268,-4.3248,0.0,-2.2868,0.0,0.0,-2.7571,0.0,-3.2198,-3.4849,-3.6517,-3.6096,-3.6676,-3.7451,-3.7996,-3.922,-3.9956,-3.9801,-3.8251,-3.7925,-3.9626,-3.7648,-3.7204,-3.8905,-3.711,-3.5048,-3.2713,-3.2682,-3.1883,0.0,0.0,0.0,0.0,0.0,0.0,0.0,0.0,0.0,0.0,0.0,-2.8605,-2.9832,-3.1602,-3.2588,-3.3005,-3.3203,-3.315,-3.2951,-3.2523,-3.2453,-3.2468,-3.2094,-3.1996,-3.2053,-3.2302,-3.2915,-3.3615,-3.4051,-3.4525,-3.4969,-3.5535,-3.6384,-3.6723,-3.5306,-3.6071,-3.6966,-3.6196,-3.6289,-3.6414,-3.61,-3.6037,-3.555,-3.3864,-3.333,0.0,0.0,0.0,0.0,0.0,0.0,0.0,0.0,0.0,0.0,-2.4942,0.0,0.0,0.0,0.0,0.0,0.0,0.0,0.0,0.0,0.0,-2.8199,-2.8743,0.0,-3.1964,-3.472,-3.4225,-3.5159,-3.7405,-3.7345,-3.7345,-3.7405,-3.7345,-3.7578,-3.8002,-3.9156,-4.0087,-4.0862,-4.1383,-4.1683,-4.1759,-4.1825,-4.2616,-4.369,0.0,0.0,0.0,0.0,0.0,0.0,-3.5893,-3.6065,-3.6419,-3.8166,-3.7887,-3.821,-3.9941,-3.9221,-3.8341,-3.772,-3.8058,-3.709,-3.4183,-3.6645,-3.697,-3.411,-3.4929,-3.5038,-3.4115,-3.2376,-3.1415,0.0,0.0,-2.5697,0.0,0.0,0.0,0.0,0.0,0.0,0.0,-2.7379,-2.9264,-3.1981,-3.2238,-3.2692,-3.3256,-3.3309,-3.3293,-3.3203,-3.2617,-3.2594,-3.2788,-3.2221,-3.1996,-3.2053,-3.2302,-3.3098,-3.406,-3.4983,-3.5717,-3.6211,-3.6301,-3.6037,-3.5652,-3.5383,-3.6422,-3.7165,-3.5876,-3.6178,-3.6538,-3.61,-3.6085,-3.5961,-3.5379,-3.3985,-3.2201,0.0,0.0,0.0,0.0,0.0,-2.3862,-2.3938,0.0,0.0,0.0,-2.3856,0.0,0.0,-2.0684,0.0,0.0,0.0,0.0,-2.2945,0.0,-2.7333,-2.9472,-3.0043,-3.2625,-3.7164,-3.4914,-3.5029,-3.7194,-3.6892,-3.6952,-3.7194,-3.6907,-3.7732,-3.9376,-3.9943,-4.0732,-4.1494,-4.1573,-4.1933,-4.238,-4.2516,-4.2974,-4.356,0.0,0.0,0.0,0.0,0.0,0.0,0.0,-3.57,-3.6659,-3.7331,-3.7278,-3.7585,-3.862,-3.7901,-3.7331,-3.7322,-3.7243,-3.6724,-3.5782,-3.6334,-3.6207,-3.523,-3.458,-3.4079,-3.3777,-3.257,-3.1805,0.0,0.0,0.0,0.0,0.0,0.0,0.0,0.0,-2.6915,-2.8373,-2.9847,-3.1257,-3.245,-3.2776,-3.3056,-3.3309,-3.3309,-3.3309,-3.3256,-3.2812,-3.2773,-3.2843,-3.2373,-3.2373,-3.2554,-3.2664,-3.3107,-3.3606,-3.3997,-3.4227,-3.4375,-3.4767,-3.4971,-3.5112,-3.5636,-3.6333,-3.68,-3.6289,-3.6429,-3.6476,-3.61,-3.6037,-3.61,-3.6115,-3.5569,-3.4421,-3.1947,0.0,0.0,0.0,0.0,0.0,-2.3879,0.0,-2.895,0.0,0.0,0.0,0.0,0.0,0.0,0.0,0.0,0.0,-2.5687,0.0,-2.9301,-3.3049,-3.2633,-3.4057,-3.7314,-3.6216,-3.6247,-3.721,-3.7527,-3.7996,-3.8527,-3.801,-3.8685,-4.0182,-4.0402,-4.0907,-4.1588,-4.1588,-4.1964,-4.2627,-4.2695,-4.3236,-4.4055,-3.2411,0.0,-2.9734,0.0,-3.2429,-3.3317,-3.349,-3.543,-3.6663,-3.5933,-3.6274,-3.6781,-3.7142,-3.6645,-3.621,-3.6085,-3.5909,-3.5536,-3.4942,-3.4881,-3.4707,-3.441,-3.3379,0.0,-3.2848,-3.222,-3.1607,-3.1081,-2.8017,0.0,0.0,0.0,0.0,0.0,-2.7656,-2.9014,-2.9974,-3.1702,-3.258,-3.2768,-3.3156,-3.3309,-3.3309,-3.3309,-3.3256,-3.315,-3.2881,-3.2773,-3.2718,-3.2287,-3.2413,-3.2773,-3.2843,-3.3096,-3.334,-3.3546,-3.3448,-3.338,-3.3905,-3.4591,-3.5225,-3.5447,-3.6073,-3.6616,-3.6538,-3.6476,-3.6429,-3.6178,-3.6163,-3.6226,-3.6352,-3.6322,-3.5523,-3.3228,0.0,0.0,0.0,-2.8324,0.0,-2.5223,-2.7743,-2.9325,-2.8551,-2.775,0.0,0.0,0.0,0.0,0.0,0.0,0.0,0.0,0.0,0.0,0.0,-3.3388,-3.4478,-3.727,-3.7369,-3.7418,-3.7539,-3.8246,-3.8874,-3.9424,-3.9156,-3.9614,-4.0625,-4.0749,-4.1096,-4.1604,-4.1825,-4.2347,-4.2942,-4.32,-4.3882,-4.4673,-3.5488,-3.5452,-3.5613,-3.6619,-3.6681,-3.5892,-3.4077,-3.5554,-3.6186,-3.4189,-3.5073,-3.6021,-3.6328,-3.5764,-3.4849,-3.3374,-3.3984,-3.2883,-2.9351,-3.1873,-3.2289,0.0,0.0,-3.1511,-3.1509,-3.0911,-3.0495,-3.032,0.0,0.0,-2.5895,0.0,-2.691,-2.758,-2.9733,-3.131,-3.2355,-3.2387,-3.2748,-3.3293,-3.3309,-3.3309,-3.3309,-3.3309,-3.3165,-3.2843,-3.2523,-3.2398,-3.2287,-3.1697,-3.191,-3.2453,-3.2773,-3.3096,-3.3435,-3.4083,-3.4273,-3.4273,-3.4288,-3.5331,-3.6075,-3.4762,-3.5747,-3.6816,-3.6163,-3.6226,-3.6492,-3.6492,-3.66,-3.6538,-3.61,-3.5567,-3.4744,-3.3224,0.0,0.0,0.0,-2.9948,0.0,-2.8534,-2.8497,-2.8513,-2.8494,-2.9414,0.0,0.0,0.0,0.0,0.0,0.0,0.0,-2.8566,-2.606,0.0,-3.0634,-3.1105,-3.3417,-3.748,-3.7993,-3.8262,-3.8293,-3.8952,-3.9314,-3.9361,-3.9973,-4.0417,-4.0656,-4.1107,-4.144,-4.1652,-4.2394,-4.3005,-4.3474,-4.4362,-4.4856,-4.5278,-3.0549,-3.2709,-3.4351,-3.3129,-3.4113,-3.4878,-3.4307,-3.4733,-3.5001,-3.4307,-3.4641,-3.4928,-3.4994,-3.4986,-3.4869,0.0,-3.3274,-3.2269,0.0,-3.1242,-3.0736,-3.0809,-2.9941,-2.9276,-2.8846,-2.9058,-2.8693,-2.7756,0.0,0.0,0.0,-2.6658,-2.8171,-3.0481,-3.1566,-3.2494,-3.3256,-3.3169,-3.3244,-3.345,-3.3346,-3.3309,-3.3309,-3.3309,-3.3256,-3.315,-3.3187,-3.3065,-3.3011,-3.2904,-3.2904,-3.3011,-3.315,-3.3112,-3.3036,-3.3309,-3.3372,-3.3412,-3.3659,-3.3981,-3.4419,-3.5264,-3.5301,-3.5214,-3.5782,-3.5475,-3.5349,-3.6232,-3.5905,-3.5538,-3.5615,-3.5309,-3.4455,-3.2616,-3.3763,0.0,-3.1557,0.0,-3.1228,-2.9388,-2.8125,-2.7963,-2.9438,-2.9232,0.0,0.0,0.0,0.0,0.0,0.0,0.0,0.0,-3.0538,0.0,-3.4525,-3.3504,-3.4696,-3.807,-3.809,-3.8686,-3.9643,-3.9503,-3.9961,-4.0844,-4.0623,-4.0781,-4.1288,-4.1428,-4.1822,-4.2315,-4.2047,-4.2795,-4.4071,-4.389,-4.4319,-4.5039,-3.0092,-3.2309,-3.3936,-3.2553,-3.3499,-3.4172,-3.3384,-3.3879,-3.409,-3.3317,-3.3893,-3.4414,-3.4414,-3.4481,0.0,-3.498,-3.3477,-3.2796,-3.3427,-3.1604,-3.0762,-3.1496,-3.0028,-2.9016,-2.874,-2.8828,0.0,-2.7382,-2.7012,-2.6825,-2.6794,-2.7189,-2.8836,-3.1371,-3.1799,-3.2428,-3.3208,-3.3346,-3.3277,-3.3065,-3.3011,-3.3081,-3.3309,-3.3081,-3.3027,-3.315,-3.3256,-3.3134,-3.2958,-3.3065,-3.3011,-3.2958,-3.3096,-3.3058,-3.2897,-3.2897,-3.2897,-3.2936,-3.3206,-3.3413,-3.3903,-3.5268,-3.5047,-3.4657,-3.5515,-3.5419,-3.5385,-3.6247,-3.569,-3.5217,-3.5615,-3.5049,-3.4303,-3.3401,-3.4357,-3.4716,-3.3193,0.0,-3.1939,0.0,0.0,0.0,0.0,-3.1149,-3.1039,0.0,0.0,0.0,0.0,0.0,0.0,-3.1348,-3.1867,0.0,-3.5561,-3.4685,-3.5775,-3.8763,-3.8905,-3.9596,-4.0795,-4.0418,-4.0767,-4.1573,-4.1146,-4.1209,-4.1588,-4.1522,-4.1724,-4.2133,-4.2145,-4.2893,-4.3912,-4.4006,-4.444,-4.4949,-3.2765,-3.3614,-3.4303,0.0,-3.4274,0.0,-3.1801,-3.3121,-3.3681,-3.1773,-3.3217,-3.4414,-3.4414,-3.4414,-3.4385,-3.4356,0.0,0.0,0.0,-3.2543,-3.1878,-3.1482,-3.0618,-3.0228,-3.0379,-2.9798,-2.9203,-2.8608,-2.788,-2.7643,-2.7864,-2.8118,-2.9005,-3.0494,-3.0658,-3.1316,-3.2321,-3.2895,-3.2803,-3.2342,-3.2342,-3.2672,-3.3134,-3.2617,-3.2578,-3.2843,-3.2897,-3.2773,-3.2453,-3.2453,-3.2453,-3.2508,-3.2827,-3.2897,-3.2843,-3.2897,-3.2928,-3.2975,-3.2975,-3.3591,-3.4416,-3.4857,-3.4971,-3.5054,-3.5228,-3.5814,-3.6299,-3.6338,-3.5814,-3.5431,-3.5778,-3.4789,-3.4182,-3.5185,-3.4539,-3.4185,-3.5038,-3.3269,-3.155,0.0,0.0,0.0,0.0,-3.4462,-3.467,0.0,0.0,0.0,0.0,0.0,-2.8814,-3.0964,-3.1104,-3.2222,-3.4483,-3.5029,-3.6766,-3.9582,-4.0324,-4.1004,-4.1588,-4.1588,-4.1588,-4.1588,-4.1588,-4.1588,-4.1588,-4.1437,-4.1417,-4.159,-4.2685,-4.3161,-4.341,-4.46,-4.5008,-4.4874,0.0,0.0,-3.314,-3.2097,-3.3317,-3.423,-3.371,-3.4062,-3.423,-3.3696,-3.4076,-3.4414,-3.4414,-3.4414,-3.4211,-3.3732,-3.2275,-3.1705,-3.2687,-3.0635,-2.9826,-3.0756,-2.9609,-2.8713,-2.8293,-2.8078,-2.7989,-2.7955,-2.8439,-2.8323,-2.763,-2.8584,-2.9221,-2.9561,-3.0089,-3.0639,-3.1107,-3.1271,-3.1465,-3.1709,-3.1709,-3.1766,-3.1936,-3.2287,-3.2453,-3.2578,-3.3134,-3.324,-3.3081,-3.3224,-3.3171,-3.3081,-3.3203,-3.2866,-3.2578,-3.2843,-3.3256,-3.359,-3.3382,-3.3862,-3.4643,-3.5517,-3.5689,-3.5381,-3.4436,-3.4539,-3.4855,-3.4876,-3.4574,-3.4288,-3.4425,-3.4,-3.3834,-3.4511,-3.4281,-3.3664,-3.2879,-3.208,-3.1124,0.0,-3.0783,-3.1894,-3.2982,-3.349,-3.3302,0.0,0.0,0.0,0.0,-3.2183,-3.3842,-3.4989,-3.6059,-3.6877,-3.7458,-3.8101,-3.9061,-4.0356,-4.1035,-4.143,-4.1588,-4.1588,-4.1588,-4.1588,-4.1588,-4.1588,-4.1636,-4.1987,-4.2454,-4.294,-4.306,-4.3681,-4.4437,-4.4251,-4.435,-4.4648,-2.8737,-3.0653,-3.225,-3.164,-3.257,-3.3465,-3.3811,-3.3811,-3.3962,-3.4332,-3.4414,-3.4414,-3.4414,-3.4414,-3.4167,-3.3514,-3.2498,-3.1869,-3.2048,-3.0635,-3.0042,-3.0553,-2.9797,-2.9059,-2.8552,-2.8192,-2.7813,-2.7302,-2.7818,-2.7766,-2.7203,-2.7859,-2.8419,-2.8843,-2.9191,-2.9795,-3.0436,-3.0644,-3.0866,-3.119,-3.119,-3.1306,-3.1537,-3.1652,-3.1823,-3.2048,-3.2351,-3.2407,-3.2351,-3.2586,-3.2656,-3.2711,-3.2888,-3.2888,-3.2796,-3.2897,-3.2982,-3.2967,-3.287,-3.3187,-3.3717,-3.4585,-3.5338,-3.5602,-3.4565,-3.457,-3.4864,-3.4881,-3.438,-3.397,-3.4197,-3.3577,-3.3216,-3.3676,-3.2856,-3.1921,-3.13,-3.083,-3.0902,-3.1785,-3.2337,-3.3278,-3.4872,-3.5147,-3.4685,-3.338,-3.3756,0.0,-3.3238,-3.4607,-3.6016,-3.7433,-3.8444,-3.9296,-3.9881,-4.0293,-4.083,-4.1557,-4.192,-4.2252,-4.2568,-4.2485,-4.2401,-4.2401,-4.2333,-4.2092,-4.1857,-4.2356,-4.2615,-4.2708,-4.3133,-4.3758,-4.426,-4.4198,-4.4339,-4.4572,-3.0747,-3.1101,-3.1523,-3.1979,-3.2074,-3.2263,-3.2891,-3.3017,-3.3269,-3.4066,-3.4206,-3.4264,-3.4414,-3.4327,-3.4022,-3.3383,-3.3238,-3.2701,-3.1584,-3.1329,-3.104,-3.0597,-3.0447,-3.0127,-2.9784,-2.9247,-2.8347,-2.707,-2.7103,-2.7103,-2.707,-2.707,-2.7559,-2.8432,-2.8432,-2.9045,-3.0013,-3.038,-3.0582,-3.0658,-3.0658,-3.0896,-3.119,-3.0896,-3.0999,-3.1349,-3.1304,-3.1304,-3.1304,-3.1549,-3.1792,-3.1946,-3.2241,-3.2711,-3.3027,-3.2773,-3.2388,-3.2012,-3.2216,-3.2609,-3.3023,-3.3444,-3.4759,-3.5749,-3.5048,-3.5156,-3.5415,-3.5379,-3.46,-3.4046,-3.4295,-3.341,-3.2676,-3.2682,-3.1238,-3.0061,-3.0068,0.0,-3.0931,-3.3937,-3.4297,-3.518,-3.7254,-3.7589,-3.718,-3.5979,-3.443,-3.4821,-3.7733,-3.6867,-3.7165,-3.9011,-3.9439,-4.0309,-4.1723,-4.1733,-4.2126,-4.2837,-4.2837,-4.3084,-4.3567,-4.3466,-4.3396,-4.3325,-4.3185,-4.2786,-4.2303,-4.2776,-4.2643,-4.224,-4.3306,-4.3725,-4.3787,-4.4372,-4.4572,-4.4572,-3.0408,-3.0559,-3.0895,-3.1906,-3.2074,-3.2055,-3.1832,-3.2034,-3.2412,-3.2908,-3.3208,-3.3673,-3.4346,-3.3935,-3.3354,-3.2716,-3.215,-3.1729,-3.1526,-3.1018,-3.0684,-3.0582,-3.0568,-3.0524,-3.0437,-3.0201,-2.9405,-2.8152,-2.8555,-2.8555,-2.8152,-2.8152,-2.8307,-2.8633,-2.8633,-2.8984,-2.9493,-2.961,-2.9869,-3.0158,-3.0007,-2.9993,-3.0101,-3.0404,-3.0584,-3.0763,-3.1392,-3.1622,-3.1622,-3.1492,-3.1679,-3.1807,-3.1347,-3.1622,-3.215,-3.1781,-3.1853,-3.2216,-3.329,-3.4395,-3.5053,-3.4383,-3.511,-3.578,-3.5093,-3.5175,-3.5334,-3.479,-3.452,-3.4235,-3.3724,-3.3484,-3.2916,-3.1516,-3.079,-2.9937,-2.8571,0.0,-3.1497,-3.2342,-3.4535,-3.6321,-3.6993,-3.8004,-3.8489,-3.8267,-3.8383,-3.8825,-3.9721,-3.9582,-3.9755,-4.0293,-4.0388,-4.1083,-4.2525,-4.2354,-4.2648,-4.3308,-4.3308,-4.3231,-4.3185,-4.3325,-4.3325,-4.3114,-4.3114,-4.3051,-4.3005,-4.3474,-4.3546,-4.353,-4.4185,-4.4418,-4.4433,-4.4541,-4.4572,-4.4572,-3.0268,-3.0233,-3.0341,-3.1053,-3.0895,-3.0811,-3.1047,-3.0953,-3.1113,-3.169,-3.2143,-3.2514,-3.2878,-3.2992,-3.2687,-3.2034,-3.17,-3.1366,-3.1032,-3.0727,-3.0568,-3.0568,-3.0248,-2.974,-2.9058,-2.8653,-2.8134,-2.7541,-2.7775,-2.7893,-2.7936,-2.7936,-2.8109,-2.844,-2.8497,-2.8843,-2.9376,-2.9376,-2.9691,-3.0205,-3.0144,-3.0021,-3.0021,-3.0312,-3.0251,-3.0068,-3.0329,-3.0315,-3.0147,-3.0254,-3.0555,-3.0852,-3.0615,-3.1102,-3.1595,-3.1116,-3.1437,-3.219,-3.3146,-3.3948,-3.4445,-3.4561,-3.5095,-3.5535,-3.5266,-3.5344,-3.5415,-3.51,-3.4741,-3.4382,-3.4083,-3.344,-3.2841,-3.2404,-3.1054,0.0,0.0,-3.1136,-3.2182,-3.252,-3.5004,-3.6841,-3.7188,-3.7919,-3.8731,-3.9503,-3.9518,-3.9913,-4.0881,-4.096,-4.099,-4.113,-4.1509,-4.1841,-4.2094,-4.2784,-4.3252,-4.3535,-4.3913,-4.422,-4.4526,-4.4542,-4.4397,-4.4252,-4.4091,-4.3785,-4.3433,-4.3967,-4.4044,-4.3766,-4.4386,-4.4572,-4.4572,-4.4572,-4.4572,-4.4572,-3.0162,-2.9967,-2.9912,-3.0342,-2.9907,-2.9706,-3.023,-2.9808,-2.9731,-3.0432,-3.0962,-3.1341,-3.1401,-3.1744,-3.1775,-3.132,-3.1118,-3.0906,-3.0611,-3.0568,-3.0568,-3.0568,-3.0103,-2.9319,-2.8202,-2.7694,-2.7447,-2.7378,-2.7302,-2.7512,-2.811,-2.8008,-2.821,-2.8698,-2.8814,-2.9117,-2.9434,-2.9434,-2.9636,-2.9939,-2.988,-2.986,-2.9943,-2.999,-2.9832,-2.9602,-2.9435,-2.9198,-2.8972,-2.9351,-2.9673,-2.9931,-3.0054,-3.0667,-3.1176,-3.0667,-3.1219,-3.2165,-3.2702,-3.3313,-3.3946,-3.4637,-3.5093,-3.5429,-3.5499,-3.5554,-3.5554,-3.5504,-3.5085,-3.4666,-3.4502,-3.3649,-3.2976,-3.3036,0.0,0.0,0.0,-3.2159,-3.2844,-3.347,-3.5721,-3.7297,-3.7487,-3.8166,-3.9046,-4.01,-4.0055,-4.0451,-4.1548,-4.1596,-4.169,-4.1825,-4.2394,-4.2489,-4.2078,-4.3258,-4.3952,-4.411,-4.4646,-4.5198,-4.5662,-4.5515,-4.5368,-4.522,-4.5039,-4.458,-4.3908,-4.4447,-4.4339,-4.3848,-4.4372,-4.4572,-4.4572,-4.4572,-4.4572,-4.4572,-2.9587,-2.9696,-2.9912,-3.0342,-2.9907,-2.9442,-2.9145,-2.8741,-2.864,-2.9106,-2.9777,-3.0299,-3.0515,-3.0446,-3.0471,-3.0594,-3.008,-2.9988,-3.0568,-3.0568,-3.0568,-3.0568,-3.0524,-3.019,-2.9508,-2.9435,-2.9349,-2.9232,-2.8769,-2.9002,-2.9897,-2.9593,-2.9695,-3.0182,-3.0363,-3.0132,-2.9566,-2.9566,-2.9319,-2.8811,-2.8641,-2.8929,-2.9448,-2.9271,-2.9341,-2.9602,-2.9699,-2.956,-2.9331,-2.9799,-2.9812,-2.9638,-2.9553,-3.021,-3.0882,-3.0517,-3.1311,-3.229,-3.2331,-3.3683,-3.508,-3.5003,-3.5442,-3.5913,-3.5752,-3.5688,-3.5638,-3.5504,-3.5459,-3.5235,-3.4592,-3.4397,-3.3754,-3.1958,0.0,0.0,-3.1467,-3.2324,-3.3531,-3.512,-3.6875,-3.7917,-3.7877,-3.9396,-4.0273,-4.001,-4.0887,-4.1478,-4.1557,-4.1623,-4.1889,-4.2584,-4.2663,-4.2963,-4.3564,-4.4063,-4.4683,-4.5358,-4.5405,-4.5379,-4.522,-4.5442,-4.5368,-4.522,-4.522,-4.5024,-4.4796,-4.4858,-4.4768,-4.451,-4.4556,-4.4572,-4.4572,-4.4572,-4.4572,-4.4572,-2.967,-2.9954,-3.0263,-3.057,-2.9774,-2.9292,-2.9481,-2.8769,-2.8215,-2.8248,-2.8808,-2.9082,-2.8826,-2.8999,-2.922,-2.9261,-2.9485,-2.9685,-2.9931,-3.0057,-3.009,-2.9987,-2.961,-2.9102,-2.8463,-2.8071,-2.7868,-2.7923,-2.7729,-2.801,-2.8726,-2.8606,-2.8768,-2.916,-2.932,-2.9175,-2.8857,-2.8972,-2.8898,-2.871,-2.9044,-2.9059,-2.9059,-2.9782,-2.9565,-2.9055,-2.951,-2.9338,-2.8858,-2.9039,-2.9228,-2.9267,-2.9053,-2.9614,-3.0364,-3.0386,-3.1299,-3.2293,-3.2327,-3.3121,-3.412,-3.4353,-3.4961,-3.54,-3.5219,-3.5559,-3.5846,-3.5653,-3.5653,-3.5514,-3.516,-3.4756,-3.4367,-3.4053,0.0,-3.2735,-3.3796,-3.3848,-3.4346,-3.5908,-3.6854,-3.7597,-3.8121,-3.9084,-3.9812,-4.0297,-4.1107,-4.1598,-4.1604,-4.2161,-4.2588,-4.2873,-4.3548,-4.3864,-4.3722,-4.4756,-4.5158,-4.4984,-4.5441,-4.5662,-4.5589,-4.5662,-4.5589,-4.5368,-4.5368,-4.5278,-4.5055,-4.5055,-4.5055,-4.498,-4.498,-4.498,-4.498,-4.498,-4.498,-4.4964,-2.9447,-2.9796,-3.008,-3.0242,-2.9437,-2.8918,-2.9295,-2.8529,-2.7782,-2.7631,-2.7993,-2.8095,-2.7522,-2.7841,-2.8119,-2.7991,-2.8425,-2.8747,-2.88,-2.924,-2.945,-2.9391,-2.9102,-2.8579,-2.7697,-2.7302,-2.7137,-2.7205,-2.7243,-2.755,-2.8148,-2.8217,-2.8341,-2.8482,-2.8693,-2.8652,-2.8482,-2.8448,-2.8548,-2.8695,-2.8942,-2.9015,-2.9073,-2.9943,-2.976,-2.912,-2.9572,-2.9415,-2.8935,-2.8998,-2.9137,-2.9232,-2.9282,-2.9882,-3.062,-3.0923,-3.157,-3.2278,-3.2278,-3.2609,-3.3172,-3.3955,-3.4528,-3.478,-3.4677,-3.5185,-3.5729,-3.5729,-3.5744,-3.5744,-3.5854,-3.5299,-3.5075,-3.5699,-3.4748,-3.4401,-3.5753,-3.5524,-3.5569,-3.6454,-3.724,-3.7918,-3.8672,-3.9267,-3.9879,-4.0493,-4.1075,-4.1507,-4.1787,-4.2857,-4.3479,-4.3522,-4.4496,-4.4843,-4.4385,-4.5333,-4.5555,-4.5065,-4.557,-4.5807,-4.5807,-4.5807,-4.5735,-4.5589,-4.5589,-4.5515,-4.5294,-4.5294,-4.5294,-4.522,-4.522,-4.522,-4.522,-4.522,-4.522,-4.522,-2.8886,-2.9145,-2.9274,-2.9274,-2.8778,-2.8386,-2.8386,-2.7767,-2.7281,-2.7268,-2.7442,-2.7373,-2.6777,-2.7082,-2.7151,-2.6906,-2.675,-2.6817,-2.7037,-2.8116,-2.8736,-2.8878,-2.9348,-2.9029,-2.7766,-2.7668,-2.7723,-2.7723,-2.7802,-2.8108,-2.8608,-2.8902,-2.8902,-2.8608,-2.8972,-2.8931,-2.8679,-2.8134,-2.8236,-2.8623,-2.7998,-2.8492,-2.961,-2.9624,-2.9793,-3.0111,-3.0111,-2.9865,-2.9638,-2.9919,-2.9789,-2.9764,-3.0668,-3.1309,-3.186,-3.2136,-3.2182,-3.2182,-3.2182,-3.2182,-3.2516,-3.3905,-3.4312,-3.4245,-3.4138,-3.456,-3.5146,-3.5766,-3.5863,-3.5946,-3.6535,-3.614,-3.5864,-3.6439,-3.6492,-3.6559,-3.6796,-3.7118,-3.7282,-3.684,-3.8087,-3.9083,-3.9349,-4.0439,-4.0935,-4.0539,-4.0867,-4.1367,-4.2037,-4.3542,-4.4478,-4.4701,-4.5428,-4.5807,-4.5807,-4.5807,-4.5807,-4.5807,-4.5807,-4.5807,-4.5807,-4.5807,-4.5807,-4.5807,-4.5807,-4.5662,-4.5515,-4.5515,-4.5368,-4.522,-4.522,-4.522,-4.522,-4.522,-4.522,-4.522,-2.8355,-2.8621,-2.8892,-2.9074,-2.8581,-2.8321,-2.875,-2.8239,-2.7653,-2.6982,-2.7416,-2.7252,-2.6085,-2.6148,-2.6244,-2.6008,-2.6064,-2.6144,-2.6394,-2.7865,-2.8347,-2.761,-2.8857,-2.9247,-2.8531,-2.805,-2.7705,-2.7476,-2.7409,-2.7512,-2.7756,-2.7861,-2.7809,-2.7636,-2.7809,-2.7809,-2.7665,-2.7808,-2.7973,-2.8221,-2.8768,-2.9015,-2.9058,-2.9958,-2.9954,-2.9483,-2.9954,-2.9741,-2.9323,-2.9854,-2.9821,-2.9745,-3.0842,-3.1278,-3.1537,-3.2078,-3.2182,-3.2182,-3.2182,-3.2182,-3.2314,-3.2704,-3.3171,-3.3492,-3.3506,-3.398,-3.4535,-3.4617,-3.4994,-3.5099,-3.4772,-3.5624,-3.6393,-3.6126,-3.6926,-3.7602,-3.7466,-3.7676,-3.8,-3.8286,-3.8482,-3.8873,-3.9722,-3.9839,-4.0304,-4.1201,-4.1872,-4.2086,-4.1787,-4.3137,-4.3965,-4.399,-4.5175,-4.5807,-4.5807,-4.5807,-4.5807,-4.5807,-4.5807,-4.5807,-4.5807,-4.5807,-4.5807,-4.5807,-4.5807,-4.575,-4.5735,-4.5735,-4.5662,-4.5589,-4.5589,-4.5589,-4.5589,-4.5589,-4.5589,-4.5589,-2.7803,-2.8045,-2.8208,-2.8317,-2.8088,-2.7971,-2.8265,-2.8075,-2.7579,-2.6796,-2.7152,-2.6994,-2.5661,-2.5671,-2.5567,-2.5061,-2.4873,-2.4936,-2.5347,-2.6521,-2.7024,-2.6679,-2.8154,-2.8828,-2.8525,-2.7935,-2.7512,-2.7335,-2.7284,-2.7335,-2.7401,-2.7437,-2.7386,-2.7248,-2.7602,-2.7602,-2.7451,-2.8042,-2.8396,-2.8633,-2.9305,-2.9552,-2.9523,-3.0277,-3.0081,-2.9462,-3.0116,-3.0031,-2.9734,-3.0083,-3.0321,-3.0515,-3.1266,-3.1662,-3.1908,-3.2146,-3.2182,-3.2182,-3.2182,-3.2314,-3.2372,-3.2241,-3.2503,-3.2832,-3.2832,-3.3479,-3.4243,-3.4469,-3.4896,-3.5137,-3.4897,-3.5611,-3.6128,-3.5898,-3.6943,-3.7923,-3.8281,-3.8522,-3.8752,-3.9134,-3.8938,-3.9032,-3.9666,-3.9711,-4.0076,-4.1124,-4.2209,-4.2553,-4.1846,-4.3021,-4.3722,-4.369,-4.478,-4.5365,-4.5365,-4.5665,-4.5807,-4.5807,-4.5807,-4.5807,-4.5807,-4.5807,-4.5807,-4.5807,-4.5807,-4.5807,-4.5807,-4.5807,-4.5807,-4.5807,-4.5807,-4.5807,-4.5807,-4.5735,-4.5735,-4.5735,-2.7207,-2.7417,-2.7469,-2.7335,-2.7403,-2.7469,-2.7335,-2.7403,-2.7314,-2.6739,-2.6919,-2.6575,-2.5422,-2.5483,-2.5199,-2.433,-2.3601,-2.3475,-2.4118,-2.4536,-2.5176,-2.6031,-2.7181,-2.7797,-2.7821,-2.7474,-2.7292,-2.7233,-2.735,-2.7401,-2.7386,-2.7539,-2.7423,-2.7196,-2.7876,-2.7983,-2.7679,-2.8499,-2.9085,-2.9552,-2.9595,-3.0001,-3.0568,-3.0582,-3.0266,-2.9893,-3.0496,-3.0594,-3.0434,-3.0568,-3.1185,-3.1819,-3.1847,-3.2219,-3.2574,-3.2314,-3.2182,-3.2182,-3.2182,-3.2444,-3.2561,-3.2241,-3.2223,-3.225,-3.225,-3.3057,-3.4099,-3.4887,-3.5286,-3.5614,-3.6137,-3.5755,-3.5451,-3.5807,-3.6639,-3.7636,-3.9029,-3.921,-3.9265,-3.9337,-3.9409,-3.9496,-3.9496,-3.996,-4.0359,-4.0616,-4.2288,-4.295,-4.22,-4.3167,-4.3785,-4.3722,-4.4433,-4.4812,-4.4812,-4.5476,-4.5807,-4.5807,-4.5807,-4.5807,-4.5807,-4.5807,-4.5807,-4.5807,-4.5807,-4.5807,-4.5807,-4.5807,-4.5735,-4.5735,-4.5735,-4.5735,-4.5735,-4.5515,-4.5589,-4.5662,-2.5858,-2.6732,-2.7456,-2.7469,-2.7469,-2.7456,-2.7469,-2.7469,-2.7248,-2.6531,-2.7038,-2.6828,-2.5422,-2.5346,-2.5192,-2.4836,-2.4054,-2.3541,-2.339,-2.4249,-2.5118,-2.5796,-2.6272,-2.6713,-2.7134,-2.7752,-2.7877,-2.7524,-2.7437,-2.735,-2.7233,-2.7269,-2.7181,-2.7055,-2.7329,-2.7373,-2.7328,-2.7905,-2.8455,-2.9097,-2.9421,-3.0001,-3.0568,-3.028,-3.0172,-3.0121,-3.0622,-3.0387,-2.9978,-3.0661,-3.1348,-3.1906,-3.2051,-3.2218,-3.2314,-3.2241,-3.2182,-3.2182,-3.2182,-3.2241,-3.2314,-3.2255,-3.2535,-3.2861,-3.2861,-3.3203,-3.3496,-3.3869,-3.4251,-3.4522,-3.447,-3.5355,-3.6003,-3.6023,-3.6679,-3.732,-3.7625,-3.8156,-3.856,-3.8826,-3.9451,-3.9996,-4.0261,-4.1549,-4.2233,-4.1774,-4.3357,-4.3819,-4.2606,-4.3763,-4.4259,-4.3737,-4.4922,-4.557,-4.557,-4.5728,-4.5807,-4.5807,-4.5807,-4.5807,-4.5807,-4.5807,-4.5807,-4.5807,-4.5807,-4.5807,-4.5807,-4.5662,-4.5589,-4.5515,-4.5368,-4.5294,-4.5294,-4.5294,-4.5294,-4.5368,-2.5177,-2.5879,-2.6518,-2.7002,-2.7201,-2.7201,-2.7121,-2.7201,-2.6994,-2.6335,-2.676,-2.6616,-2.5282,-2.5116,-2.4887,-2.457,-2.4317,-2.4004,-2.3577,-2.3988,-2.4338,-2.4535,-2.5004,-2.5387,-2.567,-2.6469,-2.692,-2.6982,-2.7218,-2.7284,-2.7284,-2.7284,-2.7233,-2.7122,-2.7777,-2.788,-2.7501,-2.8327,-2.8805,-2.8963,-2.942,-2.9871,-3.0265,-3.0286,-3.0358,-3.0515,-3.0934,-3.1065,-3.1116,-3.176,-3.2113,-3.23,-3.23,-3.23,-3.23,-3.2241,-3.2182,-3.2182,-3.2182,-3.2518,-3.2869,-3.2809,-3.3479,-3.3984,-3.3261,-3.359,-3.4068,-3.4316,-3.4552,-3.4607,-3.4591,-3.5022,-3.5319,-3.5235,-3.5916,-3.6517,-3.6738,-3.74,-3.8023,-3.8397,-3.922,-4.0087,-4.0916,-4.2138,-4.2729,-4.2599,-4.4062,-4.4393,-4.3263,-4.4164,-4.4401,-4.3737,-4.4733,-4.5254,-4.5119,-4.5602,-4.5807,-4.5807,-4.5807,-4.5807,-4.5807,-4.5807,-4.5807,-4.5807,-4.5807,-4.5735,-4.563,-4.5284,-4.507,-4.4966,-4.4579,-4.4642,-4.4778,-4.4705,-4.4759,-4.498,-2.4511,-2.4976,-2.556,-2.6557,-2.6875,-2.6943,-2.6794,-2.6875,-2.6845,-2.6345,-2.6569,-2.632,-2.528,-2.5062,-2.4732,-2.4192,-2.4619,-2.4695,-2.4167,-2.3941,-2.3729,-2.3378,-2.3914,-2.4275,-2.4275,-2.4848,-2.5508,-2.6176,-2.6837,-2.7225,-2.7343,-2.7565,-2.7572,-2.7497,-2.8571,-2.8598,-2.7955,-2.9015,-2.9275,-2.9068,-2.9406,-2.974,-3.0002,-3.048,-3.0754,-3.0871,-3.1396,-3.204,-3.2561,-3.2846,-3.2846,-3.2704,-3.2489,-3.2417,-3.2417,-3.23,-3.2314,-3.2314,-3.2314,-3.2946,-3.3522,-3.3404,-3.4319,-3.4913,-3.3643,-3.4199,-3.4991,-3.5254,-3.5237,-3.5236,-3.5399,-3.4977,-3.4564,-3.4647,-3.5196,-3.5749,-3.6149,-3.695,-3.7658,-3.7976,-3.8782,-3.9922,-4.1392,-4.2109,-4.2757,-4.3341,-4.4528,-4.4846,-4.3857,-4.4527,-4.4488,-4.3731,-4.4441,-4.4772,-4.4575,-4.5372,-4.5735,-4.5662,-4.5662,-4.5735,-4.5735,-4.5735,-4.5735,-4.5662,-4.5662,-4.5589,-4.5395,-4.4928,-4.4605,-4.447,-4.3992,-4.4118,-4.4372,-4.4242,-4.4378,-4.4663,-2.2638,-2.4145,-2.556,-2.6773,-2.6943,-2.7024,-2.6943,-2.6943,-2.6998,-2.6909,-2.6905,-2.67,-2.6023,-2.5841,-2.5494,-2.4757,-2.5065,-2.514,-2.4745,-2.4591,-2.4489,-2.4594,-2.4255,-2.4064,-2.4064,-2.4216,-2.4681,-2.5508,-2.6661,-2.7152,-2.7097,-2.8199,-2.8656,-2.8475,-2.865,-2.8679,-2.8565,-2.8739,-2.9073,-2.9508,-2.9581,-2.9958,-3.051,-3.0826,-3.0925,-3.109,-3.2156,-3.2817,-3.3129,-3.2846,-3.2704,-3.2704,-3.2704,-3.2632,-3.2632,-3.2632,-3.2775,-3.2917,-3.2917,-3.3114,-3.3325,-3.3325,-3.3872,-3.443,-3.4571,-3.5123,-3.5601,-3.5601,-3.5507,-3.5399,-3.5642,-3.5318,-3.5154,-3.571,-3.5548,-3.5548,-3.571,-3.6494,-3.7134,-3.7134,-3.8188,-3.9546,-4.1361,-4.2078,-4.3071,-4.437,-4.5261,-4.5324,-4.4394,-4.5135,-4.5088,-4.3772,-4.4937,-4.5561,-4.5295,-4.5437,-4.5442,-4.5294,-4.5294,-4.5368,-4.5515,-4.5515,-4.5442,-4.5294,-4.5294,-4.5294,-4.5204,-4.493,-4.4884,-4.4794,-4.4567,-4.4507,-4.4584,-4.4509,-4.4571,-4.4648,-2.0934,-2.2285,-2.3723,-2.511,-2.5827,-2.6358,-2.6688,-2.6739,-2.6739,-2.6739,-2.6739,-2.6637,-2.6384,-2.6358,-2.6063,-2.5297,-2.5762,-2.5917,-2.5285,-2.5194,-2.5056,-2.4833,-2.4356,-2.4054,-2.4004,-2.3803,-2.3839,-2.4105,-2.5379,-2.6077,-2.6282,-2.7329,-2.7953,-2.8125,-2.8957,-2.9246,-2.9203,-2.9203,-2.942,-2.9726,-2.961,-2.9842,-3.025,-3.1011,-3.1493,-3.1982,-3.3116,-3.3542,-3.3591,-3.3437,-3.3368,-3.3368,-3.3227,-3.3157,-3.3016,-3.2917,-3.2846,-3.2846,-3.2846,-3.3431,-3.4046,-3.4178,-3.492,-3.5717,-3.6107,-3.6431,-3.6587,-3.6429,-3.5951,-3.571,-3.6191,-3.579,-3.5562,-3.579,-3.571,-3.5723,-3.6058,-3.6457,-3.7056,-3.8144,-3.8457,-3.9519,-4.1797,-4.2004,-4.2689,-4.4449,-4.4896,-4.5091,-4.5182,-4.5457,-4.5425,-4.4906,-4.5394,-4.5573,-4.5379,-4.5499,-4.5336,-4.5067,-4.5278,-4.5368,-4.5368,-4.5368,-4.5294,-4.522,-4.522,-4.5129,-4.5008,-4.4604,-4.4215,-4.3842,-4.3485,-4.3619,-4.3967,-4.4595,-4.4814,-4.498]}]]